GFSWCAN_sfc_temp_000.txt.gz
Temp
51 50 50 50 51 51 51 51 51 51 51 51 51 52 51 51 52 53 50 51 49 39 44 49 50 46 43 41 36 41 40 36 36 33 29 29 20 29 29 33 30 31 25 22 26 25 23 41 42 36 42 43 45 45
50 50 49 50 50 50 51 51 50 50 50 50 51 51 51 51 51 52 50 51 50 46 47 48 50 51 51 51 45 39 42 40 37 33 33 29 26 29 31 30 35 31 36 33 35 31 41 46 46 48 48 43 41 39
49 50 49 49 50 50 50 50 50 50 50 50 50 50 51 52 52 52 49 48 46 37 44 46 47 52 55 54 54 42 35 45 40 41 33 32 28 31 32 33 30 39 42 35 37 41 43 47 49 47 44 42 41 41
49 48 49 49 49 49 50 50 50 49 49 49 49 50 50 51 51 52 49 47 46 40 34 41 49 49 53 53 51 52 49 46 43 38 34 33 33 41 34 39 36 40 42 38 37 44 44 44 41 42 42 42 42 42
48 48 48 49 49 49 49 49 49 49 49 49 50 50 49 51 51 50 49 49 50 47 36 37 45 49 50 51 49 48 48 45 40 37 34 35 35 36 34 35 35 41 39 34 37 44 42 44 44 45 42 42 43 42
48 48 48 48 48 48 48 48 48 48 49 49 49 50 50 50 51 49 45 47 49 51 39 35 42 41 45 47 47 45 46 44 42 40 35 39 44 39 33 35 41 46 48 48 44 49 47 44 44 44 42 42 42 41
48 48 47 47 47 48 48 48 48 48 48 48 49 49 49 50 52 49 44 46 49 48 36 35 35 36 41 43 41 42 43 41 41 40 37 37 38 42 33 36 43 45 45 47 48 45 39 40 40 44 44 44 42 41
47 47 47 47 47 47 47 48 48 48 48 48 49 49 49 49 49 47 47 49 50 44 39 34 35 34 41 35 34 39 35 38 41 40 37 35 37 35 34 40 42 44 45 42 40 40 39 43 44 43 41 39 37 35
47 47 47 47 47 47 47 47 48 48 48 49 49 49 48 46 42 44 48 48 47 44 37 33 34 33 41 37 35 33 36 33 37 33 34 36 33 34 38 37 38 39 38 38 38 39 40 38 37 38 37 36 34 33
47 47 46 47 47 47 47 48 48 48 48 48 47 43 36 39 47 48 45 40 39 37 37 33 36 34 41 34 33 34 33 32 32 33 36 32 33 40 39 38 37 37 38 39 35 36 35 34 34 34 35 35 34 32
47 47 47 47 47 47 47 47 48 48 48 43 38 35 42 47 43 38 34 34 35 33 34 34 34 35 39 34 33 33 32 32 23 25 31 28 27 33 35 35 36 37 38 38 37 37 38 38 36 34 33 34 32 31
47 47 47 47 47 47 47 47 48 46 44 44 43 44 42 40 35 35 32 32 32 30 33 32 34 36 34 39 33 32 29 29 24 28 27 20 27 33 34 34 35 36 36 37 38 37 37 36 35 33 32 32 31 30
47 47 47 47 47 47 48 48 47 48 47 43 39 35 37 33 31 30 26 29 29 32 33 33 32 33 34 34 31 29 24 22 24 22 20 23 31 33 33 35 36 35 34 32 34 34 34 33 32 28 29 30 28 28
46 46 47 47 47 47 48 48 48 46 43 34 31 31 30 28 30 30 30 24 28 33 33 33 31 31 29 28 27 20 22 22 22 15 16 23 31 33 33 33 33 34 29 28 32 32 29 28 28 28 25 26 24 26
46 46 46 46 47 47 48 47 46 43 37 31 29 25 28 28 30 32 32 33 33 34 33 32 30 28 26 22 25 20 21 19 21 17 17 25 32 33 33 34 33 29 26 27 32 28 26 26 25 27 29 27 25 24
46 46 44 46 47 47 47 46 43 40 32 30 26 21 27 30 29 31 32 32 34 33 31 28 21 20 18 18 15 18 16 14 17 15 21 26 32 33 33 31 31 31 30 31 31 29 29 25 25 29 29 27 26 25
45 40 45 46 46 45 45 41 36 31 28 23 20 29 22 21 24 25 32 32 35 32 27 23 16 18 19 11 13 19 14 17 18 21 24 29 32 33 32 31 29 29 30 29 30 29 29 28 25 23 24 30 28 27
41 44 46 46 45 42 38 34 29 28 24 23 22 21 29 25 23 28 29 27 32 30 28 25 23 13 9 10 13 17 18 19 22 22 26 29 31 31 32 31 32 32 31 30 27 27 26 23 25 28 29 29 29 28
43 44 45 45 43 34 30 29 31 23 22 20 21 23 21 22 27 25 24 26 32 32 29 22 12 13 17 17 16 12 11 16 23 27 27 31 30 31 31 31 31 31 30 28 29 29 29 28 28 29 29 28 30 32
45 44 44 44 43 30 26 24 30 25 22 24 21 22 21 21 25 27 29 26 25 30 28 23 20 19 19 22 24 23 24 25 23 24 29 27 29 31 31 31 31 31 30 28 25 22 25 27 27 27 27 32 32 32
42 41 41 38 31 30 27 22 22 22 23 22 22 21 17 25 26 25 27 31 27 25 21 23 19 25 28 27 27 27 28 27 28 25 26 28 29 28 30 30 29 25 22 19 22 30 31 31 31 32 33 33 33 33
39 41 35 35 27 24 25 24 23 22 20 18 17 18 11 10 20 24 28 27 26 23 27 27 31 29 29 30 30 30 31 31 31 29 26 27 27 25 25 26 19 21 19 21 24 26 31 33 33 33 32 32 33 33
40 35 29 26 23 19 20 23 17 20 14 14 15 14 10 8 14 25 23 27 24 27 27 27 31 32 32 33 30 31 32 31 30 29 28 28 28 26 22 22 19 21 21 24 23 25 31 32 33 32 33 32 32 31
38 29 25 22 18 16 24 21 20 16 13 11 10 13 11 10 16 20 16 12 23 23 25 30 28 26 25 27 25 29 31 28 28 27 25 22 23 26 23 23 20 20 23 26 25 31 29 30 32 32 32 30 30 29
26 25 21 21 23 18 18 9 11 21 20 9 9 8 10 10 9 7 9 16 13 15 21 22 21 25 23 20 21 25 25 27 25 24 28 23 21 16 20 20 21 23 20 16 19 22 29 31 31 30 31 30 29 29
14 23 22 17 20 12 10 11 16 15 2 4 12 8 1 3 5 11 15 16 12 14 13 14 15 17 21 25 24 23 28 22 22 20 28 23 24 23 20 18 20 21 19 26 29 29 29 29 29 29 29 30 29 28
14 21 26 23 21 16 7 4 9 5 2 7 6 3 4 6 5 15 19 20 22 22 23 23 25 25 27 27 26 26 22 20 24 26 21 21 23 24 23 20 26 27 27 29 27 29 28 28 28 28 29 30 29 30
15 16 18 18 20 15 7 2 4 8 9 14 9 8 11 11 15 20 24 25 24 23 23 23 23 24 24 25 23 18 24 23 22 14 19 26 26 26 24 20 26 29 26 28 29 29 29 29 29 28 28 28 28 30
23 19 17 16 9 7 12 14 13 16 21 18 15 10 14 19 19 19 21 20 16 19 20 19 21 14 19 19 21 30 27 27 28 26 24 24 16 22 23 20 23 28 28 28 29 29 27 22 20 22 22 25 28 29
21 20 14 9 13 15 19 23 16 13 15 18 18 20 20 18 13 15 16 17 19 21 23 23 25 24 26 26 27 26 23 23 24 25 23 18 16 15 15 16 17 21 24 27 28 27 27 12 14 16 18 20 19 19
13 16 18 15 13 13 16 6 2 4 4 11 11 18 25 15 14 8 14 10 12 13 14 13 14 15 15 16 17 19 22 18 19 17 16 16 16 16 15 13 12 13 17 20 24 25 17 13 9 6 11 20 16 14
18 12 11 7 10 10 3 11 3 4 6 4 20 3 6 7 2 8 14 12 12 12 12 12 12 13 17 19 19 19 19 17 17 17 17 16 16 13 12 9 6 7 7 11 13 9 9 8 6 5 5 8 8 8
4 2 6 1 6 7 3 6 3 6 -1 -2 0 0 -2 4 6 11 16 16 14 12 12 13 15 17 18 17 17 17 17 17 17 15 14 15 12 9 5 3 1 0 0 1 2 1 3 2 2 2 2 3 3 4

GFSWCAN_sfc_temp_003.txt.gz
Temp
50 50 50 50 50 50 51 51 51 51 51 51 51 51 51 51 51 54 51 51 51 42 47 51 52 47 46 45 40 44 43 40 38 34 33 33 32 36 35 38 35 36 32 29 29 28 26 46 46 39 44 44 46 46
50 50 49 49 50 50 50 50 50 50 50 50 50 50 51 51 51 53 52 51 50 48 50 50 53 55 55 53 46 42 46 42 41 36 34 33 32 29 33 33 40 34 39 36 36 37 46 48 48 49 46 44 42 41
49 49 49 49 49 49 50 50 50 50 49 50 50 50 50 51 52 52 50 49 47 39 45 49 50 54 56 56 56 45 40 47 43 45 38 35 34 35 32 32 34 41 44 38 38 45 47 49 48 46 44 44 43 44
48 48 48 49 49 49 49 50 49 49 49 49 49 49 50 51 51 52 50 48 47 40 34 43 50 51 55 56 55 54 49 46 44 41 35 34 33 42 35 41 39 44 43 39 38 46 46 46 46 48 43 44 43 44
48 48 48 48 48 49 49 49 49 49 49 50 49 49 49 51 51 50 50 50 50 49 37 38 47 50 51 53 52 51 50 45 42 38 34 35 38 38 36 35 35 43 42 38 38 46 44 44 45 45 43 43 44 44
48 48 48 48 48 48 48 49 49 49 49 49 49 49 50 50 50 50 46 49 50 51 39 36 44 43 47 50 50 48 48 46 44 41 36 40 45 41 33 33 43 47 50 50 45 47 43 43 45 46 44 45 45 45
48 48 48 47 47 48 48 48 48 48 48 49 49 49 49 49 52 49 45 48 49 49 37 35 36 40 43 44 42 43 44 44 44 42 37 38 40 42 33 34 45 47 48 48 47 44 40 42 41 45 46 46 45 45
47 47 47 47 47 47 47 47 48 48 48 48 49 49 49 49 50 48 49 49 49 45 40 34 35 35 43 36 36 40 38 40 42 41 38 37 38 37 34 42 43 44 46 42 41 43 43 44 44 44 45 44 41 41
47 47 47 47 47 47 47 47 48 48 49 49 48 49 49 47 43 45 48 49 48 45 37 34 34 34 41 37 36 36 37 34 39 34 35 37 35 34 37 38 39 40 41 39 41 41 42 41 42 42 41 41 39 40
47 46 46 47 47 47 47 47 47 48 48 49 47 44 36 40 47 48 45 41 38 38 38 34 37 35 42 35 34 35 34 33 33 34 37 32 33 39 39 40 40 40 41 41 38 38 39 39 39 39 39 40 39 38
47 47 46 47 47 47 47 47 48 48 48 43 38 36 42 47 43 39 34 35 35 33 35 35 34 35 39 35 33 33 32 32 29 31 32 31 31 35 38 38 39 40 41 41 42 41 40 38 37 37 37 37 36 35
48 47 47 47 47 47 47 47 47 45 44 44 43 44 42 41 36 34 32 32 33 32 33 33 34 36 34 39 33 32 30 30 23 31 30 27 32 36 38 39 39 39 40 40 41 39 38 38 38 36 35 35 34 33
47 47 47 47 47 47 47 47 47 47 46 44 40 35 38 33 32 31 29 30 31 33 33 33 32 34 34 35 32 30 26 26 28 26 25 29 35 36 37 38 38 39 38 36 38 38 37 37 36 32 31 32 30 31
46 47 47 47 47 47 47 48 48 46 43 35 34 31 31 30 31 27 27 28 31 33 33 33 31 32 30 29 28 26 25 25 23 20 22 29 34 36 36 36 38 38 30 30 34 35 32 30 30 30 27 28 27 28
46 46 46 46 47 48 47 47 47 44 36 32 32 27 29 29 32 33 33 33 33 34 33 32 31 32 26 25 25 23 23 21 23 23 26 30 34 35 36 37 37 32 28 29 35 32 29 28 28 29 31 30 30 27
46 46 43 46 47 47 46 46 44 41 32 31 27 26 28 28 29 32 32 32 34 32 31 31 25 26 24 24 22 19 20 19 24 24 28 31 34 34 35 34 34 34 32 33 33 32 31 28 27 31 30 29 28 27
46 41 45 46 45 45 45 41 37 32 30 25 22 26 25 25 29 31 32 33 35 32 27 26 24 24 23 19 19 22 19 24 25 27 29 31 34 35 35 33 30 31 32 32 33 32 31 31 27 26 27 33 32 31
41 44 46 46 44 43 38 35 32 30 25 24 23 27 28 27 25 25 31 32 34 31 29 27 26 19 18 18 20 23 25 26 26 28 32 32 34 35 35 34 35 34 34 33 30 30 29 27 29 31 31 32 31 33
43 45 46 45 44 34 31 31 32 24 22 22 24 27 27 27 28 28 28 31 33 32 29 25 19 20 22 23 24 22 22 23 29 32 32 33 33 33 33 33 32 33 33 32 32 32 32 30 30 31 31 32 31 32
43 43 43 44 43 31 27 26 30 26 22 25 24 26 23 25 27 28 30 31 32 32 29 26 24 25 25 27 27 28 29 29 28 28 31 31 33 33 33 34 34 34 33 32 30 25 29 31 33 34 32 31 31 31
41 41 41 39 32 31 28 24 23 24 25 23 22 23 20 27 26 27 28 32 30 28 26 27 25 29 30 30 31 31 31 30 30 29 30 31 33 32 33 33 33 31 29 29 27 28 25 30 32 34 32 31 32 33
38 41 34 34 27 26 25 25 24 23 22 20 19 20 13 14 23 25 29 27 27 27 28 27 30 31 31 31 32 32 33 32 32 31 28 29 29 30 29 31 28 29 28 28 29 28 30 31 32 33 31 32 33 33
40 36 29 26 23 19 22 25 18 20 16 15 16 15 12 11 16 27 23 28 27 28 30 30 32 34 32 33 31 32 32 31 31 30 29 29 30 30 29 29 28 27 27 29 29 29 28 32 33 32 33 33 32 32
37 27 22 18 15 16 26 17 22 20 15 14 12 15 13 14 21 21 19 18 24 25 26 31 30 29 28 28 28 30 32 31 30 29 29 27 28 30 30 30 28 27 28 30 28 28 30 31 29 32 32 31 31 31
26 24 20 17 19 18 11 18 20 23 19 19 15 13 10 13 11 14 16 18 17 19 22 23 24 27 26 25 25 28 26 29 29 28 32 27 29 26 29 29 26 27 28 27 27 27 28 31 32 31 30 29 29 29
16 23 14 10 12 13 9 15 17 18 12 12 16 9 4 7 8 12 17 19 17 20 19 20 23 23 25 27 28 28 31 28 27 26 31 29 28 27 28 27 26 28 29 28 28 29 29 29 29 29 29 30 30 29
16 21 23 22 19 15 7 7 11 6 11 11 8 5 5 7 7 17 21 22 24 24 25 26 27 27 30 31 28 27 27 25 27 29 28 26 27 27 27 28 28 30 31 30 30 29 28 28 28 29 29 29 29 29
15 14 14 20 18 13 6 2 5 9 11 15 11 9 11 12 16 22 23 24 22 24 25 24 23 25 25 27 26 25 25 27 27 26 24 27 28 26 26 26 27 27 29 29 29 29 29 29 28 26 27 27 27 29
20 15 16 19 17 17 11 16 16 18 21 16 14 10 15 20 18 17 18 18 19 23 22 22 25 23 24 28 30 29 28 28 27 26 27 26 25 24 20 21 21 23 25 27 29 29 30 28 26 25 25 25 24 24
20 15 11 11 11 13 18 20 16 14 16 17 18 20 20 14 15 14 14 13 13 13 15 17 19 19 18 17 17 20 20 20 20 20 21 21 18 17 17 17 18 18 19 21 23 26 28 23 21 20 19 21 18 17
12 18 15 13 11 13 13 4 1 3 4 10 6 17 20 12 12 10 13 9 7 8 11 11 11 14 14 14 16 17 18 19 19 18 18 17 16 16 15 14 14 14 14 15 22 23 20 17 14 13 13 12 11 11
20 18 15 13 11 7 5 10 1 4 1 4 9 0 4 7 2 8 13 11 11 10 11 11 11 13 16 19 18 17 16 15 14 14 15 15 14 13 11 11 9 8 9 10 11 12 11 10 9 8 8 7 7 7
15 16 15 12 11 8 2 4 3 7 2 -2 -2 -2 -1 1 -1 6 10 12 11 9 8 9 12 17 16 14 14 14 14 13 13 12 11 11 9 7 6 5 4 4 6 6 6 6 6 5 5 4 4 4 3 3

GFSWCAN_sfc_temp_006.txt.gz
Temp
50 50 50 50 50 50 51 51 51 51 52 52 52 51 51 51 52 62 59 59 63 55 59 60 60 58 58 62 53 54 54 51 46 38 36 40 36 45 44 48 44 42 38 34 35 30 29 54 53 40 50 49 45 46
50 50 49 49 49 50 50 50 50 51 51 51 51 51 51 51 51 56 64 59 59 62 59 59 61 62 63 67 61 55 56 55 56 45 40 38 34 34 40 38 51 42 47 45 43 45 57 59 54 55 50 47 50 47
49 49 49 49 49 49 49 50 50 50 50 50 51 51 51 52 52 56 63 60 62 52 57 60 59 62 65 65 68 57 54 58 55 56 49 41 35 45 34 39 41 52 54 45 44 51 55 56 58 54 51 47 47 47
48 48 48 49 49 49 49 49 49 49 49 49 50 50 50 52 52 54 60 59 59 51 37 53 58 59 62 64 65 65 60 56 56 55 39 37 38 52 39 49 47 53 53 48 45 52 54 55 52 49 48 46 46 51
48 48 48 48 48 48 49 49 49 49 49 48 49 49 50 51 51 58 60 59 60 60 45 51 56 57 60 62 63 63 61 57 50 42 36 39 46 46 44 42 43 55 51 42 38 49 49 47 47 49 46 47 51 49
48 48 48 48 48 48 48 48 49 49 49 49 49 50 50 51 51 62 58 60 60 61 49 42 55 53 56 60 59 59 60 56 55 47 41 47 54 50 35 36 48 56 58 54 48 49 49 48 47 51 50 50 51 51
48 47 47 47 48 48 48 47 48 48 49 49 49 49 50 50 59 57 56 56 53 60 45 42 45 50 51 54 53 56 54 55 51 48 43 46 49 49 36 35 51 52 52 51 50 47 45 49 48 50 50 51 52 53
47 47 47 47 47 47 47 47 47 48 48 48 49 49 49 49 51 53 56 52 55 52 47 39 38 43 50 43 40 46 43 47 47 47 41 43 45 43 36 49 49 49 46 47 47 50 50 50 50 51 53 52 49 49
47 47 47 47 47 47 47 48 47 48 48 49 48 49 50 48 45 48 49 51 54 54 43 36 36 36 48 41 41 41 45 38 44 37 38 41 37 35 43 45 43 44 45 44 49 50 50 48 49 50 49 49 47 46
48 47 47 47 47 47 47 48 48 48 48 49 49 45 37 42 48 49 47 45 42 41 42 37 46 40 48 38 37 38 39 37 35 36 40 33 34 42 44 45 45 46 48 48 44 42 45 45 46 46 46 46 46 45
47 47 47 47 47 47 48 47 47 48 48 44 39 36 43 47 45 42 36 36 36 34 37 36 36 36 41 38 36 36 33 34 33 36 35 35 37 42 45 46 47 49 50 49 49 48 48 47 45 44 43 43 42 41
47 47 47 47 47 47 47 47 47 46 44 44 44 45 43 41 36 35 33 32 33 34 34 34 35 38 35 41 36 33 33 33 31 40 32 32 43 44 45 45 47 48 48 47 48 47 47 45 45 43 42 41 40 38
46 47 47 47 47 47 47 47 47 46 46 45 40 34 36 34 32 32 31 32 32 35 35 35 33 36 36 37 33 35 31 31 37 30 32 40 43 45 46 46 46 48 46 42 46 47 46 45 43 39 36 37 34 36
46 46 47 47 47 47 47 47 46 45 43 37 34 32 33 32 34 35 36 36 35 36 36 35 33 35 33 31 33 31 31 34 28 26 30 39 43 45 45 44 45 44 38 38 42 43 38 36 36 35 33 33 32 33
46 46 47 47 47 47 46 45 46 47 41 35 36 31 32 32 35 34 35 36 35 37 37 34 33 38 32 30 31 29 26 27 31 31 38 42 43 43 42 42 43 40 35 36 42 38 34 34 34 35 36 35 35 33
46 45 46 47 47 47 46 45 45 43 38 36 33 31 32 32 32 33 33 33 36 34 35 37 33 31 29 31 27 28 28 28 33 36 40 42 41 40 41 41 41 42 39 40 40 39 38 34 33 37 36 34 33 33
45 42 46 46 45 44 44 43 43 36 33 33 31 33 32 33 34 34 36 35 37 35 32 34 30 29 29 28 27 31 29 34 37 39 41 40 40 41 42 41 36 37 38 39 40 39 38 37 34 33 33 38 36 35
42 45 46 46 47 44 40 42 38 35 31 32 32 31 33 33 33 34 36 36 35 35 35 34 33 28 28 27 30 34 35 38 39 40 42 42 42 41 42 41 42 41 40 40 36 37 36 33 35 39 38 38 35 35
46 45 46 46 48 43 37 36 38 32 31 32 31 32 33 32 32 33 34 34 38 39 35 34 30 30 31 33 34 35 36 38 40 42 42 42 41 39 39 40 38 39 39 39 39 41 42 39 38 39 39 38 34 35
45 43 43 43 46 41 33 34 39 36 33 33 32 33 32 31 31 32 33 35 37 36 33 31 33 35 36 39 40 40 41 41 39 36 38 41 41 40 39 40 41 42 41 41 40 35 38 39 41 41 40 38 34 33
40 40 41 41 38 38 35 34 33 34 33 33 31 35 29 31 30 30 31 35 33 33 33 36 35 39 39 40 40 41 40 40 39 38 37 38 42 41 40 41 41 40 38 38 36 38 34 36 39 39 34 33 33 34
38 41 36 37 33 32 33 34 35 34 34 32 32 34 30 29 28 29 33 30 31 36 39 39 41 41 40 38 40 40 41 40 40 39 36 37 37 39 39 40 38 36 37 36 37 35 36 38 37 35 33 33 34 34
39 38 34 33 31 31 27 34 31 31 29 28 30 29 28 29 29 31 27 32 34 39 41 40 41 40 40 41 39 40 40 38 39 40 39 39 40 39 37 38 38 34 34 38 40 37 35 35 35 33 34 33 33 32
40 33 29 28 29 25 30 26 30 28 29 26 27 24 25 28 27 25 24 28 35 37 36 38 39 40 40 36 38 41 41 41 41 41 40 38 38 40 41 40 39 37 37 38 36 35 34 33 33 33 32 32 32 31
32 27 29 23 27 24 23 24 25 27 24 24 21 23 23 25 24 22 23 31 34 34 36 38 37 38 38 39 40 40 38 40 40 39 41 40 37 36 37 40 40 38 36 32 32 32 32 32 32 32 32 31 31 31
22 26 26 24 23 25 24 21 22 23 24 21 22 24 23 25 23 25 30 34 33 35 34 35 36 38 39 40 39 40 42 40 38 36 39 40 37 33 31 31 32 35 36 34 32 31 31 31 31 31 31 31 31 30
21 23 28 30 28 25 22 22 23 23 19 19 24 20 23 21 23 30 35 33 34 31 33 34 33 34 34 35 36 37 37 36 33 35 36 34 33 33 31 30 30 32 33 33 32 31 30 30 30 30 31 31 31 30
26 27 22 25 24 27 23 23 22 21 26 28 26 21 22 25 28 30 28 27 27 29 31 32 31 30 30 31 31 30 30 32 32 33 32 32 31 31 29 29 29 27 30 31 31 31 31 30 30 29 29 29 30 30
27 27 27 21 22 23 25 26 27 30 32 29 27 28 28 29 21 22 23 23 25 26 24 23 25 25 28 28 29 28 27 26 24 24 25 27 30 25 25 25 26 26 27 27 28 28 29 29 28 28 28 28 28 28
26 28 25 21 20 23 30 31 30 30 31 32 32 31 27 20 18 22 21 20 19 18 18 20 20 20 19 20 21 24 24 23 22 20 19 19 19 21 22 22 22 22 23 24 25 28 29 28 27 27 25 24 22 22
27 27 26 26 25 29 27 22 24 24 26 29 28 29 30 17 17 18 17 18 18 18 17 16 18 20 19 19 18 18 18 19 18 18 18 20 20 19 18 18 18 19 20 21 23 24 23 23 22 20 19 17 15 16
26 25 25 21 26 25 23 23 24 25 27 25 28 21 19 19 13 14 15 16 15 13 12 14 14 16 18 19 18 18 16 16 16 15 14 15 15 15 15 15 15 16 17 19 19 19 18 18 17 16 15 13 12 11
21 21 21 21 22 23 22 21 22 21 22 22 19 18 15 15 8 12 17 16 14 13 12 13 15 16 18 17 16 16 16 16 15 13 11 11 9 9 10 12 12 13 15 15 15 15 14 13 12 11 9 8 7 6

GFSWCAN_sfc_temp_009.txt.gz
Temp
50 50 50 50 50 51 51 51 52 52 52 52 52 52 51 52 52 63 68 67 68 62 63 66 68 65 65 67 55 61 58 57 54 39 40 44 38 49 48 54 47 43 38 34 38 33 32 59 57 44 54 57 54 50
50 50 50 50 49 50 50 51 51 51 52 52 52 52 52 52 52 54 72 69 69 69 64 66 66 68 68 72 68 62 62 60 60 52 45 44 37 38 43 42 59 46 51 47 47 47 60 59 56 59 58 53 51 47
48 49 49 49 49 49 49 50 50 51 51 51 52 54 52 52 52 55 72 70 72 58 64 65 64 66 72 71 74 61 62 67 63 66 52 44 35 48 36 44 50 57 63 50 48 55 58 57 59 57 55 51 49 48
48 48 48 49 49 49 49 49 49 50 50 50 51 51 52 52 52 53 70 68 69 58 40 59 66 65 67 70 71 71 68 65 65 62 43 39 39 58 43 52 52 56 58 53 51 57 58 60 54 54 52 52 51 56
48 48 48 48 49 49 49 48 48 49 49 49 49 49 50 53 53 64 69 68 68 64 48 54 62 63 66 67 67 68 66 62 58 45 38 41 53 53 50 46 48 58 55 48 45 56 52 52 54 54 53 52 55 54
48 48 48 48 48 48 48 48 48 48 48 48 50 50 51 51 52 68 63 68 68 67 53 45 60 59 63 65 64 64 65 64 62 53 43 55 62 54 37 40 55 60 62 63 56 57 53 50 51 54 55 54 55 54
48 48 48 48 48 48 48 48 48 48 48 49 49 50 50 50 62 60 60 60 55 68 50 44 50 55 58 61 62 61 61 60 58 52 47 49 53 54 41 40 55 59 60 58 56 52 43 48 49 55 54 55 54 56
47 47 47 47 48 48 48 48 48 48 48 48 49 49 49 49 51 57 62 55 58 63 55 43 42 46 56 49 45 55 50 50 53 54 45 45 53 46 39 52 58 59 55 51 50 50 47 50 55 55 56 56 53 53
48 48 47 47 47 47 47 48 48 48 48 48 49 49 52 51 50 56 50 54 63 59 48 37 37 37 54 46 45 45 48 39 49 39 42 46 40 38 48 53 54 53 51 46 49 53 54 52 52 53 53 52 50 50
48 47 47 47 47 47 47 48 48 48 48 48 49 46 39 44 48 50 55 50 46 48 50 39 50 40 53 41 38 39 40 38 35 38 41 34 35 48 53 53 55 53 54 53 49 47 49 48 50 50 50 51 50 48
48 47 47 47 47 47 48 47 48 48 48 45 40 37 44 48 47 44 38 38 40 36 40 43 43 41 49 40 37 39 36 35 34 36 36 36 38 48 52 50 52 53 54 54 54 53 52 50 49 48 48 47 45 45
47 47 47 47 47 47 48 47 48 47 45 44 44 46 44 41 37 38 34 34 35 36 36 35 38 44 39 43 36 33 33 34 33 44 34 33 46 50 50 50 51 53 53 52 52 51 51 50 50 47 45 44 44 41
47 47 47 47 47 47 48 47 46 47 47 45 38 34 35 33 31 32 30 33 33 34 34 34 33 35 36 38 33 34 32 33 41 32 34 43 50 50 51 51 51 52 50 46 50 51 50 49 47 42 40 41 36 40
47 47 47 47 47 47 46 46 46 46 45 36 33 32 33 32 33 34 35 35 36 36 35 34 33 34 34 34 34 32 33 37 30 29 32 46 47 50 51 50 50 48 39 42 45 46 44 40 39 37 35 35 34 35
47 47 47 48 47 46 45 45 46 47 42 35 36 31 32 34 34 34 35 36 36 39 37 38 37 40 34 32 34 32 29 29 33 35 41 47 48 48 46 45 46 43 36 39 46 43 36 36 36 38 39 38 39 34
46 46 50 47 47 46 45 45 45 45 41 38 34 32 34 34 33 33 33 33 38 38 39 40 35 33 32 33 30 30 30 31 36 40 45 46 44 44 44 45 45 45 44 44 44 44 42 37 34 39 40 36 34 34
45 49 46 46 44 43 45 43 42 37 36 35 32 36 35 35 34 33 36 36 40 37 33 35 31 30 32 31 30 37 32 37 40 42 46 45 44 45 46 45 38 41 43 43 43 43 43 41 38 36 34 41 42 39
48 50 46 46 49 46 41 46 40 40 33 38 35 33 35 36 35 35 37 37 37 36 37 35 37 30 30 29 33 39 41 43 45 44 45 45 46 46 46 45 46 45 44 43 41 41 40 37 37 41 43 45 42 41
50 50 46 46 48 42 37 38 43 36 36 37 35 37 36 34 35 36 36 36 38 39 37 36 32 33 34 37 37 38 40 42 43 45 46 46 45 43 43 43 43 43 43 42 42 43 44 44 44 45 44 43 41 40
44 44 43 44 47 44 36 37 43 40 37 37 36 36 36 34 34 33 35 36 37 37 34 33 36 39 41 44 45 44 46 46 44 41 42 45 47 45 43 43 43 44 44 44 44 39 43 43 44 45 44 43 38 36
41 41 41 43 45 45 41 40 37 39 39 37 36 39 32 34 32 32 33 37 34 36 37 41 40 43 45 45 46 46 44 44 43 42 41 41 45 45 44 45 45 44 43 42 39 40 39 40 42 43 36 34 34 35
38 40 35 37 36 36 37 40 39 40 39 36 36 40 32 30 30 31 35 32 34 40 43 43 45 46 45 43 44 45 45 44 44 43 37 39 40 42 43 45 44 41 41 39 40 38 39 41 41 39 36 33 34 35
39 37 34 34 31 32 29 40 33 36 31 31 35 31 31 31 33 36 30 37 39 45 46 46 45 44 43 45 44 44 45 43 43 44 44 44 44 44 43 43 42 38 37 40 43 41 39 38 37 34 34 34 34 33
38 32 30 30 32 27 32 29 35 34 33 32 31 28 29 32 32 30 29 35 41 45 42 42 43 43 44 41 43 45 46 47 44 45 45 43 41 43 44 43 43 41 41 41 39 37 36 34 33 34 33 32 32 32
31 28 30 26 31 28 27 27 28 30 27 28 27 28 28 31 28 28 28 37 38 37 38 42 43 43 42 42 44 45 45 44 43 42 44 44 41 40 40 41 42 42 40 35 33 32 32 33 33 32 32 32 31 31
26 27 29 28 28 29 29 25 26 27 28 26 27 30 29 29 26 27 35 35 34 34 31 32 35 39 41 43 40 40 41 41 39 37 40 42 40 36 34 32 34 36 39 36 33 32 32 33 32 32 31 31 31 31
26 26 31 35 34 32 28 28 31 29 25 25 28 26 27 24 26 34 36 33 35 32 35 35 34 35 34 35 36 35 33 33 31 31 33 34 34 34 32 31 30 32 32 32 32 32 31 31 30 31 31 31 31 31
30 31 25 28 30 34 27 28 27 27 29 34 32 25 25 28 30 30 30 30 30 32 34 33 33 31 31 30 30 30 29 29 30 33 35 36 33 28 28 28 30 28 29 30 30 30 30 30 30 30 30 30 30 30
29 32 31 24 27 28 29 29 30 35 39 34 30 30 32 28 25 26 26 27 29 28 27 26 27 28 29 29 30 28 26 25 22 21 21 23 25 25 26 25 26 26 26 26 28 28 29 29 28 28 28 28 28 28
27 32 29 26 25 27 31 35 32 32 37 37 37 34 29 23 22 25 24 24 23 21 23 23 24 23 22 22 22 24 25 23 21 19 17 18 19 23 23 23 22 23 23 24 25 26 28 28 28 28 26 25 24 24
31 30 28 29 28 31 30 29 30 30 30 32 33 31 26 20 20 21 21 22 22 21 21 20 21 21 20 19 19 18 18 22 20 19 18 18 19 19 19 19 20 20 21 21 22 23 23 23 24 23 21 19 18 18
29 28 28 25 28 29 29 28 29 29 31 29 30 27 24 23 18 18 18 20 20 18 17 18 17 17 19 21 20 20 18 19 19 18 17 15 15 16 16 16 18 18 18 18 20 20 19 19 19 19 19 16 14 14
26 26 26 26 26 26 28 27 29 27 27 27 25 24 20 20 14 17 21 20 18 16 15 16 18 18 19 20 19 19 18 19 18 17 16 14 13 12 12 14 12 12 14 16 17 17 16 15 15 14 12 11 10 8

GFSWCAN_sfc_temp_015.txt.gz
Temp
52 51 51 51 51 51 52 52 52 52 53 53 52 52 52 52 52 57 57 59 57 48 53 58 58 56 56 51 41 49 45 44 36 35 31 32 29 34 36 42 35 31 27 29 33 28 23 52 51 39 43 46 47 45
51 51 50 50 51 51 51 51 52 52 52 54 52 52 52 52 52 53 56 61 61 55 53 58 58 59 59 58 53 52 49 49 46 37 35 35 33 35 33 30 47 35 38 33 36 33 46 52 49 50 49 46 44 45
50 50 50 50 50 51 51 51 51 51 52 52 53 51 51 52 52 53 57 57 58 48 51 53 53 60 64 61 62 50 48 56 52 50 41 40 31 38 29 33 37 47 51 36 39 47 50 52 50 51 49 46 47 49
48 49 49 49 50 50 50 50 50 50 51 51 52 50 49 51 52 53 56 57 54 47 36 47 62 57 63 63 63 61 58 56 53 45 38 37 32 45 34 39 36 44 49 46 40 48 49 49 48 48 48 50 51 51
47 47 48 49 49 50 49 48 49 49 48 48 49 49 50 49 51 54 57 57 57 52 39 41 56 60 63 61 60 60 56 52 45 39 35 34 35 39 34 35 33 48 45 37 35 47 46 44 47 50 50 49 51 52
47 47 47 47 48 49 49 49 48 47 48 49 50 50 50 50 50 55 51 55 55 56 44 36 51 53 57 58 57 56 55 52 49 40 35 42 51 41 34 32 46 53 55 54 46 50 48 47 49 52 48 50 53 51
47 47 47 47 47 48 48 48 48 47 47 49 50 50 50 50 53 50 49 51 50 53 41 37 41 48 52 54 49 50 52 48 48 42 39 37 40 45 34 34 46 52 55 51 50 48 43 47 45 51 51 51 51 51
47 47 47 47 47 48 48 48 48 48 48 48 49 49 51 49 49 51 52 52 50 51 45 37 39 38 51 39 39 45 39 43 46 43 40 37 39 36 34 43 49 54 54 49 47 48 47 47 50 50 52 49 46 43
47 46 47 47 47 47 47 48 48 49 49 49 49 50 53 50 46 50 50 49 55 50 39 34 34 34 46 40 39 38 42 35 42 35 37 40 35 35 41 45 48 50 47 45 47 48 48 47 48 48 46 44 42 40
47 46 46 46 47 47 47 48 48 48 48 49 50 47 39 43 48 49 51 43 41 40 43 36 41 36 43 36 35 36 34 34 33 35 39 33 35 41 46 49 49 48 49 50 44 43 45 44 43 43 42 42 41 39
47 47 47 47 47 46 47 48 48 48 49 46 40 37 43 48 47 42 37 38 39 35 39 39 38 37 42 35 34 35 33 34 32 32 34 32 32 39 46 46 49 50 50 50 50 48 48 45 42 41 39 37 36 35
47 47 47 47 47 47 47 48 48 47 44 44 43 45 43 40 36 36 34 34 35 35 35 35 36 39 37 42 34 34 34 33 29 36 32 30 34 43 45 45 48 49 50 49 49 47 46 44 41 38 37 36 35 34
47 47 47 47 47 47 47 47 47 46 46 43 39 35 37 32 32 32 31 32 32 33 34 34 33 34 36 37 33 33 32 31 34 32 29 30 43 44 45 43 43 44 41 42 44 43 42 41 40 36 33 34 29 32
46 47 46 46 46 46 46 47 48 48 43 35 33 31 32 31 31 31 31 32 33 33 33 33 32 33 32 33 32 31 31 32 29 26 23 34 41 42 43 43 42 39 36 37 38 39 37 34 32 30 28 28 24 29
46 47 47 46 46 46 47 47 47 45 40 34 34 30 30 32 32 32 32 32 33 35 34 33 33 34 32 31 31 30 28 27 28 28 31 34 37 39 38 39 36 35 32 34 37 35 30 29 30 32 32 31 32 27
47 46 46 46 46 46 47 46 43 42 34 35 34 31 32 32 32 32 32 32 35 33 34 34 32 32 30 30 28 29 28 27 30 32 33 35 36 36 37 37 37 37 36 36 36 36 34 29 27 34 33 30 29 30
46 44 46 46 46 46 47 43 38 35 34 33 32 34 33 33 32 32 33 33 37 34 32 32 30 27 30 28 28 31 29 31 32 32 32 36 36 36 37 37 34 35 36 35 35 35 35 34 29 29 30 34 33 32
44 45 46 46 46 46 43 43 35 34 30 34 32 32 33 33 33 33 34 34 34 32 32 30 32 28 27 26 27 31 31 32 32 32 33 36 37 37 39 36 38 35 35 35 32 34 34 29 32 32 33 34 32 32
43 45 45 46 44 40 36 35 37 32 31 32 32 32 32 32 33 33 33 34 34 34 33 30 28 27 27 29 30 30 31 31 31 34 35 37 37 37 37 36 36 35 35 34 34 32 32 34 33 33 33 32 31 32
43 43 43 44 44 34 33 31 37 31 32 31 33 32 30 30 32 32 33 33 33 32 29 26 28 30 30 31 32 32 32 32 31 30 31 33 34 36 35 33 31 34 32 34 33 29 30 32 31 31 30 27 25 27
42 41 42 42 37 39 33 33 33 33 30 31 32 32 29 31 31 32 32 33 32 27 26 28 28 31 35 33 32 32 34 35 32 30 29 29 31 31 31 32 33 30 29 28 27 30 26 29 32 31 27 29 31 30
38 41 34 36 33 33 31 32 31 30 31 28 31 30 28 28 28 29 31 29 29 28 32 30 32 31 32 34 35 36 36 36 36 31 30 29 28 28 29 29 28 27 28 28 30 31 30 31 27 26 30 33 34 32
39 36 33 32 31 31 29 32 32 32 26 29 31 28 27 28 29 30 29 30 28 33 33 35 36 36 35 36 36 36 36 35 30 29 30 29 29 28 29 30 28 25 28 30 29 28 30 27 26 22 24 32 32 32
37 32 31 30 31 27 30 29 29 27 31 28 27 26 27 29 25 25 20 23 28 31 31 32 32 30 31 34 30 30 30 31 30 30 31 30 28 29 30 30 30 29 29 30 30 30 32 32 27 30 32 31 31 27
29 28 29 26 28 24 25 25 28 22 18 22 19 20 18 21 19 16 18 24 28 27 30 30 31 31 30 28 28 28 29 28 25 24 27 26 25 24 25 26 26 25 27 25 25 25 26 27 28 28 29 30 28 24
23 27 26 27 26 26 25 20 24 22 20 21 23 23 22 17 14 14 25 27 26 26 27 26 24 26 27 27 25 25 26 26 25 21 23 25 25 23 21 20 20 20 22 23 23 21 21 22 23 24 26 28 27 27
24 25 28 31 30 29 27 27 28 26 22 21 22 19 16 11 11 22 26 26 26 27 29 28 28 27 26 26 26 27 25 23 21 23 24 26 23 22 19 17 16 18 21 21 19 19 19 20 21 21 23 25 26 26
27 28 24 27 27 27 23 22 20 19 21 25 23 15 14 14 18 23 24 25 26 27 27 26 26 23 24 23 25 19 15 16 16 18 20 24 21 16 16 16 17 19 16 18 17 18 18 19 19 21 22 23 24 21
27 29 27 20 22 23 22 21 21 26 28 25 19 18 20 21 20 22 23 23 25 23 21 19 19 19 18 17 21 18 10 8 8 4 1 1 7 8 14 14 13 12 13 15 16 18 19 19 21 20 21 20 20 16
25 28 24 21 18 22 27 28 28 30 27 28 26 23 21 19 19 19 19 18 16 16 17 18 16 8 7 5 6 9 15 9 4 3 0 1 8 10 11 11 10 10 11 12 10 12 16 18 19 21 17 16 16 12
28 29 28 28 26 27 28 28 29 29 30 30 28 24 16 14 14 15 15 18 16 11 10 7 7 7 3 5 8 3 3 3 8 10 6 4 4 1 4 8 8 9 10 7 7 9 10 14 16 14 12 10 10 8
28 25 26 23 24 26 30 27 28 27 21 27 24 23 19 13 7 9 8 12 8 5 5 3 3 5 4 9 7 7 14 10 6 3 5 7 3 3 3 5 7 8 3 2 5 6 11 11 10 9 8 5 4 3
24 20 21 16 15 16 21 16 16 15 15 14 18 16 11 8 3 8 13 13 7 3 2 1 2 3 9 4 1 7 3 1 4 14 10 10 6 3 1 5 7 6 0 2 4 9 7 7 5 3 2 1 -0 -1

GFSWCAN_sfc_temp_018.txt.gz
Temp
51 51 51 50 50 50 51 52 51 51 51 51 51 51 51 52 52 57 54 56 55 46 50 54 55 53 51 48 41 47 45 42 35 32 29 32 26 34 34 39 34 31 27 25 26 17 24 47 48 39 42 43 45 43
51 50 50 50 50 51 51 51 51 51 52 51 50 50 50 51 52 55 54 57 57 52 52 55 56 56 55 56 50 47 48 45 43 35 34 36 28 33 31 30 43 36 37 32 35 34 45 48 48 48 47 44 43 43
50 50 50 50 50 50 51 51 51 51 51 51 49 48 49 50 52 55 54 54 53 44 49 51 52 58 62 58 59 48 44 53 48 46 38 33 30 34 30 32 35 44 47 35 38 46 46 49 47 48 46 44 45 46
50 50 50 50 50 50 50 50 50 50 50 49 48 48 49 49 50 54 53 53 50 44 35 45 58 55 62 61 61 58 55 51 47 43 36 34 30 41 31 37 34 41 46 43 37 45 44 46 45 45 45 46 48 51
49 49 49 49 49 49 49 49 49 47 48 49 49 50 50 50 50 54 53 52 53 50 39 39 53 57 59 59 57 56 53 50 43 37 34 34 32 36 34 32 32 45 44 37 37 46 46 44 45 47 46 47 51 50
47 47 48 48 48 49 48 48 47 47 48 49 50 50 50 50 51 54 48 53 51 52 42 36 46 49 53 56 55 54 52 49 45 39 35 38 46 38 34 34 42 48 52 51 46 49 48 46 46 49 47 50 51 49
47 47 47 48 48 48 48 48 47 47 48 48 50 50 49 49 51 50 48 50 50 51 40 36 36 46 49 50 46 47 47 46 45 38 36 35 37 42 34 33 44 49 52 50 48 47 43 44 43 49 52 50 46 45
46 47 47 47 47 48 48 48 48 48 48 49 50 50 50 49 51 50 50 50 50 47 42 35 33 37 48 37 37 43 38 42 42 41 39 36 37 35 35 41 46 51 52 47 46 45 45 46 49 50 49 46 43 40
46 46 46 46 47 47 47 48 49 49 48 49 49 51 50 48 44 49 48 48 52 48 38 33 34 34 43 39 37 36 40 34 39 36 36 39 35 35 41 44 46 47 46 44 44 46 48 48 48 45 44 42 40 38
46 46 46 46 46 47 47 48 48 49 49 49 49 44 42 43 48 48 47 42 40 41 40 34 38 35 41 34 34 34 34 34 34 35 39 33 35 41 42 45 47 47 46 46 43 42 44 41 42 41 41 41 40 38
47 46 46 46 47 47 47 47 48 48 50 46 41 37 43 48 45 41 37 37 38 35 38 38 37 36 39 35 34 34 33 33 32 31 33 28 32 36 43 44 45 46 48 47 48 46 44 42 41 39 38 36 36 35
47 47 47 47 47 47 47 48 48 46 44 44 44 45 44 41 37 37 34 34 34 34 35 35 35 39 36 39 35 34 32 33 29 35 32 29 35 41 40 42 44 46 45 43 43 42 42 42 41 37 36 35 35 33
46 46 47 46 46 47 47 47 47 46 46 44 40 35 38 33 33 33 33 32 32 33 34 34 34 34 36 37 33 33 32 31 34 32 30 32 41 42 41 41 40 41 40 40 42 41 41 40 39 36 33 34 28 31
46 46 46 46 46 47 47 47 48 47 43 35 34 31 32 30 30 30 31 32 32 32 33 33 32 33 32 33 32 31 31 32 29 26 23 33 37 39 41 40 41 39 34 37 37 37 37 34 33 30 28 27 23 27
46 47 46 46 46 46 47 47 46 43 36 34 32 29 28 31 32 32 32 32 33 34 33 33 33 34 32 31 31 30 28 26 28 27 31 33 35 37 36 37 35 34 32 34 35 34 30 29 28 31 30 30 31 26
46 46 44 46 46 47 47 44 41 39 33 34 33 31 32 32 32 32 32 32 35 33 34 33 32 31 29 29 28 28 27 25 29 32 32 34 35 35 35 36 35 36 36 36 35 35 34 28 25 32 32 29 26 25
48 41 46 46 46 47 46 39 35 34 33 33 31 33 33 32 32 32 33 33 36 33 31 31 23 25 29 27 27 30 28 31 33 33 33 34 35 35 36 36 33 35 35 35 35 34 34 33 27 27 29 34 32 32
41 42 46 46 46 44 41 40 34 32 30 31 31 31 32 32 33 33 33 33 32 31 31 29 31 27 26 25 26 30 31 32 32 33 33 35 36 36 37 35 37 35 34 34 30 33 33 27 30 31 33 33 31 30
43 43 44 45 43 35 35 33 35 30 31 31 31 32 32 32 32 32 33 33 31 30 29 26 25 25 25 28 28 30 28 29 30 33 34 36 36 36 36 36 35 34 34 34 34 31 31 33 32 31 31 29 28 26
44 43 43 44 43 30 33 28 33 29 27 28 32 30 30 30 31 32 32 33 33 32 28 21 23 25 27 27 28 28 28 28 29 28 29 32 33 34 34 33 30 32 31 33 32 27 30 30 31 31 29 27 30 33
42 41 41 41 37 35 28 30 33 32 32 31 31 31 28 30 30 31 31 32 26 22 24 26 24 28 31 30 28 28 31 32 30 27 26 27 29 28 29 30 31 28 27 27 24 28 24 26 30 30 28 30 28 30
38 41 35 36 33 32 27 32 30 27 31 29 30 30 28 27 29 29 30 26 29 26 29 27 30 28 31 33 33 33 33 33 33 29 28 27 28 28 28 28 28 24 24 23 27 28 28 29 30 30 29 26 24 32
38 37 33 32 24 27 24 33 28 28 25 27 29 27 26 27 28 30 28 32 26 30 30 31 34 34 32 31 31 30 30 30 28 27 28 26 26 25 25 25 23 21 24 27 28 25 25 25 27 28 30 30 31 31
38 32 28 21 28 23 26 24 28 28 28 27 26 24 26 27 27 23 15 23 30 28 28 28 28 29 29 28 26 26 26 27 26 25 25 24 23 23 24 24 23 22 22 23 23 21 22 21 21 23 24 25 27 27
28 21 22 15 26 24 17 18 22 24 24 25 24 22 17 19 13 10 13 23 27 26 26 25 27 28 28 26 26 26 26 25 23 21 23 23 17 18 20 21 21 19 19 17 17 17 16 17 18 18 20 21 21 24
18 19 17 16 16 24 22 16 18 19 19 19 19 22 16 14 17 11 22 25 25 25 24 25 25 24 25 25 23 24 22 23 21 19 22 21 19 14 12 11 12 13 16 14 15 13 13 14 14 16 16 17 20 22
15 15 25 28 28 28 25 24 26 24 22 20 19 17 14 11 8 22 24 24 25 26 26 26 26 25 24 23 23 20 19 19 16 18 21 19 17 16 12 10 10 12 14 12 12 12 11 12 13 13 14 17 19 21
24 21 18 24 27 28 24 23 23 23 23 26 23 18 17 14 17 20 23 25 25 25 25 24 23 21 21 19 17 13 13 12 12 14 18 14 12 9 7 4 6 13 7 7 10 11 10 10 11 13 16 16 17 15
26 28 26 23 23 21 22 22 21 26 28 22 15 13 18 19 17 20 20 21 22 22 18 16 15 16 15 15 10 8 5 6 4 -2 -6 -7 -4 0 3 0 -1 4 5 7 9 10 10 11 12 15 17 15 12 11
25 26 21 18 19 21 25 26 26 27 26 25 22 20 18 16 17 17 16 16 16 13 15 13 8 6 -3 -2 -3 3 6 -3 -2 -2 -6 -6 0 4 -1 1 5 4 4 6 4 5 7 6 9 13 12 12 9 7
26 26 27 25 24 25 26 27 28 30 29 29 24 18 14 11 11 12 13 11 9 8 7 1 1 -5 1 2 0 -4 -2 4 3 2 -1 -0 -2 -7 -4 -1 -1 -1 3 3 0 1 3 3 7 6 4 4 4 3
26 24 23 21 20 25 29 27 23 24 14 26 19 18 13 6 -0 6 7 6 2 -1 -5 -7 -4 1 1 1 0 -3 0 -2 -2 -0 3 1 -4 -6 -4 -2 -3 -1 0 -6 -5 -1 3 1 -0 -1 -1 -2 -1 -1
10 5 6 3 8 9 13 9 6 7 10 12 13 7 4 5 2 6 7 0 0 -3 -4 -5 -6 -6 -2 -3 -4 -6 -4 -7 -6 3 3 6 0 -2 -5 -7 -8 -11 -12 -11 -9 -4 -6 -8 -8 -2 -4 -4 -4 -4

GFSWCAN_sfc_temp_021.txt.gz
Temp
51 51 50 48 48 50 51 51 51 51 52 50 50 50 50 51 53 56 53 54 54 44 48 52 53 50 48 46 40 46 44 41 34 32 28 28 24 32 32 37 33 31 28 24 25 18 26 46 45 39 43 41 45 43
51 50 49 49 50 50 50 51 51 51 50 50 47 48 49 50 52 55 54 55 54 50 50 53 54 54 53 54 48 45 47 44 42 34 29 31 25 33 30 29 40 33 36 32 34 34 44 45 44 46 46 44 43 43
50 50 50 50 50 50 50 50 50 50 48 47 48 48 49 50 52 55 52 52 51 44 48 50 50 56 59 56 56 47 42 49 45 43 37 35 28 31 29 31 33 41 44 34 37 44 44 46 47 46 45 45 43 44
50 50 50 50 50 50 50 50 49 48 48 48 48 49 49 50 53 54 52 50 48 42 36 44 55 54 59 58 57 56 52 48 45 41 34 33 29 39 30 36 34 40 43 40 35 42 43 47 46 46 45 44 46 47
49 49 49 49 49 49 49 47 47 48 48 49 49 49 49 50 52 54 51 50 51 50 38 38 51 54 55 56 54 54 52 48 41 36 33 34 32 35 34 32 32 43 42 35 37 45 44 45 46 45 44 44 47 48
49 49 48 49 49 48 47 46 47 48 49 50 49 49 49 51 53 52 47 51 50 49 42 36 45 48 51 52 51 51 50 46 43 39 35 36 42 37 34 34 42 46 48 48 45 47 46 44 44 46 46 47 48 47
48 48 48 48 48 48 46 46 47 48 48 49 49 49 49 51 51 48 46 48 48 49 39 36 34 44 46 47 44 45 45 44 44 39 35 36 37 41 34 33 44 47 49 49 48 45 40 43 42 47 48 48 46 45
47 47 47 48 48 48 47 47 47 47 48 49 50 49 49 50 50 49 49 48 48 45 40 34 32 36 46 38 37 42 38 41 41 39 38 37 37 35 33 41 45 48 48 46 45 45 45 45 46 46 47 45 41 40
46 46 47 47 47 48 48 48 47 47 48 50 50 50 49 47 45 48 48 47 49 47 36 33 33 33 42 38 37 37 39 34 39 35 35 37 34 33 40 42 44 45 44 44 43 43 44 44 43 44 43 41 38 38
46 46 46 46 47 47 47 48 48 47 49 49 48 43 35 44 49 48 46 40 39 41 38 33 37 34 41 34 34 34 34 36 34 34 39 33 35 39 41 42 43 45 46 44 40 39 39 40 40 39 38 39 40 38
47 47 47 47 47 47 47 48 48 50 49 44 42 37 44 48 44 39 36 34 38 36 38 37 36 36 39 35 34 32 33 33 32 31 34 31 32 35 40 39 41 42 43 42 44 42 41 38 35 35 36 36 36 36
47 47 47 47 47 47 48 48 48 46 43 43 42 45 41 38 35 35 34 34 34 34 34 34 35 39 36 38 35 34 32 32 29 34 32 29 32 37 38 37 39 39 38 37 38 36 37 38 39 36 36 35 35 32
46 46 47 47 47 47 47 47 47 46 47 45 40 36 39 34 34 33 32 32 32 32 34 33 34 33 36 36 33 33 32 30 33 31 30 31 36 38 38 39 38 39 38 38 38 39 39 38 37 35 33 35 30 32
46 46 46 46 47 47 47 47 47 46 43 36 34 32 33 30 30 31 32 32 32 32 33 33 32 33 32 33 32 31 31 31 29 25 22 32 34 35 37 36 37 34 32 36 36 35 35 32 32 30 29 28 27 30
46 46 46 46 47 47 47 46 46 44 38 33 32 28 28 30 32 32 32 33 33 34 33 33 33 34 32 31 31 29 28 26 26 24 30 32 33 34 35 35 35 34 32 34 34 33 29 28 28 31 30 29 30 23
47 46 43 46 46 47 46 43 40 38 32 34 33 30 32 31 31 32 32 32 34 33 33 33 32 29 28 29 25 25 25 23 27 31 32 33 33 34 34 35 35 36 35 34 34 34 33 28 26 32 30 28 24 23
45 41 45 46 46 46 45 38 34 33 30 34 31 33 32 32 32 32 33 33 36 33 31 31 21 23 29 24 25 30 26 30 32 34 32 35 35 34 34 35 32 34 35 34 34 34 33 32 26 26 28 33 32 31
41 43 45 46 44 42 39 36 30 31 29 31 30 31 32 32 32 32 33 32 30 31 30 28 30 25 23 23 25 29 32 33 33 33 33 35 35 35 36 35 35 34 34 34 32 33 32 26 30 30 32 32 30 29
41 41 44 45 43 34 32 32 33 30 30 31 31 31 31 31 32 32 32 30 29 29 29 25 21 22 25 27 27 28 28 27 29 31 33 34 34 34 35 35 34 34 33 33 32 30 30 31 30 29 30 29 27 27
44 43 43 44 43 30 30 29 32 29 27 30 31 30 30 30 31 32 32 32 28 26 24 21 23 25 26 27 27 27 27 27 28 25 26 29 30 32 30 29 28 29 29 29 29 25 28 28 30 30 29 28 29 30
39 39 40 40 34 32 29 29 32 31 32 30 30 30 28 30 30 30 31 30 22 20 23 25 22 25 29 28 27 27 30 31 29 26 26 25 27 28 28 28 27 27 25 24 27 28 28 26 27 28 27 28 30 30
37 41 32 36 32 29 27 31 31 31 31 30 30 30 27 26 27 29 30 25 26 25 27 25 29 28 31 30 28 28 30 30 29 28 27 26 25 25 25 25 23 21 24 25 25 24 23 24 24 22 23 23 25 27
38 36 34 33 23 27 22 33 29 31 27 27 29 26 25 26 28 30 26 31 29 29 28 29 31 32 30 29 28 27 28 28 25 25 25 24 24 21 21 23 22 19 18 20 22 20 18 16 17 16 18 19 19 20
38 31 28 26 27 15 19 22 27 25 23 23 25 23 25 26 27 24 14 24 29 28 27 27 28 28 28 28 25 24 24 25 24 22 22 21 21 22 22 21 18 16 16 16 16 12 13 12 11 14 14 14 15 15
29 26 27 16 26 16 11 11 19 21 16 23 23 22 22 23 12 18 12 24 26 25 25 27 29 28 26 25 25 24 24 23 22 21 21 20 15 14 16 17 16 14 13 8 8 10 9 9 10 10 11 11 11 12
20 18 22 14 15 19 14 11 16 16 14 18 21 23 20 20 18 12 22 24 24 24 24 24 25 24 24 25 23 20 20 20 21 18 18 17 14 7 3 5 6 7 11 5 6 5 6 7 7 7 8 9 11 12
18 11 22 28 25 25 21 21 24 24 19 21 20 19 22 19 17 20 23 23 24 24 25 26 26 25 23 20 19 17 15 14 13 17 16 15 13 12 7 -0 2 7 10 5 1 2 4 3 3 5 6 8 12 11
23 20 19 22 24 27 22 23 23 23 24 26 24 20 19 16 16 19 21 23 23 23 22 21 21 20 18 16 14 11 12 11 16 14 13 10 7 2 1 -1 0 8 1 -2 -5 1 1 3 3 5 7 9 7 8
25 26 26 23 23 20 23 23 23 26 28 25 17 18 15 17 14 17 18 19 20 18 15 14 13 13 12 11 8 6 3 2 1 -4 -8 -10 -8 -2 0 -5 -6 -5 -5 -4 2 7 7 7 8 9 10 10 5 3
22 27 19 17 18 19 23 24 24 26 27 21 20 18 16 13 14 16 15 14 12 10 8 6 2 4 -7 -5 -5 -0 1 -3 -4 -4 -9 -9 -3 -1 -8 -7 -6 -5 -6 -9 -3 -2 -0 -3 -2 -4 -2 -3 -0 -0
24 25 24 22 22 23 25 27 27 27 27 24 20 16 12 9 9 11 11 7 8 4 2 -3 -2 -10 -4 -6 -8 -9 -6 -6 -8 -4 -3 -6 -8 -11 -9 -7 -8 -10 -11 -10 -12 -13 -11 -10 -13 -14 -11 -10 -9 -7
25 22 22 21 19 22 14 18 20 9 20 23 15 12 4 -1 -4 3 6 -0 -2 -4 -9 -13 -8 -4 -4 -3 -7 -9 -4 -7 -9 -9 -7 -5 -7 -11 -11 -9 -13 -15 -16 -16 -16 -14 -15 -16 -17 -16 -17 -16 -15 -13
3 2 3 0 6 10 11 3 2 5 10 15 6 4 -1 2 -0 3 5 -3 -3 -6 -7 -8 -11 -11 -7 -7 -8 -9 -8 -11 -11 -2 -2 1 -5 -6 -12 -15 -18 -19 -18 -19 -19 -19 -16 -16 -18 -18 -18 -18 -17 -15

GFSWCAN_sfc_temp_024.txt.gz
Temp
51 50 49 49 49 50 51 51 51 51 50 49 49 49 51 53 54 57 52 52 52 43 47 51 51 48 46 45 40 45 43 41 33 32 28 27 24 31 32 36 32 31 28 23 24 17 26 44 45 38 42 40 43 42
49 49 48 48 49 50 50 50 50 50 47 48 48 49 50 52 53 56 54 53 52 50 49 52 52 52 51 53 46 43 46 43 42 33 27 26 26 30 30 29 37 32 35 31 33 33 43 44 43 45 44 44 43 43
48 48 48 49 50 50 50 50 48 48 48 48 48 49 50 51 54 55 53 49 50 44 47 49 48 55 57 54 55 46 40 47 43 41 33 30 29 30 28 30 31 38 41 33 37 43 42 43 46 46 45 45 44 44
49 50 50 49 49 49 49 48 47 48 48 49 49 49 51 52 52 53 50 48 47 42 36 44 53 51 56 55 55 54 49 45 42 39 33 30 29 36 28 34 32 39 41 38 35 41 41 45 45 46 45 44 44 45
49 49 49 49 49 48 47 47 47 48 49 49 49 50 51 51 53 53 50 48 49 50 37 38 48 51 52 53 52 51 50 46 41 35 33 33 31 34 33 34 32 41 41 34 34 45 44 45 46 44 45 44 45 45
49 49 48 48 47 47 47 47 48 48 48 48 48 49 51 51 52 52 48 50 50 48 42 36 44 45 48 50 49 48 48 44 42 39 34 36 40 36 33 34 41 45 45 46 45 44 44 44 44 44 44 44 45 43
48 48 48 47 47 47 47 47 47 48 48 49 49 50 51 52 51 47 45 47 48 47 39 36 35 43 44 45 42 43 44 43 42 39 34 35 36 38 34 29 45 47 47 47 46 44 42 41 43 44 46 44 44 44
48 48 48 47 47 46 46 47 47 48 49 49 49 49 50 50 50 48 48 48 48 44 39 34 32 36 44 37 37 42 38 41 41 39 37 36 37 35 34 39 43 45 46 45 45 43 42 43 43 42 43 44 41 39
46 47 47 47 47 47 47 46 47 48 50 49 49 50 50 47 45 47 48 48 47 46 35 32 32 31 41 38 36 37 39 36 39 35 35 37 34 34 36 37 39 41 41 42 41 42 42 41 40 40 40 38 35 33
46 46 46 47 47 47 47 46 47 49 49 49 48 44 36 44 49 48 46 41 39 38 40 33 37 34 42 34 34 34 34 35 35 33 39 34 34 38 36 37 38 38 41 42 38 36 37 35 36 35 35 35 34 35
46 46 46 47 47 47 47 47 48 50 50 44 40 38 43 47 44 37 35 34 39 36 37 36 36 35 39 35 34 33 33 33 32 33 34 31 32 33 36 35 36 37 38 37 37 37 37 36 34 33 33 35 35 34
46 46 46 46 47 47 48 48 49 45 42 44 43 43 41 38 36 34 32 34 35 32 34 35 35 39 35 36 34 34 32 32 30 33 32 29 32 37 37 37 38 38 37 36 37 35 35 36 36 35 35 34 35 32
46 46 46 46 46 47 47 47 47 47 46 43 39 35 37 33 33 34 31 32 32 33 34 34 34 33 35 36 33 33 32 30 33 31 29 31 35 35 35 37 36 37 37 37 36 37 37 36 35 34 32 33 29 32
46 46 46 46 46 46 46 47 47 46 44 37 34 33 33 31 31 31 32 32 32 32 33 33 33 33 32 33 32 32 31 31 29 25 24 31 33 33 34 34 34 34 33 34 34 35 34 32 31 29 28 27 26 28
46 46 46 46 46 46 46 46 46 44 39 33 34 28 28 30 32 32 32 33 32 34 33 33 33 34 32 31 30 30 27 24 22 20 30 31 32 33 33 34 34 34 30 30 33 31 26 25 26 29 29 28 29 22
46 45 43 45 46 46 45 44 41 40 35 34 32 30 31 31 31 32 32 32 34 33 33 34 31 26 26 29 26 26 24 20 26 31 32 32 32 33 34 34 34 35 34 34 34 34 32 26 24 31 29 26 22 21
45 41 44 45 45 45 45 38 36 33 30 32 31 33 32 32 32 32 33 33 35 33 31 31 25 24 29 24 26 28 22 28 32 32 33 34 33 33 34 34 32 33 34 34 34 33 33 31 26 27 28 32 30 30
39 40 44 45 43 41 37 35 31 32 30 31 30 31 32 32 32 32 32 32 32 32 30 26 30 21 18 18 21 26 31 29 30 31 32 35 35 34 35 34 34 34 33 33 30 31 29 27 28 28 29 29 28 28
40 41 43 44 42 34 32 32 32 30 30 31 31 31 31 31 31 32 32 31 27 27 27 24 20 20 21 25 24 27 32 31 29 31 31 32 33 33 32 32 32 30 30 29 28 28 27 28 27 28 27 27 26 28
43 43 43 43 42 30 30 28 31 30 29 30 31 30 30 29 30 32 32 29 27 24 23 22 22 24 25 26 27 27 27 27 27 24 25 27 28 29 28 28 27 28 27 28 29 27 27 26 27 26 25 25 24 24
38 38 39 37 31 32 29 28 32 31 32 30 30 30 28 30 30 30 30 31 26 21 23 25 21 25 28 27 27 26 29 30 27 25 25 26 27 26 26 25 25 25 23 21 19 23 23 22 23 21 17 17 18 19
36 39 32 33 28 27 27 31 31 31 30 29 29 30 26 26 26 28 30 29 25 24 27 26 31 32 29 27 27 28 28 28 28 27 26 24 22 22 22 22 21 19 19 16 19 15 14 18 17 15 13 14 15 16
37 33 30 27 22 22 22 32 25 31 28 26 28 24 25 25 27 30 26 29 29 30 30 30 30 30 28 29 29 27 27 26 23 23 23 22 23 23 21 19 16 11 11 14 16 15 12 9 11 9 11 11 11 11
36 29 28 27 28 16 19 17 25 21 17 20 18 17 21 24 26 24 22 24 28 29 29 29 29 28 28 27 24 23 24 25 22 20 21 20 19 19 19 17 14 12 12 12 10 7 7 3 3 7 6 6 7 8
20 18 25 21 26 14 8 8 16 19 11 12 18 16 20 20 15 20 17 24 25 24 25 28 28 28 25 24 23 21 22 22 20 18 18 17 14 14 14 15 14 12 10 3 2 0 1 -0 -2 0 3 2 5 6
19 17 22 16 10 18 10 9 7 11 13 15 17 19 17 17 17 17 21 22 23 23 22 21 24 23 22 23 21 19 18 19 20 16 15 15 12 7 4 0 1 3 7 -3 -6 -6 -1 -0 -1 -2 -1 2 4 5
14 12 21 28 27 24 17 15 20 17 16 19 19 17 21 19 14 18 23 22 22 22 23 23 25 24 20 18 17 16 14 14 15 14 14 14 12 10 1 -5 -3 3 7 1 -8 -11 -7 -3 -2 -2 0 2 3 3
19 19 18 18 20 23 22 19 20 21 23 26 24 19 19 17 15 18 19 22 21 21 19 18 18 17 15 14 12 10 11 13 12 11 10 7 5 -1 -2 -4 -3 5 -5 -10 -12 -8 -8 -3 -0 1 2 1 -2 -6
21 24 22 17 18 20 23 23 23 25 26 25 21 17 14 15 13 14 17 18 18 17 14 12 11 11 11 10 6 4 2 -2 -2 -6 -8 -11 -10 -4 -5 -10 -11 -10 -12 -11 -4 3 3 3 2 -3 -9 -8 -6 -8
18 21 15 12 14 16 21 20 19 22 23 21 20 17 15 12 13 15 15 14 11 7 5 3 1 4 -3 -6 -7 -3 -6 -11 -9 -6 -10 -12 -6 -3 -13 -14 -12 -10 -13 -18 -14 -12 -6 -12 -9 -13 -13 -14 -15 -17
23 24 18 13 12 16 17 23 26 24 23 17 16 14 10 7 8 10 8 4 3 0 0 -6 -7 -14 -10 -10 -12 -12 -8 -9 -12 -8 -8 -10 -8 -13 -14 -13 -15 -19 -21 -21 -22 -21 -20 -20 -22 -22 -20 -18 -18 -19
23 20 17 12 13 12 11 10 13 12 19 19 12 7 -2 -1 -4 4 3 -0 -4 -5 -10 -16 -11 -7 -8 -10 -14 -14 -7 -11 -11 -11 -12 -10 -10 -10 -14 -14 -20 -22 -21 -21 -22 -22 -22 -22 -22 -23 -23 -22 -21 -20
2 1 3 3 9 9 8 1 -1 3 13 11 1 -1 -2 0 -1 2 3 -2 -4 -7 -9 -10 -11 -14 -12 -11 -11 -13 -12 -14 -13 -4 -2 2 -2 -1 -11 -19 -22 -22 -20 -21 -23 -24 -21 -20 -21 -22 -23 -24 -24 -23

GFSWCAN_sfc_temp_027.txt.gz
Temp
50 50 49 49 48 49 49 50 50 50 50 50 50 50 51 53 53 57 52 54 54 46 49 53 53 48 48 48 44 47 47 45 39 37 36 36 35 38 38 41 37 37 33 32 27 30 32 48 50 44 50 50 50 49
49 48 48 48 49 50 50 50 49 48 48 48 49 50 52 54 54 55 53 54 53 51 50 53 54 55 55 55 49 46 50 46 46 39 35 33 33 32 34 37 41 38 41 39 40 41 49 49 50 52 50 50 52 49
48 48 49 49 49 49 49 48 48 48 48 48 49 50 53 54 54 54 54 51 51 46 49 51 51 56 56 54 56 48 44 50 47 46 38 36 35 36 34 36 39 42 44 41 41 49 46 48 51 51 52 52 52 52
48 49 49 49 48 47 47 48 48 48 48 49 49 50 51 53 53 55 53 50 49 45 37 46 54 52 55 56 57 54 50 47 45 44 36 34 36 40 35 40 39 43 43 41 40 45 47 50 49 53 52 50 51 51
49 49 48 47 47 47 47 48 48 48 48 50 51 51 52 52 54 54 51 50 49 52 39 41 50 51 53 53 52 52 51 48 44 39 35 37 36 38 35 36 36 44 44 40 41 50 50 50 53 52 50 50 50 48
48 48 47 47 47 47 47 47 48 48 48 49 50 52 53 52 51 52 51 51 50 48 44 37 45 46 48 50 49 48 49 47 46 43 36 39 42 40 34 36 45 47 48 49 49 51 50 51 50 51 50 48 48 47
48 47 47 47 47 47 47 47 48 48 49 50 51 52 52 51 52 48 47 48 48 48 41 37 37 44 45 46 44 45 47 44 46 40 36 37 40 41 34 36 42 45 47 48 50 48 47 48 46 47 45 45 44 44
47 47 46 47 47 47 47 47 48 49 49 49 50 50 50 50 49 49 48 48 48 45 42 35 34 38 45 40 38 43 40 43 42 40 38 37 39 37 35 39 41 43 43 46 45 47 45 44 45 44 45 43 38 37
47 47 46 46 46 46 47 47 48 49 49 49 49 49 50 48 46 47 48 48 48 47 36 32 34 34 44 38 37 39 41 37 40 36 37 41 35 33 33 35 36 37 38 40 42 42 42 40 40 39 39 37 33 32
47 47 47 47 47 46 46 47 48 48 49 49 50 46 39 44 48 49 47 42 40 38 40 34 38 35 42 36 35 36 36 35 37 36 39 34 33 35 36 37 37 37 38 41 40 35 35 34 34 34 34 35 35 35
47 47 47 47 47 47 47 47 47 49 50 46 41 39 45 47 45 39 35 36 37 34 37 36 37 37 40 38 35 35 34 34 34 36 35 33 31 34 37 36 37 38 38 38 37 36 36 36 34 34 34 35 36 36
46 46 46 47 47 47 47 47 48 46 43 45 44 45 43 41 37 36 33 34 34 34 34 35 36 39 36 39 36 35 33 33 32 36 33 29 31 36 36 36 37 37 37 37 37 36 37 37 38 38 37 36 35 34
46 46 46 46 46 47 47 47 47 47 46 44 40 36 38 34 30 29 31 33 33 33 34 34 34 34 36 37 34 34 33 32 34 32 30 31 34 34 35 36 36 37 36 37 38 38 38 37 37 35 34 34 32 34
45 45 45 46 45 45 46 47 47 46 43 36 35 33 30 32 32 32 33 33 32 33 33 34 33 34 33 33 32 32 31 32 30 27 25 31 32 32 34 34 36 36 32 35 36 36 34 33 33 30 28 28 27 32
46 46 46 45 46 45 45 45 46 43 39 33 34 28 29 31 32 32 32 33 33 34 33 34 34 35 32 32 32 31 28 25 26 25 30 32 32 34 34 35 35 35 30 33 36 34 29 28 30 32 32 32 32 29
46 45 43 45 45 46 45 44 42 41 35 33 32 30 31 31 31 32 32 32 35 33 34 34 32 31 29 30 27 27 26 23 27 31 32 33 33 33 34 34 35 36 36 35 35 34 33 29 29 32 31 31 28 28
45 39 43 45 45 45 45 40 37 34 33 32 31 33 32 32 32 32 32 32 35 33 32 32 28 28 31 28 27 30 28 30 32 33 34 34 34 34 35 35 33 34 35 34 34 33 32 31 29 29 27 29 29 30
37 38 44 45 43 41 37 35 33 33 30 31 30 30 32 32 32 32 32 32 33 33 32 30 33 27 24 21 25 29 31 32 34 34 35 35 35 35 35 35 34 34 32 30 29 29 29 27 27 26 27 27 27 28
40 40 43 43 41 34 32 32 33 30 30 31 31 31 31 31 32 32 32 32 31 31 31 28 25 25 26 28 28 30 33 32 33 33 32 33 33 33 32 32 31 30 28 29 29 28 28 28 27 26 25 24 23 25
42 42 42 42 42 32 31 28 33 32 29 30 31 29 30 30 30 32 32 31 30 28 26 24 25 27 28 29 30 31 33 32 32 30 28 29 30 30 29 29 28 28 27 27 26 25 25 25 25 23 21 20 18 18
38 37 39 36 31 32 29 30 32 31 32 30 30 30 28 30 30 30 30 32 26 25 25 27 26 28 29 29 30 30 30 32 30 31 29 26 28 27 26 25 26 24 22 21 21 19 18 18 19 18 16 15 16 16
35 39 32 33 28 28 28 32 31 31 30 30 29 30 27 27 27 29 30 30 28 27 29 29 31 31 30 28 28 28 29 29 30 28 27 26 24 23 21 21 20 18 18 16 18 15 15 16 15 14 12 12 13 14
36 32 27 27 24 25 24 31 23 30 28 25 29 23 25 26 27 30 26 29 29 30 30 30 29 30 28 28 29 28 28 27 24 23 23 23 23 21 18 17 16 14 13 14 15 14 12 8 11 9 10 10 11 10
35 27 25 26 23 22 19 20 27 21 19 21 19 16 20 23 26 24 23 25 28 29 29 29 29 26 26 25 23 23 25 25 22 20 21 21 20 19 19 17 14 13 12 12 10 7 7 6 3 6 5 5 6 7
20 20 18 16 20 13 12 9 17 22 12 16 17 15 19 21 18 21 20 23 24 24 25 28 28 27 23 22 22 21 21 23 20 17 17 18 16 16 15 15 13 12 11 7 5 3 3 3 3 3 4 3 4 5
17 21 22 20 20 14 14 9 7 11 10 12 16 19 19 18 15 16 19 20 22 22 22 24 23 21 20 22 20 19 18 20 20 15 14 15 13 11 9 7 6 8 9 5 2 1 2 2 2 1 2 4 3 4
14 19 24 29 27 25 14 18 22 22 11 14 19 18 19 15 12 17 22 21 21 20 21 20 23 21 18 17 16 16 16 16 16 15 15 14 12 11 7 5 3 7 8 5 1 -1 -1 -1 -1 1 2 5 5 4
24 20 15 15 14 20 14 13 15 19 21 25 23 17 17 15 14 17 18 21 20 19 18 17 16 16 14 13 13 14 13 12 11 10 10 9 8 6 4 4 3 4 -0 -2 -2 -1 -0 -1 1 3 3 2 2 2
16 18 18 11 14 16 14 15 16 22 25 24 20 16 13 14 13 14 16 17 18 17 14 13 12 12 11 9 6 5 5 7 7 1 -0 1 1 5 5 2 0 -0 -2 -3 -2 2 5 6 4 2 -1 -2 -2 -2
16 18 14 10 12 15 21 22 18 20 21 20 19 17 14 12 12 14 14 13 11 7 5 5 5 7 1 2 1 3 1 -1 1 3 1 -0 2 4 1 -1 -1 -1 -5 -5 -5 -4 -2 -3 -2 -4 -5 -5 -6 -6
22 23 18 13 14 14 12 11 25 24 19 15 14 11 9 9 9 9 8 6 5 3 4 -0 -0 -6 -0 -2 -1 -1 0 1 -6 -3 -2 -2 -2 -0 -0 -2 -3 -6 -7 -7 -7 -7 -7 -6 -7 -8 -7 -8 -9 -10
18 12 7 9 12 9 8 7 2 16 17 14 4 6 2 3 -2 6 5 3 2 1 -7 -9 -4 0 -4 -4 -7 -5 -6 -3 -2 -3 -4 -3 -2 -1 -2 -3 -7 -8 -7 -7 -7 -8 -9 -9 -8 -9 -9 -10 -11 -11
5 4 7 5 12 15 4 1 -1 3 3 3 1 -0 -1 2 -1 4 5 1 4 -0 -3 -4 -3 -5 -6 -7 -3 -3 -8 -4 -7 -4 -2 -1 -1 -0 0 -5 -8 -8 -7 -7 -8 -10 -9 -9 -8 -10 -11 -13 -13 -14

GFSWCAN_sfc_temp_030.txt.gz
Temp
49 49 48 49 49 49 50 49 49 49 50 50 50 50 50 52 54 66 60 63 69 59 60 61 62 60 60 64 56 56 57 55 53 46 46 48 44 49 49 52 47 46 42 38 39 36 37 58 57 51 58 62 61 62
48 48 48 48 48 48 49 50 49 49 50 50 50 50 51 52 54 58 62 63 67 65 59 63 61 62 63 66 63 60 61 59 62 53 48 45 39 38 46 46 51 46 53 51 51 53 58 60 62 64 62 60 60 60
48 48 48 49 49 49 48 48 48 48 49 49 49 50 51 54 53 59 62 61 66 58 60 63 60 63 65 63 66 61 58 62 59 59 54 49 38 50 38 48 49 53 54 51 49 59 59 61 63 64 63 62 64 64
49 49 48 48 48 48 48 48 48 48 48 49 49 50 52 54 53 58 64 58 62 59 42 55 63 59 62 65 65 64 62 58 58 61 49 42 44 52 48 52 52 55 53 52 51 58 60 62 61 61 62 63 62 63
48 47 47 47 47 48 48 48 48 49 49 49 50 52 53 53 53 60 61 57 61 62 47 53 58 59 61 63 62 63 62 61 59 51 43 47 50 48 46 48 48 55 53 49 49 56 55 58 61 60 58 59 59 58
47 47 47 47 47 48 48 48 49 49 49 50 52 53 53 53 52 68 58 61 60 62 56 46 56 55 58 60 59 58 59 59 61 57 45 52 49 51 39 47 49 53 55 55 53 57 57 58 58 57 54 54 54 54
47 47 47 47 47 48 48 49 49 50 50 50 51 51 51 52 60 56 55 56 52 59 53 43 47 53 53 57 53 57 57 57 59 49 41 45 49 54 40 46 46 49 51 53 54 55 54 51 49 51 51 50 48 45
46 47 47 47 47 48 48 49 49 49 50 51 51 51 51 51 52 55 57 51 52 61 58 43 43 49 53 46 44 49 47 54 48 43 43 42 44 44 40 41 45 46 49 50 49 52 50 50 49 46 45 43 39 36
46 46 46 46 47 47 48 48 48 49 49 49 50 50 58 55 56 57 48 49 60 61 49 38 42 39 49 42 43 45 50 40 46 41 42 46 39 36 36 37 39 40 41 42 47 48 45 42 40 39 37 36 35 34
47 46 46 46 46 47 47 48 49 50 49 50 57 56 49 50 48 52 57 55 52 49 48 36 44 39 49 42 39 41 42 39 39 41 43 39 32 38 37 37 38 40 44 46 38 35 35 34 35 35 36 39 40 41
47 46 46 47 47 47 47 48 49 51 53 55 49 46 54 49 57 51 44 44 46 39 42 40 44 41 45 41 39 40 37 38 36 41 39 36 31 34 37 36 39 41 41 41 40 38 40 40 37 35 39 41 41 40
47 47 47 47 47 47 47 48 50 52 50 51 51 51 53 51 48 38 35 38 39 38 38 39 39 42 40 46 41 39 36 36 34 44 36 32 32 35 36 37 40 42 42 42 45 43 44 44 44 43 41 40 40 38
46 46 46 46 46 47 47 47 47 48 48 53 51 41 48 39 36 36 32 35 35 36 36 36 35 40 42 46 37 38 35 34 41 34 33 32 35 35 36 37 38 41 43 43 43 44 43 42 41 40 38 39 36 39
45 45 45 46 46 46 46 46 48 49 49 41 38 34 35 35 34 35 37 36 34 34 36 37 36 39 37 36 35 34 32 35 32 31 31 32 33 34 35 37 41 41 35 40 41 41 38 38 37 35 33 33 33 35
45 45 45 45 45 45 46 46 47 49 44 37 39 31 31 32 33 33 33 34 35 35 36 37 37 40 35 34 34 33 31 31 34 33 33 34 35 36 36 40 41 39 35 39 42 37 33 34 36 37 36 36 34 32
46 47 44 44 45 45 45 45 44 44 37 36 35 32 33 32 32 33 33 32 36 35 36 38 34 34 32 34 32 31 32 31 31 35 34 36 35 35 36 37 38 40 41 40 40 39 36 33 33 36 35 32 31 31
46 43 42 44 45 45 45 46 40 35 35 33 32 33 33 33 32 32 33 33 35 34 32 36 33 31 35 32 31 36 32 35 35 35 36 37 35 35 37 37 36 38 39 39 38 36 35 34 32 32 31 33 33 33
41 44 44 44 47 46 44 43 40 38 31 33 32 32 33 33 33 33 33 34 37 37 37 34 38 31 31 30 32 34 34 36 39 36 37 37 38 41 41 41 40 39 36 32 31 32 32 31 33 33 31 31 32 32
43 42 43 43 46 44 39 38 41 32 32 33 33 34 34 33 34 35 34 34 36 39 39 38 34 34 34 38 36 33 35 35 34 34 33 34 37 39 38 37 35 33 33 34 34 34 33 31 31 31 30 29 27 28
42 42 42 42 47 42 35 36 43 36 32 32 34 32 33 33 34 33 35 36 39 39 35 33 34 35 37 36 38 37 41 43 39 35 31 33 37 37 36 36 34 34 34 32 30 29 31 30 29 28 26 24 23 23
43 42 42 44 42 40 35 36 35 35 35 32 33 33 31 34 33 32 33 38 35 30 31 31 31 31 32 34 38 39 37 42 39 37 35 31 34 34 33 32 31 31 30 29 27 26 24 24 25 24 22 21 21 22
40 41 40 40 37 36 36 36 35 37 35 34 33 34 32 31 31 31 33 34 31 31 32 32 33 34 33 31 34 35 34 35 35 33 32 31 29 29 28 29 29 26 25 24 24 22 22 22 20 20 19 19 20 21
40 40 36 35 32 31 29 38 33 34 30 30 33 30 31 31 32 36 30 32 31 33 33 31 30 31 30 31 32 32 34 33 30 29 29 29 28 27 26 24 24 22 22 21 22 21 19 14 17 15 17 18 18 18
39 32 30 29 30 25 30 28 33 31 31 29 28 26 28 30 33 31 27 29 29 32 32 30 30 28 28 27 26 27 29 30 28 28 29 28 25 23 24 22 20 19 18 19 19 17 17 15 13 15 15 15 15 15
28 25 28 24 28 26 24 24 26 29 24 26 26 26 27 30 26 25 24 25 26 26 27 30 30 28 25 24 25 24 26 28 26 22 23 25 23 22 21 20 18 17 17 16 14 13 13 13 13 13 13 13 12 12
21 25 25 24 25 25 23 24 23 23 24 24 26 27 28 27 22 19 22 23 24 23 22 24 26 24 22 24 23 21 21 24 24 20 19 21 20 19 17 17 18 16 16 14 12 11 11 11 10 9 11 12 11 11
22 23 28 31 29 28 27 27 28 26 24 24 27 26 26 21 18 21 25 24 24 22 22 22 23 22 20 19 19 19 20 21 21 19 19 18 17 17 15 13 11 13 14 12 10 10 8 8 8 9 10 12 12 11
27 28 22 25 27 29 24 25 25 24 26 29 28 22 20 20 19 21 22 24 23 22 21 19 19 19 17 17 19 19 18 17 16 17 17 16 16 15 13 14 13 9 9 9 8 8 9 9 9 9 10 9 8 9
27 28 27 20 24 26 25 25 26 28 28 28 25 21 17 18 18 19 20 21 23 23 20 18 17 18 16 15 15 15 16 17 16 12 11 13 14 14 14 13 12 12 11 9 8 8 9 10 9 8 7 6 7 7
26 28 26 21 21 23 26 28 28 28 26 24 23 20 18 16 16 18 19 18 17 14 13 13 14 17 14 16 14 13 13 13 12 11 10 10 10 12 11 11 10 10 9 8 7 8 7 7 7 7 6 5 6 4
29 29 26 25 24 26 24 23 27 27 25 21 20 18 15 15 16 15 14 14 14 15 15 14 12 13 13 12 13 12 12 12 8 8 8 9 10 10 11 10 10 9 8 6 6 5 4 4 5 4 4 2 0 -0
24 19 21 21 23 23 22 24 21 24 23 20 15 15 13 14 10 13 12 15 15 13 5 10 13 12 10 12 9 11 1 9 10 8 7 8 9 11 10 9 8 7 6 5 5 4 3 2 2 2 2 1 -1 -2
21 22 21 21 21 20 19 18 17 17 17 16 13 13 12 12 7 12 13 12 12 11 11 11 12 11 8 6 8 10 4 10 6 4 3 3 3 5 6 9 7 6 4 4 4 3 1 1 1 1 -0 -2 -3 -3

GFSWCAN_sfc_temp_033.txt.gz
Temp
49 49 49 49 49 49 48 48 49 49 50 50 50 50 51 51 52 55 68 71 74 67 67 69 73 69 70 70 59 62 60 60 59 50 50 53 48 54 54 59 51 48 45 40 45 36 37 65 63 53 60 66 67 66
49 49 49 48 48 47 48 48 49 50 49 49 50 50 50 51 52 55 65 72 77 71 64 69 67 68 69 72 72 65 67 64 65 59 54 53 43 43 52 48 60 51 57 54 55 54 64 67 65 68 68 64 65 65
48 48 47 46 47 48 48 49 49 49 49 49 50 50 50 51 52 55 70 73 74 65 64 66 64 67 71 70 71 66 67 71 68 69 61 56 41 56 40 52 56 60 61 56 55 63 65 66 68 68 68 66 67 68
46 47 47 48 48 48 48 48 49 49 49 50 50 50 50 51 53 55 69 72 75 65 47 58 69 63 68 71 71 70 70 68 68 68 56 45 45 61 53 57 57 60 60 58 57 62 64 66 65 64 63 65 65 66
48 47 47 47 48 47 48 48 48 48 48 49 49 50 51 53 55 62 67 67 69 69 51 55 64 65 68 70 69 70 68 66 64 56 46 51 58 55 54 55 54 62 58 53 52 59 57 60 62 61 61 59 59 60
47 47 47 48 48 47 48 48 48 48 48 49 50 50 52 54 55 63 62 64 66 70 60 48 62 60 65 68 67 67 68 69 70 61 52 60 57 59 43 50 55 57 57 57 56 60 59 59 58 59 55 55 55 54
47 47 47 48 48 48 49 48 48 48 48 49 50 52 53 52 64 64 61 58 56 68 58 47 50 59 61 64 62 65 66 65 67 59 48 56 56 59 43 49 52 53 56 57 57 58 54 55 52 54 49 46 43 41
47 47 47 48 48 49 49 49 50 50 50 51 52 52 52 51 51 61 55 51 57 66 65 45 45 50 60 54 48 59 55 61 54 49 50 47 51 50 47 48 50 52 55 52 54 56 54 53 51 48 46 43 41 39
47 47 47 48 49 49 49 50 50 50 50 51 50 50 62 61 60 60 48 53 65 62 54 39 41 39 57 50 50 50 58 43 53 43 46 51 42 40 42 45 45 47 45 47 48 48 47 44 41 41 41 40 38 37
46 47 47 47 48 48 48 48 49 49 50 50 64 64 53 53 49 53 60 57 58 56 53 40 52 45 54 46 43 44 44 43 41 43 50 41 38 41 41 41 44 45 49 46 37 35 37 38 42 44 45 46 46 47
47 47 47 47 48 47 48 49 50 50 50 61 55 48 54 51 59 56 48 49 53 43 46 44 50 45 50 44 39 43 40 41 37 43 41 37 35 38 39 41 43 45 49 48 45 46 48 47 41 42 44 44 44 43
47 47 47 46 47 47 49 50 52 57 54 54 55 56 57 56 50 40 37 40 43 40 40 40 41 45 43 51 43 43 37 40 36 48 38 35 34 36 37 41 44 48 48 47 48 47 47 47 47 46 44 43 41 41
45 46 46 46 46 47 47 47 47 48 51 61 55 44 51 41 37 36 32 36 35 38 38 40 37 43 44 47 39 40 36 37 46 36 36 34 35 36 39 42 43 45 46 47 47 47 47 45 44 43 40 40 39 41
45 45 45 45 46 46 47 47 49 53 57 47 41 36 36 34 35 35 36 36 35 36 39 40 38 40 40 38 38 38 34 38 34 32 33 32 34 35 38 42 45 43 39 44 45 44 41 41 38 36 34 34 33 36
45 45 46 45 45 46 46 48 49 54 44 39 41 33 32 33 34 33 34 35 36 38 40 40 40 44 36 35 37 35 32 32 36 34 35 34 34 35 37 44 44 40 36 41 44 39 34 36 39 39 38 37 35 32
47 47 43 45 45 46 47 50 52 51 42 38 35 32 33 33 32 33 33 33 36 36 40 45 38 36 33 35 33 34 34 34 34 36 36 37 34 36 40 42 43 44 44 43 42 40 37 35 35 38 36 35 32 31
49 47 43 45 46 48 47 47 43 37 36 35 33 34 34 33 32 32 33 33 36 35 34 37 35 33 38 34 33 38 33 36 36 36 39 39 37 37 38 39 37 41 42 42 41 40 38 37 35 36 35 36 36 36
47 49 44 45 50 50 47 47 39 40 33 35 33 33 34 34 34 34 35 35 36 34 36 35 41 33 33 31 33 34 36 39 39 37 39 40 40 40 42 42 44 43 40 37 36 37 36 35 36 37 35 35 35 35
45 45 43 44 49 49 42 41 44 34 34 35 35 35 35 35 36 37 36 39 42 43 41 39 35 34 34 36 34 35 36 36 34 34 34 36 41 40 43 41 38 38 37 38 38 38 37 35 34 34 33 32 30 31
43 43 43 44 50 46 38 39 47 38 34 34 36 34 35 34 36 35 36 40 41 41 34 32 30 30 31 33 37 38 39 39 37 34 34 34 37 39 38 37 38 38 37 35 33 33 36 35 34 32 29 28 27 26
48 46 46 51 48 46 41 40 38 38 38 34 36 37 35 37 35 34 34 41 35 32 31 32 31 33 35 37 39 38 39 40 40 40 37 34 37 38 37 37 36 36 35 34 32 30 29 29 29 28 26 26 25 26
46 44 45 45 41 38 39 42 39 42 39 37 37 39 34 32 32 32 36 35 32 31 32 32 33 35 35 35 37 36 35 35 35 34 34 35 33 33 33 34 33 30 30 29 29 26 27 26 24 23 23 23 24 25
44 45 40 37 33 33 30 42 34 37 31 32 37 33 32 32 35 41 32 34 31 33 34 33 32 33 32 32 33 34 36 35 33 32 31 31 30 30 30 30 30 28 27 25 26 25 23 20 22 20 22 22 23 22
43 34 31 31 33 28 33 30 36 34 33 30 31 28 29 30 36 33 28 28 29 33 33 33 35 32 31 29 27 27 29 31 30 30 30 30 28 27 27 26 24 23 23 24 23 22 22 20 19 21 20 19 20 18
32 27 31 28 32 30 29 28 29 32 27 29 29 28 29 33 28 27 26 27 28 28 29 31 31 30 28 27 26 25 26 28 25 23 25 27 25 25 24 24 22 21 22 20 19 18 19 18 18 18 17 17 16 15
25 27 28 28 29 28 28 27 26 26 28 28 27 30 31 30 25 22 25 25 25 25 25 25 28 27 24 24 23 22 22 25 24 21 20 23 24 24 22 21 22 20 20 19 17 16 16 16 15 14 14 16 16 15
25 25 31 34 31 31 29 30 31 30 27 26 29 28 28 23 22 22 26 25 25 24 25 25 26 25 24 22 22 22 22 22 21 21 22 22 21 21 19 17 15 16 18 17 15 15 13 13 13 14 14 16 16 15
28 29 25 27 30 32 27 28 27 26 27 30 30 25 23 21 20 23 24 26 26 26 25 24 23 23 22 22 23 23 23 22 21 22 22 22 21 20 18 19 17 12 15 15 13 12 13 12 12 13 14 13 12 14
27 29 30 24 28 29 28 27 27 28 29 29 26 24 21 20 20 22 22 24 26 26 23 22 21 22 21 21 21 21 21 20 20 16 16 17 18 18 19 18 17 17 16 15 14 13 13 11 12 11 11 10 12 12
27 30 29 26 25 25 26 29 27 28 29 28 27 24 21 19 19 23 22 21 20 19 19 19 20 20 19 20 18 17 18 17 15 14 13 13 13 16 16 16 15 15 15 14 12 13 13 12 12 12 11 11 11 9
32 32 29 28 26 27 27 28 30 29 28 25 25 23 19 18 19 20 19 20 20 20 20 19 18 18 17 16 16 16 16 16 13 13 12 12 14 15 15 14 14 14 13 12 11 10 10 9 9 9 9 8 7 6
29 24 25 24 25 27 28 27 27 27 26 24 20 21 19 20 15 16 17 19 19 17 13 18 17 15 15 16 16 17 7 13 14 13 12 12 13 14 14 14 14 13 12 10 9 10 9 8 7 7 7 7 6 3
27 27 26 26 26 24 25 25 24 22 23 20 18 19 17 17 11 15 18 18 16 15 15 15 16 16 14 13 14 14 12 15 13 11 10 8 6 7 8 11 12 12 11 9 9 9 8 7 6 6 5 4 3 2

GFSWCAN_sfc_temp_036.txt.gz
Temp
48 48 48 48 48 49 49 49 49 49 49 49 49 48 48 49 50 51 54 56 56 56 69 72 75 69 69 64 55 61 59 61 58 49 49 51 45 53 54 58 48 44 43 38 43 35 34 66 63 52 58 63 64 64
48 48 48 48 48 48 49 49 49 49 49 49 49 49 49 50 51 52 50 57 60 55 64 69 68 71 71 70 67 63 64 63 63 58 54 53 41 41 48 46 64 49 56 50 50 49 63 67 64 67 66 63 63 63
48 48 48 48 48 48 48 48 48 49 49 49 49 50 50 50 51 52 51 55 58 61 63 67 64 68 72 71 73 62 67 71 68 72 60 55 40 54 39 49 55 62 64 55 55 63 65 66 68 66 64 62 64 65
48 48 48 47 47 47 48 47 47 48 48 49 49 50 50 50 51 52 51 57 63 63 47 56 70 65 71 73 73 73 72 71 69 66 55 44 42 62 51 58 55 59 61 58 57 62 63 62 61 60 62 62 61 63
46 46 45 45 46 46 46 47 47 48 49 49 50 49 50 50 51 53 55 61 65 65 50 53 64 68 71 72 70 71 69 67 63 55 42 51 58 54 53 55 52 62 59 51 50 58 57 54 58 60 57 55 57 56
46 46 46 46 47 48 48 48 48 48 48 49 49 50 50 51 51 55 53 66 65 74 59 47 61 62 68 70 69 67 68 68 67 58 52 59 61 57 42 48 58 59 61 60 56 59 58 56 55 52 50 50 50 48
47 47 47 47 47 47 47 47 48 48 48 49 50 50 51 51 57 55 54 56 54 69 57 45 47 59 65 65 63 65 68 65 64 57 51 54 55 57 42 47 55 56 58 57 58 58 51 55 47 48 45 44 44 44
48 48 48 47 47 47 47 47 48 48 48 49 50 50 51 51 52 52 56 52 53 66 63 44 39 50 61 53 50 60 57 59 56 50 51 50 51 50 45 52 53 55 55 54 54 55 53 51 49 45 46 46 43 41
47 48 48 48 48 48 47 48 48 48 49 50 51 52 59 56 56 56 50 50 60 59 47 39 40 38 58 50 49 51 57 42 51 43 48 50 42 42 49 49 49 50 50 48 50 51 50 45 43 44 45 44 40 39
47 48 47 47 49 49 49 49 49 50 51 52 58 60 45 54 50 52 61 53 50 55 52 42 51 43 52 45 42 44 44 43 40 43 49 40 37 44 46 47 48 49 50 48 40 37 40 40 42 43 43 44 44 41
46 46 47 47 48 48 49 50 50 52 53 61 55 46 54 52 59 55 44 44 47 43 46 46 49 44 51 43 39 43 40 41 37 42 41 37 37 39 43 45 47 49 49 47 46 46 47 45 41 41 42 43 41 39
47 46 46 46 47 48 49 49 50 57 58 56 55 57 58 55 49 39 37 40 41 39 40 41 43 46 45 53 43 43 37 40 36 45 37 36 37 40 41 44 46 48 47 47 48 46 46 46 46 44 43 40 39 36
46 46 46 46 46 47 48 49 49 50 50 61 52 42 47 39 36 36 33 37 34 37 38 40 37 42 44 47 39 39 35 36 47 36 37 35 35 38 42 44 45 47 47 46 46 46 45 43 42 39 37 37 36 37
46 46 46 46 46 47 48 49 50 54 56 45 39 34 35 34 33 33 34 34 34 35 38 40 38 39 39 36 36 33 34 39 33 32 34 33 34 37 41 43 44 43 38 43 43 42 38 36 35 33 32 32 31 33
46 46 47 45 46 47 48 49 50 53 46 39 39 32 32 33 33 33 34 35 35 39 40 41 40 42 36 35 37 34 32 32 34 35 34 34 35 37 39 42 40 38 36 40 41 36 34 34 36 36 35 35 32 28
49 49 46 45 46 48 48 52 50 47 39 34 34 32 33 33 32 33 33 33 36 37 40 44 37 35 33 35 33 34 34 34 33 35 34 35 35 36 39 40 41 42 42 41 39 37 36 34 34 35 34 33 28 28
50 47 43 45 47 49 49 50 47 40 36 34 32 33 33 32 32 32 32 32 36 36 34 37 33 33 38 34 33 35 32 34 35 35 35 35 35 37 39 39 38 40 41 40 39 38 37 36 35 35 34 34 35 34
48 50 45 46 51 52 50 46 41 39 33 34 32 32 33 33 33 33 33 35 35 34 35 34 38 33 33 32 32 34 34 34 36 36 36 36 38 39 41 40 42 42 39 37 37 37 36 34 36 35 34 33 34 33
45 46 45 46 50 49 41 42 45 33 33 35 34 35 35 34 36 36 36 38 39 38 37 35 33 31 30 31 32 34 34 34 32 33 35 38 37 37 38 39 37 37 36 36 37 37 34 34 33 33 31 31 29 29
46 45 44 47 51 45 39 39 47 38 33 34 36 34 35 34 36 35 36 39 39 37 32 30 28 29 29 31 32 35 36 36 34 32 32 35 37 37 38 38 37 37 35 34 33 33 35 33 32 30 28 27 26 24
49 48 47 52 48 46 41 40 38 38 37 34 37 38 35 38 35 34 35 40 34 30 29 31 31 32 34 33 33 34 35 38 38 38 35 33 35 36 36 36 36 35 34 32 31 29 29 27 27 27 25 25 23 24
47 45 46 44 40 38 39 42 39 42 38 36 37 39 34 32 32 33 38 33 30 30 31 31 31 32 32 30 31 33 33 34 34 34 34 35 32 32 31 32 31 28 28 28 28 26 26 24 22 23 23 22 22 24
46 46 41 38 33 32 31 42 34 37 31 33 36 33 32 32 35 40 31 31 30 32 33 33 32 32 31 31 31 31 32 32 30 30 30 29 29 28 27 27 28 26 24 24 26 24 22 20 21 20 22 21 21 21
44 33 31 32 33 28 34 31 36 34 33 31 32 28 29 31 36 33 26 27 28 32 31 31 32 31 31 29 27 26 29 30 28 28 30 28 25 24 24 22 22 22 24 25 23 22 22 21 18 20 19 18 18 17
32 28 32 29 34 32 30 30 31 32 27 30 29 28 29 34 29 27 25 26 25 25 26 29 29 28 27 26 25 24 26 27 24 22 23 26 25 23 22 22 21 21 22 20 18 18 18 18 18 17 16 16 15 15
25 28 28 29 29 29 29 27 27 27 29 29 27 30 32 30 26 21 23 24 23 23 23 24 26 25 23 23 22 21 22 25 24 19 19 21 21 22 21 21 20 17 19 18 16 15 16 15 14 14 14 15 13 14
25 27 31 34 32 32 30 31 32 30 27 26 28 29 29 24 21 22 25 25 24 24 24 25 25 24 22 22 22 22 23 23 22 21 22 22 21 21 18 16 14 13 17 16 15 13 12 12 12 12 12 14 15 13
28 29 25 29 30 33 28 28 28 25 26 29 30 24 22 20 18 22 23 26 26 27 25 24 24 23 22 21 23 23 23 23 21 23 22 22 22 20 19 19 17 15 16 16 14 14 12 12 10 11 11 10 10 13
27 30 31 24 29 28 26 27 26 26 28 27 26 22 19 20 20 22 23 25 26 25 23 22 22 23 22 22 21 21 19 18 18 16 16 16 17 16 18 18 18 17 17 15 15 15 14 12 12 11 10 10 11 12
28 32 30 28 27 24 25 28 27 27 28 28 26 23 19 18 20 23 22 22 21 19 20 20 21 20 19 19 18 17 17 15 14 12 11 10 11 15 16 16 15 15 15 14 13 13 14 13 12 11 12 11 11 10
32 32 30 29 25 26 27 29 30 28 27 24 25 22 18 17 18 20 19 21 20 20 20 18 17 17 16 14 14 14 14 15 14 14 12 12 14 14 15 14 15 15 14 12 11 10 10 10 9 9 9 8 8 7
29 26 27 25 25 27 29 27 27 27 26 24 21 21 20 20 15 15 17 19 18 16 15 17 16 14 15 16 16 16 9 14 15 13 12 10 10 11 12 12 12 13 13 11 10 10 9 9 8 8 7 7 6 4
29 28 28 28 27 25 26 26 26 23 23 20 19 20 18 16 11 15 19 19 16 15 15 16 16 17 16 16 15 15 14 16 14 14 13 11 6 8 8 10 10 9 8 8 9 8 8 8 7 7 5 4 4 3

GFSWCAN_sfc_temp_039.txt.gz
Temp
48 48 48 48 48 48 48 48 48 48 48 49 50 51 50 51 51 49 46 51 50 48 52 59 64 60 57 53 45 51 49 48 44 38 37 34 33 40 41 47 40 37 32 27 32 28 29 58 55 45 48 52 54 54
48 48 48 48 48 48 48 49 49 49 49 49 49 49 49 50 50 50 45 53 55 48 50 59 61 60 62 61 54 51 53 52 51 44 41 37 37 34 38 33 51 37 42 37 40 37 50 55 53 54 54 51 52 52
48 48 48 48 48 48 48 48 48 48 49 49 49 49 49 49 50 50 49 52 52 48 51 54 53 60 67 65 64 50 51 59 56 54 46 41 36 38 32 35 41 50 56 44 45 51 53 53 55 56 55 52 51 51
48 48 48 48 48 48 48 48 48 48 48 49 49 49 49 49 50 51 48 53 51 50 40 50 64 57 64 66 65 66 62 60 57 52 41 37 37 48 36 44 42 48 51 49 47 49 51 51 52 53 53 51 49 49
48 47 47 48 48 48 48 48 48 48 48 48 49 49 49 50 50 50 51 52 53 50 42 47 58 63 63 63 63 63 60 56 50 42 35 39 44 43 41 42 37 51 49 39 36 48 47 46 49 50 48 47 47 44
47 46 46 46 46 47 47 47 47 47 48 48 49 49 50 49 50 51 45 53 54 53 48 39 53 56 60 59 60 60 57 55 52 46 39 46 51 42 34 31 48 51 51 51 48 51 46 46 46 47 44 44 44 42
45 46 46 46 46 46 47 46 47 47 48 48 49 49 49 50 52 47 45 52 51 51 48 39 41 53 56 55 50 53 55 51 50 46 41 43 44 44 35 34 48 51 51 51 53 48 42 45 39 43 42 42 42 40
45 45 46 46 46 46 46 47 47 48 48 49 49 49 49 50 50 49 55 51 50 54 50 38 38 44 55 45 41 49 47 46 45 43 41 38 41 35 34 45 49 50 49 48 47 48 44 43 43 42 42 40 37 36
47 47 46 47 47 47 47 47 48 48 48 49 49 49 50 51 49 51 51 49 53 51 39 35 37 36 51 44 43 45 47 36 46 37 39 40 35 35 42 44 45 47 45 44 46 44 42 41 42 41 39 37 35 34
47 47 46 46 46 47 47 47 48 49 49 50 52 50 42 49 50 51 52 45 44 45 42 36 43 38 47 38 37 37 36 37 35 37 41 35 33 41 41 43 44 45 46 43 37 34 37 38 39 40 38 39 39 38
47 48 48 47 47 47 47 48 48 49 50 52 47 42 49 51 49 45 36 36 39 34 38 40 42 40 46 37 35 36 35 33 29 33 33 33 33 38 42 43 44 47 45 43 41 42 43 42 39 38 38 37 35 32
47 47 48 48 49 48 48 49 49 52 51 51 50 51 49 47 41 36 34 35 35 34 36 37 38 42 39 45 37 37 34 32 30 39 34 32 33 37 40 41 44 45 44 44 45 44 43 44 42 39 37 34 31 30
46 46 47 47 47 49 51 50 49 51 50 51 46 39 43 36 33 30 26 33 33 34 36 35 35 36 38 39 35 36 35 32 33 33 32 31 35 38 40 42 42 44 44 43 42 40 39 37 37 35 33 33 31 30
46 47 46 46 47 48 48 49 49 51 49 40 35 33 33 32 31 31 32 32 33 33 35 36 34 34 34 34 33 33 32 35 31 26 26 31 35 37 40 42 42 40 37 38 37 35 33 32 31 31 30 29 29 28
47 47 47 46 47 48 48 48 49 47 40 34 34 29 29 31 32 32 33 33 33 36 35 35 35 37 33 33 33 33 31 27 29 26 32 33 35 38 39 38 37 35 35 36 36 33 32 31 31 30 30 30 28 24
49 48 44 45 48 49 49 48 46 43 36 34 32 31 32 32 32 32 32 32 35 34 35 34 33 33 32 33 32 31 29 26 30 31 33 35 36 37 37 37 39 39 36 35 34 33 32 31 30 30 29 28 22 21
48 41 45 46 48 49 48 45 42 36 32 32 31 32 32 32 30 31 32 32 35 34 33 33 31 30 33 31 29 31 29 31 32 33 35 36 35 34 34 35 35 36 35 34 33 33 32 32 30 29 28 29 28 27
41 44 46 47 49 48 46 43 36 34 30 32 30 31 32 32 32 32 32 34 34 33 33 32 34 32 29 28 28 31 31 33 34 33 34 36 37 37 37 36 38 37 34 33 33 33 32 30 30 28 28 29 28 27
43 44 46 47 48 41 36 37 38 30 31 32 32 32 32 32 33 35 35 36 35 36 34 32 27 26 26 28 29 31 32 32 32 33 34 35 36 36 35 34 33 33 33 32 31 29 28 29 27 26 26 25 22 22
47 46 45 48 48 35 34 34 40 33 30 31 33 32 32 32 33 33 34 35 35 32 28 26 25 27 28 29 31 32 32 33 33 32 31 32 33 33 33 32 31 31 30 30 30 28 27 25 26 25 22 21 16 15
44 43 45 44 40 39 33 32 32 33 32 31 32 32 31 32 33 32 31 34 29 27 26 28 28 29 30 30 31 32 32 34 33 32 32 31 32 32 32 31 32 31 28 26 25 23 22 20 21 21 13 10 10 10
40 45 34 37 33 33 32 35 33 34 32 31 31 31 29 28 28 30 31 27 26 27 28 28 29 28 28 27 28 30 30 30 30 31 32 31 29 28 28 28 25 22 23 23 23 19 19 20 19 17 10 9 11 12
42 39 33 33 26 27 25 33 27 31 27 27 31 29 28 28 28 32 24 27 26 28 29 30 29 29 27 27 28 28 28 28 27 27 26 25 24 23 22 22 23 20 19 20 22 20 18 17 16 11 11 9 9 4
40 32 25 26 26 26 27 27 30 30 30 26 23 22 26 27 30 23 21 22 24 26 25 27 28 27 26 24 22 22 25 26 24 24 25 23 21 20 20 19 19 20 21 21 19 18 16 11 12 11 4 1 0 1
24 23 25 18 25 21 18 19 20 24 19 21 17 17 22 26 19 18 19 21 19 19 21 24 24 22 21 20 21 20 23 23 21 18 19 23 21 20 18 18 17 17 18 14 13 10 8 6 3 1 2 -3 3 -0
23 26 25 25 26 23 25 22 24 24 18 16 24 28 22 20 13 13 18 18 16 17 18 19 21 20 18 19 18 17 18 22 21 16 17 18 17 18 17 15 12 12 15 12 7 4 3 1 -2 -0 -3 2 2 2
23 24 28 32 30 28 24 26 26 20 15 16 17 19 23 15 10 17 20 20 19 19 21 20 21 20 19 19 19 19 18 19 18 18 19 18 17 16 13 6 2 6 9 5 -1 -3 -5 -5 -5 -5 -5 3 2 -1
26 27 23 27 27 29 25 22 19 19 18 25 24 11 9 10 11 18 19 22 24 22 21 20 20 19 18 18 17 16 15 16 14 16 16 15 14 11 8 6 7 11 7 5 -0 0 -2 -1 -5 -6 -5 -5 -6 -6
26 28 22 19 26 25 22 22 22 23 25 24 18 13 12 16 17 18 20 21 21 19 17 16 19 17 15 15 14 12 10 9 6 2 1 2 4 5 5 3 5 3 1 1 8 9 6 3 4 -0 -4 -1 1 -2
26 29 26 26 22 20 22 25 22 24 24 23 18 17 15 14 16 18 18 17 16 13 14 15 14 12 9 11 8 6 3 1 2 -2 -6 -7 -5 4 4 9 3 -1 1 -3 -4 -1 5 -0 -0 -4 -5 -5 1 -1
29 28 20 19 16 22 24 26 20 24 16 17 16 10 9 9 11 14 14 15 13 15 14 8 8 8 7 6 4 -1 -1 -0 3 1 -2 -2 -1 -1 4 5 7 4 -2 4 -1 -5 -7 -7 -5 -3 -7 -7 -5 -4
22 17 14 15 17 24 26 22 19 22 20 16 11 8 8 11 3 6 12 13 10 10 8 5 4 4 1 0 -0 0 0 2 4 -0 -1 -2 -5 -6 -6 -5 -4 4 3 -1 1 2 -1 -3 -6 -1 -3 -5 -9 -11
19 18 17 15 16 18 17 14 17 15 13 11 10 11 6 6 2 6 12 9 4 2 6 9 10 8 4 2 -0 2 6 1 1 7 8 6 -2 -3 -6 -7 -9 -10 -10 -9 -7 -9 -7 -2 1 0 -3 -7 -9 -9

GFSWCAN_sfc_temp_042.txt.gz
Temp
47 48 48 48 48 47 48 48 48 49 49 49 49 49 49 50 51 48 47 50 46 44 48 51 57 52 55 54 45 48 47 47 42 38 36 33 31 38 37 43 39 37 31 26 29 25 30 52 52 45 45 48 50 50
48 48 47 47 47 48 48 48 48 48 49 49 49 49 49 50 51 51 45 50 51 44 47 51 53 54 58 61 50 48 50 50 49 44 37 36 33 31 35 32 46 37 41 35 38 36 48 49 50 50 51 49 48 48
47 47 47 47 47 47 47 47 47 48 48 48 48 49 49 50 50 51 47 48 48 45 46 47 49 57 62 65 63 48 47 55 54 52 43 39 36 35 32 33 39 46 50 42 42 46 47 48 50 50 49 46 47 48
47 47 47 47 48 48 47 47 48 47 47 48 49 49 50 50 50 50 47 51 49 47 39 46 58 56 61 62 62 60 56 56 55 50 39 36 36 44 33 42 40 45 49 45 40 44 47 47 47 46 46 45 44 44
47 47 47 47 47 47 48 48 48 48 48 49 49 49 50 49 50 49 49 51 52 48 40 45 52 57 60 61 60 60 60 53 47 42 35 38 42 41 37 39 36 47 46 39 36 47 44 42 45 47 44 43 43 41
47 47 47 47 47 47 47 47 47 48 48 48 48 49 49 49 50 47 42 49 52 52 44 38 50 52 57 58 57 57 56 51 49 44 39 44 48 41 33 30 45 47 48 49 44 47 44 42 43 44 41 41 41 39
47 47 46 46 47 47 47 47 47 47 47 48 48 49 49 49 48 45 43 49 52 52 44 38 41 50 54 52 50 51 51 47 49 44 38 41 42 41 32 33 45 46 47 46 46 45 40 42 37 41 40 39 39 38
46 46 46 46 46 46 46 46 47 47 48 48 48 49 49 49 49 47 50 50 51 49 48 37 39 42 52 43 43 48 45 44 44 41 38 36 40 32 33 42 45 45 45 45 44 44 42 41 40 38 39 38 36 34
46 46 46 46 46 46 46 46 47 47 48 48 49 49 48 48 45 47 50 49 51 49 39 34 36 36 47 41 40 41 41 37 44 35 35 39 31 32 39 42 42 44 42 38 40 40 40 38 37 37 37 36 33 32
45 45 45 45 46 46 46 47 47 48 48 49 48 45 40 46 50 50 49 45 43 43 42 36 41 38 44 36 36 33 36 35 35 36 41 34 32 37 38 41 42 43 42 41 35 33 35 35 36 37 36 36 35 33
46 46 46 46 46 47 47 47 48 48 48 47 45 42 49 50 49 44 36 35 38 34 36 38 39 38 43 35 34 34 34 33 32 35 34 33 32 37 39 41 42 43 43 40 40 40 40 40 37 36 35 34 33 31
47 47 47 47 47 47 48 48 48 49 49 49 49 49 48 45 38 35 32 34 34 33 35 36 38 41 38 44 37 36 33 32 31 38 34 31 31 36 41 42 43 44 43 41 42 41 41 40 39 37 34 31 30 31
47 48 47 47 47 48 48 48 49 49 51 49 44 37 41 34 31 27 26 32 31 33 35 35 34 36 38 40 34 35 28 30 31 34 27 29 36 38 40 41 41 43 42 42 41 41 40 38 36 34 30 30 30 29
47 47 47 47 47 47 48 48 48 48 46 37 34 31 31 30 29 30 31 32 33 33 34 34 34 35 33 34 33 33 33 33 28 24 25 31 35 36 39 41 40 37 36 36 36 35 33 32 31 32 30 29 28 27
47 47 47 46 47 47 48 48 47 45 38 33 33 28 29 31 32 32 33 33 33 34 34 34 34 35 33 33 32 32 30 29 28 25 31 33 35 37 37 37 36 34 33 33 34 31 30 31 30 29 30 30 28 25
47 48 45 46 47 48 47 47 43 41 35 31 31 31 33 32 31 32 32 32 35 33 33 32 33 33 31 32 31 30 26 24 30 31 33 36 36 35 36 36 36 35 34 33 32 32 31 29 29 29 29 27 23 22
46 42 46 47 47 47 47 42 38 34 33 31 30 32 32 32 31 31 32 32 35 34 33 32 30 30 32 30 28 31 27 30 31 32 34 35 34 34 34 34 33 33 33 33 32 32 31 31 29 28 27 27 28 25
39 41 47 48 47 45 43 41 35 33 30 31 28 31 32 32 31 32 33 35 34 32 33 31 33 27 24 24 26 30 31 32 32 33 34 34 35 35 36 34 34 34 33 32 32 32 31 29 29 28 28 28 27 26
43 43 46 47 45 38 34 36 37 30 30 32 32 32 32 32 33 33 33 33 34 34 32 29 24 23 24 27 26 29 31 31 31 32 33 35 35 34 34 33 33 32 32 31 31 29 28 28 26 26 25 25 21 21
45 45 44 45 44 33 33 31 35 31 30 31 32 32 32 31 32 32 31 32 32 31 27 24 23 24 24 26 28 31 32 32 33 31 30 31 32 32 32 31 30 30 29 28 27 25 25 24 25 24 22 20 16 14
40 40 41 40 35 35 31 30 32 33 32 31 32 32 31 32 29 27 27 31 28 25 24 26 25 26 27 28 28 29 29 31 32 32 31 29 31 30 29 29 29 27 26 23 21 20 20 20 20 20 17 14 10 8
36 41 31 35 30 31 30 33 31 31 31 30 29 30 26 25 24 25 29 24 22 23 27 26 25 25 24 24 25 26 28 27 27 26 25 26 23 24 23 24 23 21 21 20 20 18 18 19 19 17 15 11 12 13
38 34 29 28 23 23 21 29 24 29 21 24 27 25 24 23 29 29 21 24 23 25 26 26 25 25 24 24 25 25 25 25 24 23 22 21 21 21 20 21 21 19 18 19 20 19 17 18 16 14 13 11 8 5
37 27 26 24 23 20 19 24 28 29 22 21 19 19 23 24 25 19 17 18 21 23 23 23 24 23 23 22 19 20 22 23 21 21 22 20 18 17 18 17 17 18 18 17 16 15 14 12 12 11 7 0 -3 -4
22 20 18 13 18 17 11 16 17 21 12 15 14 13 18 21 15 13 14 16 16 16 17 21 20 19 17 16 17 18 21 20 17 15 17 20 18 17 15 15 14 14 15 11 9 7 7 6 4 3 2 -9 -1 -4
21 21 20 25 23 16 14 12 13 16 12 10 22 23 16 10 5 7 15 14 11 15 13 15 17 16 15 16 14 14 16 19 18 14 14 16 15 15 13 12 10 9 12 9 5 0 -1 -4 -8 -7 -9 -2 1 -2
20 18 25 29 26 23 18 20 20 14 9 15 12 10 16 1 3 14 19 19 17 17 19 18 19 17 15 15 16 16 15 16 15 15 16 16 14 13 7 1 1 5 7 -0 -6 -8 -7 -9 -11 -11 -12 -11 -9 -9
22 22 16 17 15 19 9 9 8 10 10 20 16 6 0 2 7 16 18 20 20 20 19 18 18 16 14 12 11 10 10 12 14 13 12 11 10 9 7 6 6 13 4 0 -2 -1 -4 -1 -3 -5 -6 -11 -9 -10
24 25 19 16 14 14 17 13 13 18 23 21 8 6 8 13 14 16 17 18 18 17 14 12 13 12 11 9 7 6 6 3 -2 -5 -10 -9 -8 -2 5 7 6 1 -5 -4 2 5 3 1 1 -4 -9 -10 -4 -7
19 19 14 9 8 12 15 16 9 13 18 13 14 14 13 11 13 15 15 14 12 9 7 9 9 7 0 -3 -2 1 -1 -2 1 -6 -11 -11 -6 -2 -5 -5 -2 0 2 -3 -1 0 2 -9 -7 -8 -7 -5 -13 -14
21 15 10 9 10 19 22 14 15 12 6 4 2 0 2 6 7 11 13 10 12 6 7 1 -2 -7 -3 -3 -8 -11 -7 -2 -3 -5 -7 -9 -12 -13 -13 -13 -12 -11 -10 -9 -9 -7 -5 -6 -7 -8 -10 -5 -7 -11
7 6 8 9 10 19 18 20 20 13 7 6 2 -3 -0 -2 -3 4 7 5 6 4 -1 -4 -3 -1 -6 -10 -11 -6 -0 -2 -3 -5 -3 -5 -6 -7 -12 -11 -15 -15 -16 -17 -17 -14 -12 -10 -9 -6 -3 -5 -8 -11
7 4 2 7 11 11 7 10 12 9 6 4 3 2 -0 0 -2 3 9 2 -2 -5 -6 -6 -6 -1 1 -2 -5 -5 -5 -9 -9 -1 -0 -0 -2 -3 -9 -12 -14 -14 -12 -14 -16 -18 -12 -13 -15 -14 -10 -8 -8 -11

GFSWCAN_sfc_temp_045.txt.gz
Temp
47 47 47 47 47 47 48 48 49 49 48 48 49 49 48 49 49 46 45 49 46 41 45 48 48 47 49 50 43 46 47 45 39 37 36 34 31 38 36 41 38 37 31 26 26 23 30 49 49 43 45 45 48 47
46 46 46 46 46 47 47 48 49 48 48 48 48 49 49 49 49 48 43 50 50 43 44 49 49 51 49 52 52 46 49 47 47 41 37 36 33 30 35 31 43 38 40 36 38 36 46 46 48 47 48 48 47 46
47 47 47 47 47 47 48 48 48 48 48 48 48 49 49 50 50 48 46 48 47 43 43 44 47 52 56 54 57 48 46 52 49 50 42 38 36 35 31 32 37 43 46 39 41 43 43 44 45 46 47 46 46 47
47 47 47 47 47 47 47 47 47 47 48 48 48 49 49 49 50 49 45 48 47 45 36 43 56 52 57 57 56 57 56 53 51 47 40 36 34 44 32 41 39 43 46 40 38 41 44 44 42 43 43 43 43 43
47 47 47 47 47 47 47 47 47 48 48 48 48 48 49 49 50 48 48 49 50 43 38 42 51 54 56 54 55 58 54 51 46 41 34 37 40 42 37 38 35 46 43 38 35 45 44 42 42 44 42 40 41 40
47 47 47 47 46 47 47 46 46 47 47 48 48 49 49 49 50 46 40 47 50 51 42 36 48 50 52 53 54 56 57 50 49 45 38 43 48 43 34 32 45 46 47 48 46 49 42 42 41 42 40 39 40 38
47 47 47 47 47 47 47 47 47 48 48 48 48 48 49 49 47 43 39 44 51 51 43 35 38 49 53 50 47 49 49 47 49 44 37 41 42 44 32 34 44 44 44 43 43 43 38 39 36 39 38 38 38 37
46 46 47 47 47 46 47 47 48 48 48 48 48 48 48 49 48 42 49 50 52 47 45 35 36 41 50 43 41 47 43 45 44 41 37 37 39 32 34 41 41 42 42 42 41 42 41 38 38 36 37 37 34 33
46 46 46 46 46 46 46 47 48 48 48 49 48 49 47 46 41 44 49 51 52 48 38 34 35 35 47 42 41 41 44 37 43 36 37 40 33 35 38 40 40 42 41 36 38 38 38 36 35 35 35 34 32 31
46 45 46 46 46 46 46 47 47 48 48 48 47 44 38 44 50 51 48 43 42 43 43 35 41 38 43 37 35 37 36 35 35 37 41 34 34 37 37 41 40 40 40 39 34 32 33 32 33 34 34 36 35 34
46 46 46 46 46 46 46 46 47 48 48 45 41 39 47 49 47 42 36 35 36 33 36 38 39 39 43 37 34 35 34 34 33 36 36 33 33 36 38 39 40 41 41 39 39 39 38 37 35 35 35 34 32 32
46 46 46 46 46 46 46 47 47 47 45 45 48 48 47 44 38 33 32 33 32 33 35 35 37 41 37 42 36 35 33 32 31 37 34 32 32 35 38 38 40 40 41 41 42 40 40 39 39 36 34 31 31 31
46 46 46 46 46 47 47 47 48 49 49 47 43 37 39 33 31 31 29 31 32 33 35 34 34 35 35 37 31 31 24 25 34 33 32 30 35 38 40 40 40 41 41 41 40 40 39 36 35 33 30 31 30 29
47 47 47 47 47 47 47 48 48 47 46 37 34 29 31 28 29 29 31 32 32 32 33 34 33 34 33 33 30 29 32 33 27 23 23 31 35 36 38 39 38 37 36 37 36 34 33 31 30 30 30 29 28 28
46 46 46 46 47 47 47 47 47 44 38 32 33 27 29 32 32 32 32 33 33 34 34 34 33 35 33 33 31 32 31 29 23 22 30 33 35 37 36 36 34 33 33 33 33 31 30 30 30 29 30 30 27 24
46 47 44 46 47 46 46 46 43 40 35 33 31 30 31 31 30 31 32 32 35 33 33 34 30 31 31 32 31 29 29 26 29 31 32 34 34 35 34 34 34 34 33 32 31 31 31 29 29 29 29 27 23 22
46 42 45 47 47 46 46 42 39 33 31 31 29 32 31 31 30 31 32 32 35 34 32 32 30 29 32 29 27 30 26 29 31 32 33 34 33 33 33 33 32 32 31 31 31 30 29 30 29 28 26 26 27 24
38 42 46 47 47 45 42 40 35 33 30 31 29 30 30 30 30 30 31 32 33 32 32 28 31 24 22 22 22 25 30 32 32 32 32 33 34 34 34 33 33 33 32 31 30 30 30 28 28 27 28 27 25 25
42 42 45 46 44 37 33 35 36 30 30 32 32 32 31 29 30 31 31 32 32 33 30 28 22 20 21 23 23 24 29 31 31 31 32 32 34 33 33 33 32 32 31 30 29 29 29 29 27 27 25 25 22 21
44 44 43 44 44 34 32 31 36 32 30 31 31 28 28 27 29 29 29 31 31 29 25 21 20 21 22 23 25 26 27 32 32 30 29 31 31 31 31 31 29 28 26 26 25 24 24 23 23 22 21 20 18 16
40 39 40 39 34 34 30 29 32 32 32 31 32 31 28 29 26 24 24 28 25 23 21 22 22 23 25 25 25 27 26 26 25 28 28 25 26 27 27 27 26 25 23 22 21 20 20 19 20 19 16 13 14 15
34 40 28 33 29 30 29 32 30 29 30 29 28 28 23 19 17 21 26 20 19 20 23 22 22 23 22 22 23 24 25 25 24 23 23 23 21 21 21 22 21 19 19 19 19 17 17 18 18 17 15 14 16 14
36 33 27 27 23 22 20 28 23 28 20 22 24 22 20 20 23 26 16 21 20 22 23 24 23 23 22 22 23 23 23 23 21 20 20 19 19 18 18 18 19 18 17 17 19 17 16 17 15 13 13 13 10 5
35 23 18 16 20 12 17 17 25 24 19 17 17 15 22 22 20 14 13 14 18 21 21 20 22 20 21 20 17 18 19 22 19 19 20 18 15 14 15 14 15 15 15 15 14 12 11 9 10 9 6 3 1 -0
22 19 16 11 15 15 9 11 13 16 9 11 12 13 20 18 9 8 9 13 15 14 15 18 18 17 14 14 15 16 18 18 14 13 14 18 16 15 13 12 11 12 13 8 6 6 6 5 4 2 3 -3 2 -3
14 19 19 12 13 13 10 8 9 11 9 11 17 20 11 6 2 4 13 12 10 14 13 13 14 14 14 14 13 12 13 17 15 10 11 13 12 10 8 7 7 7 9 2 -0 -4 -4 -5 -10 -9 -12 -7 -5 -10
12 12 21 27 22 20 15 13 16 10 11 14 10 3 6 -2 -0 12 18 18 16 16 18 17 16 13 12 12 13 13 13 14 13 12 12 10 9 9 3 -2 -1 5 6 -2 -7 -8 -6 -9 -12 -11 -13 -17 -15 -14
24 18 11 12 12 16 7 4 4 6 9 18 10 -1 -5 -3 4 13 16 19 17 18 16 14 13 11 8 8 8 8 9 9 9 7 6 6 5 5 6 6 6 9 2 0 -3 -9 -11 -5 -5 -5 -8 -8 -6 -13
16 15 16 7 9 11 14 8 9 16 19 14 -0 3 4 10 10 11 14 15 16 14 10 6 6 3 4 4 3 2 4 0 -3 -7 -11 -13 -11 -5 -2 -5 -5 -4 -5 -5 -1 6 7 1 -5 -9 -9 -11 -5 -9
16 13 9 1 5 10 14 7 5 4 13 9 12 12 10 8 11 14 13 10 8 5 0 -1 -3 -1 -10 -9 -7 -2 -2 -8 -9 -9 -13 -12 -8 -8 -16 -17 -15 -12 -14 -15 -13 -10 -3 -10 -7 -11 -12 -11 -14 -17
12 10 7 6 8 12 10 2 7 4 -1 -2 -5 -3 -1 4 6 9 9 5 5 1 1 -6 -8 -14 -9 -10 -14 -14 -9 -4 -6 -6 -7 -10 -13 -13 -14 -15 -17 -20 -20 -21 -21 -20 -16 -16 -16 -14 -11 -9 -8 -10
6 -1 5 4 10 16 14 10 8 2 -0 -4 -2 -9 -5 -6 -7 1 4 0 -3 -6 -6 -11 -9 -4 -7 -11 -13 -11 -6 -9 -11 -13 -12 -11 -12 -13 -14 -13 -17 -18 -18 -20 -22 -20 -19 -19 -18 -20 -20 -14 -10 -8
0 -2 -2 1 7 9 7 10 9 5 2 1 -0 -1 -3 -5 -7 -0 3 -4 -5 -9 -9 -11 -12 -10 -4 -8 -11 -13 -12 -15 -15 -4 -4 -2 -7 -9 -16 -19 -20 -20 -18 -20 -21 -21 -19 -19 -21 -18 -12 -11 -11 -10

GFSWCAN_sfc_temp_048.txt.gz
Temp
49 49 49 49 49 49 49 49 48 48 48 49 50 49 50 50 51 46 42 46 43 41 43 47 45 45 47 47 37 41 42 44 38 36 36 36 30 37 36 40 38 37 32 27 26 24 31 48 47 42 45 42 46 46
47 47 47 47 47 48 48 47 47 48 48 49 49 49 49 49 50 49 41 46 46 43 43 48 47 48 47 49 48 44 44 44 46 40 35 33 31 28 35 33 42 37 41 36 38 38 46 46 46 47 47 46 45 45
46 47 46 47 47 47 47 48 48 48 48 48 49 49 49 49 50 48 43 44 44 42 42 44 42 48 51 50 52 44 44 50 46 47 40 38 34 35 32 35 37 41 44 39 40 44 43 44 44 45 45 45 45 44
46 46 46 46 47 46 46 47 48 48 48 48 48 48 49 49 49 48 43 47 45 41 35 39 52 49 54 52 51 51 51 50 48 46 39 35 35 42 34 41 40 42 44 40 39 41 41 44 42 42 41 42 42 42
47 46 46 46 46 47 47 47 47 47 47 48 48 48 48 48 49 47 45 47 48 42 36 39 45 50 53 52 51 52 52 48 43 40 33 37 41 39 37 39 34 44 42 39 40 45 45 44 41 42 41 40 41 39
46 46 47 47 47 47 47 47 47 47 48 48 48 48 49 49 49 45 39 46 49 46 40 33 46 46 53 52 50 49 52 47 45 42 38 42 46 43 36 35 46 47 47 47 49 47 41 41 40 41 39 38 39 38
46 46 47 46 47 47 47 47 47 47 47 48 48 48 49 49 44 40 38 42 49 48 40 34 33 46 52 50 46 46 47 45 45 42 37 42 43 43 33 35 47 45 45 44 44 43 38 40 37 38 37 37 38 36
47 47 47 47 47 46 46 47 47 47 48 48 48 48 48 49 47 42 44 47 49 43 41 34 35 39 50 44 42 47 41 42 42 39 36 37 39 34 35 42 41 41 42 42 40 41 42 38 37 35 36 36 33 32
46 46 46 46 47 47 47 47 47 48 48 48 48 48 46 44 39 39 48 50 48 44 36 34 33 34 46 42 42 41 41 34 41 34 36 41 34 37 40 40 39 41 41 37 37 37 37 35 33 34 34 33 32 31
46 45 46 46 46 47 47 48 48 47 48 48 46 42 35 41 48 49 46 42 42 43 42 37 40 36 42 35 36 36 36 35 34 36 41 34 35 37 37 39 40 38 39 38 33 32 33 33 33 33 33 34 33 34
46 46 46 46 46 46 47 47 48 48 48 45 39 35 42 49 45 40 33 35 36 33 37 37 38 37 42 35 33 35 33 33 33 34 36 34 35 35 38 38 40 40 40 39 39 38 38 36 33 32 33 34 34 34
46 46 46 46 46 46 46 47 48 46 44 44 44 47 46 43 37 33 32 32 33 33 35 35 37 40 37 42 36 34 32 33 32 37 34 32 34 36 38 38 39 40 40 39 40 38 37 37 37 36 33 32 32 31
46 46 46 46 46 46 47 47 47 47 47 45 42 35 38 33 32 30 28 30 31 32 34 34 34 35 36 38 33 32 31 31 34 32 32 31 34 37 38 38 38 40 39 39 39 39 38 36 35 33 31 31 31 30
46 46 46 46 46 46 46 47 46 46 44 36 33 29 30 28 29 29 30 32 32 32 33 34 33 34 33 33 32 32 32 33 28 26 24 31 34 36 38 39 38 37 36 36 35 34 33 32 31 31 30 30 29 28
46 46 46 46 46 46 46 46 46 43 38 32 32 28 29 31 32 32 32 33 33 34 33 34 34 35 32 32 32 31 30 26 27 26 30 32 34 35 35 35 34 33 33 32 33 31 29 30 29 28 29 30 28 25
47 46 44 46 46 46 46 45 42 40 35 33 31 28 30 30 29 30 31 31 34 33 33 33 31 32 31 31 30 27 28 24 27 30 32 33 33 33 33 33 33 33 32 31 31 30 29 28 27 27 27 26 24 23
46 41 45 46 45 45 45 41 38 33 30 30 28 29 29 30 28 29 30 30 33 33 31 32 27 25 31 27 25 27 24 27 30 32 32 32 32 32 32 32 32 31 31 31 30 30 28 29 28 27 25 26 27 24
39 41 45 46 46 44 40 39 33 31 29 30 26 27 27 27 25 26 28 31 32 32 28 25 29 22 17 17 18 22 25 27 32 31 32 32 32 32 33 32 32 31 30 30 29 28 28 27 26 26 27 26 24 24
41 42 44 46 44 39 34 33 34 28 28 30 28 29 28 26 28 29 29 30 31 32 29 25 19 17 18 21 19 21 23 25 29 30 30 32 32 32 32 32 31 30 29 29 28 26 26 27 26 26 26 25 22 21
44 43 44 44 44 34 32 31 36 31 28 28 28 25 25 24 25 26 27 28 29 26 22 19 17 18 19 20 22 23 23 26 31 27 24 25 27 27 27 27 26 26 25 25 24 24 23 21 21 21 21 21 20 18
39 39 40 38 34 34 30 30 31 32 32 30 29 28 24 26 22 20 21 26 22 20 17 19 19 21 23 23 23 24 23 23 21 24 23 21 23 23 23 23 23 22 21 20 19 18 19 18 18 19 17 16 17 16
33 39 29 33 30 30 29 30 28 28 29 28 26 26 21 14 14 18 23 17 17 18 21 20 20 21 20 20 20 21 23 22 22 21 20 20 18 18 18 20 19 17 17 17 17 16 16 17 16 16 15 15 15 14
36 32 26 26 22 22 19 28 22 27 20 20 22 20 17 17 20 24 12 18 17 20 21 21 22 21 20 20 21 21 21 20 18 18 17 16 16 15 15 14 16 15 13 14 15 14 12 14 12 11 12 12 11 10
34 21 16 15 19 10 14 15 23 21 17 15 15 14 18 14 17 12 10 13 16 19 19 19 19 18 19 18 15 15 17 20 17 17 17 16 13 11 12 11 12 12 12 12 11 9 8 7 7 7 5 4 3 0
22 18 16 10 13 13 7 7 10 14 7 9 11 13 11 15 6 5 6 12 13 12 13 16 16 15 12 12 13 14 16 15 12 10 11 15 13 12 10 10 9 10 11 6 4 2 1 -1 -2 -4 -1 -9 -2 -7
17 19 18 8 11 12 8 10 11 5 7 12 10 14 5 3 -1 2 12 10 9 13 11 10 12 12 11 12 10 10 10 14 12 7 8 9 8 4 3 1 3 5 5 -6 -8 -10 -8 -10 -13 -9 -13 -9 -10 -16
16 13 20 24 21 18 10 9 13 8 8 6 6 1 -1 -6 -4 10 16 15 14 13 13 11 12 10 10 11 12 11 10 10 9 8 8 8 7 7 3 -3 -1 3 6 1 -5 -8 -8 -9 -12 -12 -15 -19 -19 -17
23 17 9 9 10 13 6 1 2 4 6 16 6 -3 -9 -8 2 11 14 16 14 14 12 10 9 8 6 6 7 6 5 5 5 3 3 3 2 1 -2 -4 -4 4 -6 -9 -9 -10 -9 -8 -6 -8 -10 -11 -9 -13
11 10 13 3 6 9 9 4 5 13 15 8 -5 -2 2 8 7 9 13 13 14 11 6 5 5 -2 -0 1 -1 -2 -1 -5 -6 -10 -15 -16 -14 -6 -7 -14 -14 -13 -15 -13 -6 1 3 0 -1 -6 -8 -8 -7 -8
10 10 6 1 4 8 5 5 -0 -3 9 5 9 10 8 6 9 12 10 8 6 -3 -10 -11 -13 -11 -14 -12 -11 -6 -7 -15 -13 -11 -16 -15 -10 -7 -14 -18 -18 -17 -22 -23 -22 -16 -7 -16 -12 -16 -16 -15 -16 -15
10 7 8 6 7 4 5 -3 -5 -3 -6 -5 -8 -6 -3 1 3 6 4 -0 -4 -10 -8 -10 -10 -16 -13 -14 -17 -17 -13 -11 -14 -13 -13 -13 -15 -18 -19 -18 -19 -23 -24 -23 -24 -24 -23 -23 -25 -25 -22 -18 -17 -14
3 -1 3 2 9 7 5 7 -5 -4 -6 -8 -6 -13 -10 -10 -10 -2 -0 -3 -9 -9 -10 -16 -13 -8 -11 -13 -18 -18 -12 -15 -15 -15 -13 -15 -17 -17 -18 -18 -23 -24 -24 -24 -26 -25 -24 -24 -26 -27 -27 -22 -20 -20
-4 -7 -5 1 6 6 7 8 5 1 -4 -4 -4 -6 -9 -9 -9 -3 -2 -9 -8 -11 -12 -14 -14 -14 -11 -14 -15 -17 -15 -19 -18 -7 -4 -6 -4 -8 -20 -23 -25 -24 -22 -24 -26 -26 -24 -23 -24 -25 -24 -26 -24 -23

GFSWCAN_sfc_temp_051.txt.gz
Temp
49 48 48 49 49 49 49 49 48 49 49 49 49 50 50 51 51 49 42 47 45 40 43 45 45 45 47 47 39 43 45 45 40 36 36 37 35 41 41 43 41 41 38 35 35 34 37 52 51 48 55 52 53 52
48 49 49 49 49 49 49 49 49 49 49 49 49 50 50 51 51 49 40 46 46 40 42 48 48 49 50 55 48 46 46 45 47 42 39 38 35 35 41 39 45 40 45 43 45 45 53 52 56 55 54 55 51 53
47 47 48 48 49 49 49 48 48 48 48 49 50 50 50 50 50 47 42 42 42 36 40 43 43 50 51 50 56 45 45 51 48 50 43 42 37 40 34 37 42 44 47 45 47 51 51 51 52 52 53 54 53 55
46 46 46 47 47 47 47 47 48 48 48 48 48 48 48 49 49 48 41 43 43 39 34 41 51 47 53 52 52 54 53 51 51 49 41 38 38 45 39 45 44 46 47 44 45 48 47 50 50 52 50 49 48 50
46 46 46 46 46 46 46 47 47 47 47 48 48 48 48 49 49 46 44 45 46 40 34 38 49 51 51 51 50 52 52 50 47 42 37 41 43 42 39 42 40 47 46 43 44 53 53 55 54 48 46 47 47 45
46 46 46 46 47 47 47 47 47 47 47 48 48 48 49 49 47 44 38 45 47 44 35 32 45 46 50 51 50 49 51 49 49 46 42 45 48 45 38 40 49 51 50 51 52 50 44 42 44 47 45 44 44 44
46 46 46 46 47 47 47 47 47 47 47 47 47 48 49 48 45 41 38 44 47 43 38 35 36 45 50 51 48 49 50 49 48 46 41 45 45 46 36 39 50 50 50 48 46 47 43 44 43 42 42 41 41 41
47 46 47 46 46 46 46 47 47 47 47 48 48 47 47 48 47 43 45 48 47 42 40 33 34 39 49 43 43 48 44 46 45 44 41 42 41 40 39 46 49 46 45 44 44 44 46 41 40 38 39 39 37 36
46 46 46 46 46 46 46 47 47 47 48 48 48 48 45 42 38 41 47 48 47 43 34 33 33 34 46 41 41 41 44 38 43 37 39 43 36 37 44 46 45 44 44 42 40 40 40 39 37 37 37 37 35 33
45 46 46 46 46 46 47 47 47 48 48 48 45 40 35 39 47 48 45 41 40 41 40 33 39 37 43 37 36 38 36 35 35 37 41 37 40 41 41 42 43 42 41 41 36 33 34 35 35 36 36 37 36 35
46 46 46 46 47 46 47 47 47 47 47 42 38 36 41 48 44 39 34 34 35 33 36 37 37 37 43 37 34 35 34 34 33 37 38 36 36 38 39 40 41 42 41 40 41 40 40 39 36 34 35 35 35 36
46 46 46 46 46 47 47 47 48 45 43 43 43 44 44 41 35 32 32 33 32 32 35 35 37 40 38 42 37 34 33 33 32 37 35 33 35 37 39 39 39 41 41 40 41 39 38 38 38 37 36 35 35 32
46 46 47 46 46 46 48 47 46 46 46 45 41 36 37 33 30 30 27 30 31 33 34 35 33 35 37 38 33 33 32 32 33 32 30 30 35 37 37 38 37 38 38 37 37 37 37 36 36 35 32 31 30 29
46 46 46 46 46 46 46 46 46 45 42 33 33 28 30 28 28 29 30 32 32 32 33 34 33 34 33 33 32 32 32 32 30 26 26 32 32 34 36 37 37 35 35 35 34 33 32 32 30 30 30 30 28 27
46 46 46 46 46 46 46 45 45 42 35 32 32 27 28 31 31 32 32 32 32 33 33 33 33 35 32 32 32 33 31 27 27 26 29 32 33 34 33 34 33 32 32 32 32 30 29 29 29 29 29 29 27 26
46 45 44 46 46 46 45 44 42 40 33 31 28 24 28 27 25 27 27 29 33 32 33 34 33 32 30 31 29 25 27 22 25 28 31 33 32 32 32 32 32 31 30 30 30 30 29 28 27 27 27 27 26 26
45 41 46 46 46 45 44 41 38 33 31 29 26 26 25 25 24 25 27 28 32 33 29 31 23 23 30 24 21 24 20 22 25 28 32 32 31 31 31 31 31 31 30 30 29 28 28 27 27 27 25 25 25 24
39 44 46 46 46 43 40 38 33 32 27 27 24 24 24 24 23 24 26 29 31 30 29 24 28 20 16 17 17 19 22 24 28 28 28 31 32 32 32 31 31 30 29 29 29 29 28 27 26 24 24 25 25 25
44 45 46 45 44 38 33 33 34 25 25 27 26 27 25 24 26 27 28 30 31 31 28 24 17 15 15 18 17 19 21 22 25 25 24 25 27 28 28 28 27 26 26 26 25 25 25 26 26 25 25 24 22 22
45 44 44 44 44 34 32 32 36 30 25 26 28 24 24 23 24 24 25 27 27 24 19 16 15 16 17 19 20 21 22 24 28 23 21 22 24 23 23 24 23 24 23 23 23 23 23 21 22 22 23 22 21 19
42 40 41 40 34 34 30 30 31 32 30 28 29 27 24 24 21 19 19 25 20 18 15 17 18 20 21 21 21 22 21 21 19 21 20 18 21 21 21 21 21 21 19 19 18 17 17 17 18 19 18 17 18 18
35 40 32 34 31 30 28 29 29 29 28 27 25 26 18 15 12 16 21 15 14 16 18 19 18 19 19 18 19 20 20 20 19 18 18 18 15 15 16 17 17 15 15 15 15 14 14 15 16 16 15 15 16 15
36 32 26 26 23 23 20 28 22 26 19 19 22 19 16 14 19 23 11 16 16 19 20 20 20 20 18 19 19 19 19 18 16 16 15 14 14 13 13 12 14 13 12 12 14 12 10 11 11 10 11 11 11 10
33 20 15 14 19 11 15 15 23 21 17 16 16 14 19 15 17 12 9 12 15 18 18 18 19 17 18 16 14 14 16 18 15 14 16 14 11 10 11 11 11 11 11 11 10 8 7 6 6 7 5 5 5 5
21 18 16 10 13 13 7 8 11 15 7 10 13 13 10 15 6 5 7 12 13 12 12 15 15 14 12 11 12 12 14 14 11 9 9 12 12 11 10 10 8 8 10 7 4 4 3 2 2 3 3 2 3 2
15 16 17 14 10 13 13 14 10 4 11 10 9 11 7 4 1 4 11 11 11 12 10 10 12 11 10 11 10 10 10 13 12 7 7 8 8 6 5 4 4 5 7 3 4 3 3 2 1 1 2 2 -5 -2
13 10 18 22 19 16 9 8 12 8 5 4 6 0 0 -5 -3 10 15 15 12 11 11 10 12 12 10 10 10 9 10 9 8 7 8 7 6 6 4 1 0 3 5 1 1 0 0 0 -0 0 -1 1 0 -3
12 15 7 6 8 12 3 0 1 2 5 14 5 -4 -8 -5 3 10 13 13 12 13 10 9 8 8 7 6 6 6 7 6 5 6 6 5 3 2 -1 -1 -2 1 -3 -3 -0 -0 2 1 0 -0 -1 -2 -3 -1
8 7 11 1 4 6 7 1 5 10 12 6 -4 -3 2 8 7 9 12 14 14 11 7 5 2 1 2 3 0 -0 0 2 2 -4 -6 -5 -4 -0 -1 -3 -3 -4 -6 -4 -3 4 4 2 -1 -3 -5 -5 -5 -6
7 9 5 1 4 4 1 2 -2 -3 7 6 9 9 7 6 8 11 10 9 6 1 -3 -5 -6 -2 -3 -2 -3 -1 -3 -6 -4 -3 -4 -4 -3 -1 -4 -5 -5 -6 -9 -7 -6 -4 -4 -6 -4 -7 -8 -8 -7 -7
8 5 5 6 3 0 -1 -6 -9 -4 -5 -4 -7 -5 -1 3 5 7 6 1 -2 -5 -1 -2 -4 -9 -4 -6 -5 -6 -4 -4 -11 -7 -6 -5 -6 -5 -5 -7 -8 -10 -10 -10 -10 -9 -8 -9 -11 -11 -10 -11 -12 -11
0 -2 2 2 6 3 4 1 -7 -5 -8 -6 -7 -12 -7 -6 -8 -1 -1 -1 -0 -1 -7 -9 -8 -3 -6 -7 -11 -10 -12 -7 -6 -6 -6 -5 -4 -6 -7 -8 -11 -11 -10 -10 -11 -11 -12 -11 -11 -12 -12 -12 -13 -13
-6 -8 -4 0 4 2 4 5 2 -1 -6 -6 -6 -9 -10 -6 -6 -2 -1 -8 -3 -3 -5 -6 -6 -8 -9 -10 -7 -7 -12 -8 -12 -7 -4 -4 -6 -5 -9 -10 -11 -10 -9 -10 -11 -12 -11 -11 -11 -12 -12 -14 -14 -13

GFSWCAN_sfc_temp_054.txt.gz
Temp
49 49 49 48 48 49 48 48 49 49 49 50 50 50 50 50 49 50 48 55 52 47 51 53 55 50 53 53 47 53 51 52 50 44 45 46 43 48 50 55 48 47 45 41 47 40 40 62 61 58 67 68 70 67
48 49 49 48 48 49 49 49 49 49 50 50 49 50 49 50 50 51 42 52 55 48 43 48 51 52 50 62 57 55 54 55 55 50 49 51 42 42 50 43 55 46 53 52 52 55 66 64 69 70 70 71 66 67
48 49 49 49 48 48 48 48 48 48 49 49 49 49 50 50 51 51 44 46 51 46 48 47 44 53 56 57 62 53 56 61 58 63 55 53 44 51 41 48 52 53 53 50 52 63 62 64 69 66 67 68 67 69
47 47 48 48 48 48 48 48 48 48 49 49 49 49 49 50 48 50 46 50 52 48 38 44 55 49 56 58 58 60 62 62 62 59 53 46 44 57 50 55 52 59 54 54 55 61 61 62 66 69 64 63 62 66
46 46 47 47 47 47 47 48 48 48 48 48 48 49 49 48 49 49 51 53 56 49 36 42 49 53 51 51 53 58 58 59 56 52 43 46 55 52 51 51 52 58 56 50 52 62 60 69 68 68 64 60 62 61
46 46 46 46 47 47 47 47 47 47 48 48 48 48 48 49 50 49 38 50 54 54 44 34 50 49 48 48 51 56 58 57 57 54 52 57 58 54 44 47 60 62 63 64 62 59 61 56 57 64 62 61 61 59
46 47 46 46 46 46 46 47 47 47 47 47 47 47 48 49 52 46 44 50 51 52 43 35 40 50 53 48 52 52 56 56 55 53 52 54 55 53 45 45 60 64 64 63 59 54 54 53 56 54 56 57 54 58
46 46 46 47 47 47 47 47 47 47 47 48 48 47 48 49 51 48 50 48 51 46 41 33 37 43 52 44 43 50 47 49 52 52 54 52 55 51 46 57 61 63 59 57 55 55 53 52 50 50 52 51 49 49
46 46 46 46 46 47 47 47 47 47 48 48 48 48 48 48 42 44 47 48 49 43 35 33 35 35 47 43 43 42 46 39 52 44 48 53 49 43 54 58 60 60 56 60 55 53 50 50 49 46 48 46 46 43
46 46 46 46 46 46 46 47 47 47 47 48 47 44 37 41 48 46 43 39 38 40 42 37 38 34 43 39 38 42 40 37 35 41 50 43 47 58 52 51 52 52 54 51 47 45 45 44 45 46 46 47 46 43
46 47 46 46 46 46 47 47 47 48 48 48 44 41 48 48 48 44 37 37 41 36 42 41 39 33 41 39 37 41 39 37 35 37 42 40 42 48 46 49 51 51 52 53 53 51 51 50 47 44 43 42 41 40
47 47 46 47 46 47 47 47 48 50 49 46 45 50 48 45 39 34 33 34 34 36 41 38 40 41 42 49 44 39 37 35 34 37 35 34 33 37 40 42 46 47 49 48 48 47 46 46 45 43 42 41 41 39
46 46 47 47 47 47 47 47 46 46 46 46 47 42 42 36 31 29 28 31 33 36 38 38 36 41 42 48 37 36 34 34 35 33 29 32 35 35 36 39 39 42 43 42 39 40 40 41 42 40 34 33 32 31
46 46 46 47 46 46 46 45 45 45 44 36 34 30 31 30 31 32 32 33 33 33 35 39 35 35 35 37 34 34 33 35 33 30 29 32 32 33 34 34 34 33 32 33 33 32 32 31 31 31 31 31 30 28
46 46 46 46 46 46 45 45 44 43 37 32 31 26 28 30 30 31 32 34 34 34 34 35 34 35 33 33 34 34 32 28 29 26 30 32 33 33 33 33 32 31 31 30 31 30 30 30 29 28 30 30 29 28
46 47 47 46 46 46 45 45 43 40 34 30 26 23 26 26 25 27 27 28 32 32 33 34 33 33 30 31 29 26 28 23 25 28 30 33 33 32 32 31 31 31 31 31 31 30 30 29 28 28 28 28 28 28
46 43 46 45 45 45 45 42 39 33 31 28 25 26 24 24 23 24 26 27 32 33 31 31 25 24 34 27 23 25 21 23 26 29 28 32 32 32 32 32 31 31 31 30 30 30 30 30 30 29 26 27 28 27
44 45 45 45 46 44 43 41 36 33 26 26 24 24 25 25 23 25 28 32 33 32 31 25 31 22 20 19 19 21 23 26 29 27 26 28 29 30 30 29 30 30 30 30 30 30 29 28 27 26 27 27 27 26
45 45 45 45 45 42 37 37 40 27 26 28 27 28 28 26 29 30 31 32 34 35 31 27 20 17 17 20 19 21 23 24 26 25 25 25 25 26 26 26 26 27 27 28 28 27 28 28 28 28 27 27 25 26
44 44 44 44 46 39 35 35 42 33 28 29 32 28 27 26 28 28 29 31 30 27 21 19 17 18 18 20 22 22 23 26 28 23 21 23 24 23 23 24 25 25 25 24 24 25 25 24 24 24 24 25 24 23
40 39 42 45 41 40 36 35 32 34 33 31 34 33 28 30 25 23 23 30 23 20 17 20 20 21 22 22 24 23 22 22 20 22 20 19 21 22 22 22 22 22 22 21 20 20 20 20 21 22 22 21 21 22
39 42 40 41 38 37 35 36 35 37 36 34 33 32 26 23 22 22 26 20 17 18 21 21 21 22 21 19 20 21 21 20 20 19 18 18 16 16 17 19 20 18 18 18 18 17 16 17 19 19 19 19 20 18
40 40 35 34 31 32 29 38 31 32 28 29 32 26 24 23 24 29 18 20 19 21 23 23 22 22 21 21 22 21 21 20 18 17 17 16 17 17 16 16 17 16 15 15 17 16 14 14 14 15 16 16 16 15
38 28 25 26 30 24 29 26 31 29 28 27 25 20 20 22 26 21 14 16 18 21 21 21 23 22 22 20 18 18 21 22 20 20 21 19 16 15 16 15 16 15 16 16 15 14 13 13 13 14 13 13 12 12
27 23 27 23 28 25 22 22 22 25 21 22 21 19 19 25 16 14 13 17 18 17 18 20 20 21 19 18 19 18 19 20 18 16 17 19 19 18 16 16 14 13 16 14 13 12 12 12 12 12 11 10 8 9
18 21 23 22 22 23 21 19 18 18 21 18 17 19 21 17 12 11 15 17 17 17 16 17 18 17 16 18 17 16 16 20 19 14 13 15 15 14 13 12 12 10 12 12 11 11 10 10 9 8 9 9 6 7
19 19 24 26 26 23 20 21 23 20 16 15 16 14 15 8 8 13 18 19 18 17 17 18 20 19 17 16 16 16 16 16 14 12 13 13 12 12 11 8 6 8 11 9 9 8 8 8 8 7 7 8 8 6
23 23 16 17 18 21 14 16 15 14 16 19 18 7 7 8 10 16 18 18 18 17 16 16 16 17 16 14 15 16 14 12 11 12 13 12 12 10 8 9 7 6 8 7 9 9 8 7 6 6 5 4 4 5
19 21 20 8 14 15 13 14 14 15 16 17 12 9 9 13 14 17 17 18 19 18 15 13 11 13 13 12 11 12 12 14 10 6 6 7 8 7 9 8 8 7 7 8 7 8 8 7 4 3 3 3 4 5
18 21 17 14 10 11 12 13 13 13 15 15 16 13 12 12 14 17 18 17 16 14 12 12 11 14 11 12 10 9 8 8 7 8 7 6 6 7 7 6 6 5 5 6 5 6 4 5 5 5 3 3 2 2
19 22 17 16 13 14 14 13 14 14 13 12 13 12 10 12 13 14 13 13 11 10 12 10 9 10 11 9 10 9 7 7 3 4 6 7 7 7 6 5 5 5 5 4 3 3 2 3 3 1 1 -1 -2 -2
16 15 16 12 12 13 14 16 15 14 13 13 10 10 9 10 8 11 12 13 12 12 6 10 11 11 8 8 6 7 -3 6 6 5 2 6 7 5 5 5 4 4 4 3 2 2 0 -0 1 -1 -1 -1 -3 -3
14 16 16 14 12 11 15 16 14 11 12 11 10 9 10 11 7 11 9 10 13 14 12 12 11 9 7 6 7 6 1 6 -2 -2 0 1 -2 0 3 5 4 3 1 2 2 1 -1 -1 -1 -2 -2 -4 -4 -4

GFSWCAN_sfc_temp_057.txt.gz
Temp
48 48 49 49 50 49 48 48 48 49 49 50 50 50 50 50 50 48 51 59 54 49 54 57 58 52 55 57 49 55 53 53 51 43 45 47 47 53 50 55 50 45 44 42 47 44 41 68 68 60 68 74 75 75
48 49 49 49 49 48 48 48 48 48 49 49 50 50 50 50 50 49 48 57 59 50 48 57 54 55 56 62 60 58 55 56 58 52 52 53 46 47 51 45 62 48 55 51 55 55 67 68 68 74 77 75 75 75
48 49 50 49 48 48 48 48 48 48 49 49 49 50 50 49 49 51 50 54 53 47 47 51 51 53 53 58 61 52 58 64 61 66 59 54 47 55 43 48 55 60 63 56 57 64 67 70 72 72 75 75 77 77
47 48 48 48 48 48 48 48 48 49 49 49 49 49 49 49 50 52 50 54 54 50 38 46 61 56 53 55 55 60 61 67 67 64 57 51 48 62 52 55 54 59 61 58 59 65 67 70 68 69 73 74 73 73
47 47 48 47 47 48 48 48 48 49 49 49 48 49 49 50 51 51 53 53 58 51 41 46 55 58 57 49 48 55 58 58 61 55 50 48 58 57 59 57 54 62 60 54 53 64 62 64 71 71 73 72 70 70
46 47 47 47 47 47 48 48 48 48 48 48 48 49 48 50 49 47 38 49 54 52 49 41 54 55 59 53 51 53 54 57 60 57 53 59 64 59 48 49 61 66 68 68 64 68 67 70 66 68 71 73 72 69
46 46 47 47 47 47 47 47 47 48 48 47 47 48 49 50 52 43 44 54 55 60 49 40 43 53 56 51 51 51 54 56 56 55 52 56 58 59 50 47 61 67 68 69 69 65 59 63 65 64 64 70 65 68
46 46 46 47 47 47 47 47 47 47 47 47 48 49 48 47 48 49 54 52 57 52 52 38 35 40 51 40 40 53 51 53 53 53 55 52 57 54 46 58 62 65 67 66 65 67 62 60 59 60 61 60 60 62
46 46 46 46 46 46 46 47 47 47 47 47 48 49 47 46 46 47 49 50 56 51 41 35 33 34 45 43 43 46 50 44 56 48 50 53 50 44 55 60 62 64 62 64 66 65 63 58 60 58 56 55 56 54
46 46 46 46 46 47 47 47 47 47 47 48 50 49 42 47 46 47 41 40 47 48 43 35 41 34 36 38 40 40 44 43 39 44 55 47 48 56 43 51 58 57 57 60 55 55 56 55 57 55 54 55 55 53
46 46 46 46 46 46 47 47 48 48 48 54 48 42 49 47 43 42 39 37 38 35 43 42 42 34 39 36 37 42 38 39 34 38 45 43 43 38 38 43 51 55 56 57 58 57 56 57 57 53 52 52 52 49
47 47 46 46 47 47 47 48 48 51 50 47 50 51 46 42 41 35 35 38 37 37 43 41 41 45 43 44 40 39 36 37 34 38 35 29 33 37 36 37 42 45 50 52 53 53 51 52 53 52 50 47 45 41
46 46 47 47 47 47 46 46 46 46 50 54 51 44 45 39 30 30 28 32 34 39 38 40 37 45 45 46 36 39 36 34 37 33 31 32 36 36 35 35 36 37 38 40 40 42 40 38 39 37 34 34 34 33
46 46 46 47 46 46 46 46 46 46 46 37 34 31 32 31 29 29 30 31 34 34 38 41 38 37 37 36 34 34 33 35 33 31 28 32 33 33 34 34 33 31 31 31 31 31 30 30 30 30 30 30 29 28
46 46 46 46 46 45 45 45 45 48 42 32 32 24 28 30 31 31 32 33 34 33 34 36 35 35 34 34 34 34 33 28 29 27 29 32 33 34 33 33 32 31 31 31 31 31 30 30 30 30 30 30 30 28
47 47 44 45 46 46 46 46 46 47 38 31 27 24 27 29 28 29 29 30 33 32 33 34 34 33 31 33 29 26 28 22 24 28 30 32 33 33 32 32 32 32 32 31 31 30 30 29 28 28 29 29 28 28
47 45 45 46 46 45 46 44 41 33 31 28 26 26 24 25 24 26 28 30 32 32 31 32 27 25 33 27 23 25 22 25 27 27 29 30 29 30 31 31 31 31 31 31 30 30 30 30 30 28 26 27 27 27
47 47 46 46 49 48 45 42 35 31 25 26 24 25 26 26 25 26 29 31 34 32 30 25 29 23 21 20 19 22 25 29 28 26 25 27 28 28 29 29 29 30 30 29 30 29 29 28 28 27 28 28 28 28
46 46 44 45 47 46 39 38 41 28 26 28 27 28 28 26 28 30 31 31 32 33 30 27 20 18 19 22 21 24 25 27 25 26 25 25 25 26 26 26 26 26 27 27 27 26 27 28 28 29 29 29 27 28
44 43 44 45 48 44 37 36 45 35 30 32 34 31 30 28 30 31 31 34 33 30 24 20 18 19 20 22 24 24 26 30 28 24 22 24 25 24 24 25 25 25 25 25 25 26 26 25 26 26 26 26 25 23
44 43 45 50 46 43 38 37 36 37 36 33 37 35 31 33 28 27 27 31 25 23 20 22 22 23 24 25 26 25 24 25 23 23 22 20 23 23 23 23 23 23 22 21 20 20 21 20 22 23 22 21 21 22
46 43 46 46 41 41 39 42 39 42 39 37 35 35 29 26 25 25 29 23 19 21 23 22 23 24 23 21 22 24 24 24 24 23 22 21 19 19 19 21 20 18 19 19 19 18 18 19 21 21 21 21 21 19
43 46 41 40 34 34 30 44 33 36 30 32 35 29 27 26 28 33 22 23 21 24 26 25 24 25 24 25 26 25 26 25 23 22 21 21 21 21 20 20 20 19 17 19 21 19 17 18 18 19 19 19 20 19
42 32 30 30 33 27 33 30 37 34 32 30 27 23 24 26 31 25 18 19 22 25 25 25 27 26 26 24 22 23 26 27 25 25 26 24 21 20 21 20 20 21 21 21 20 18 19 17 17 18 16 16 15 16
31 25 30 26 32 29 27 27 27 29 25 27 23 23 23 30 22 19 17 20 21 21 22 25 26 26 24 23 23 22 24 25 22 20 21 24 24 24 21 20 17 17 19 18 17 16 15 16 15 15 14 12 11 12
22 25 26 27 27 27 27 24 24 24 25 23 22 25 27 24 18 15 19 20 20 20 20 22 22 22 21 23 21 19 20 25 24 18 17 19 19 19 17 15 15 13 16 16 15 14 13 13 12 12 12 12 9 10
23 24 27 33 32 30 27 28 29 26 22 21 23 21 22 15 14 16 21 23 21 21 23 24 25 23 21 20 20 20 20 19 17 17 18 17 17 16 14 12 9 11 15 14 14 13 12 11 11 10 10 11 10 9
26 26 20 23 24 27 21 22 21 20 21 24 25 14 14 15 15 20 21 22 22 23 22 22 23 23 21 20 21 21 19 17 16 17 18 17 16 15 14 14 11 10 13 11 12 12 11 10 10 9 8 8 7 10
24 26 24 15 20 19 18 20 20 20 21 24 19 16 14 17 20 19 20 22 23 22 19 18 17 19 18 18 17 17 17 18 15 9 8 12 13 11 14 13 13 12 13 13 11 10 10 9 8 7 8 8 10 10
22 28 21 17 15 15 16 20 17 18 21 21 20 17 16 16 18 23 22 21 20 19 19 19 19 20 17 18 15 13 14 14 13 14 12 10 10 12 12 11 11 11 11 11 10 11 8 10 9 10 8 8 7 6
28 27 22 20 16 17 18 20 20 21 20 18 20 18 15 15 17 20 20 20 19 17 17 15 16 18 16 15 16 14 11 11 8 9 11 12 12 12 10 9 10 10 11 10 8 8 7 8 8 7 6 5 3 3
24 23 19 15 15 18 21 22 21 20 20 19 16 17 15 17 14 16 18 19 17 17 12 17 16 15 14 14 12 10 7 11 11 10 7 11 11 10 11 10 10 10 9 8 8 7 6 5 6 5 5 4 3 1
23 22 21 19 16 16 20 21 20 17 19 17 16 17 17 17 13 16 17 19 19 19 17 18 17 15 12 12 12 11 9 11 6 5 5 4 2 3 7 11 10 9 7 7 7 7 5 4 4 3 3 2 1 1

GFSWCAN_sfc_temp_060.txt.gz
Temp
48 48 48 48 49 49 49 49 49 49 49 49 49 49 49 50 50 48 44 49 46 44 51 50 50 48 52 54 46 54 51 51 42 41 42 44 42 48 48 54 46 42 38 37 41 36 36 66 66 57 62 67 72 72
47 48 49 49 50 48 49 48 47 48 49 49 49 48 49 49 49 50 43 49 52 47 46 55 55 54 59 55 52 55 53 48 51 46 49 49 44 45 49 41 60 44 51 45 46 48 63 63 64 67 68 67 69 69
48 49 50 49 48 48 48 48 48 48 48 48 49 49 49 49 50 50 48 48 47 43 46 49 49 57 60 60 60 48 55 61 55 59 56 53 45 53 40 44 50 58 59 51 51 58 60 62 66 67 69 68 72 74
47 48 48 48 48 48 47 47 48 48 48 49 49 49 48 49 50 50 46 49 48 48 38 47 61 54 59 59 57 54 52 50 59 60 53 46 45 59 45 52 51 57 60 55 55 61 61 64 67 66 66 70 71 73
47 47 47 48 48 48 48 48 48 48 49 49 49 49 49 49 50 49 50 50 55 49 40 44 55 57 58 56 55 54 50 48 49 43 46 43 53 55 55 55 52 61 57 51 49 61 58 60 66 69 67 69 71 70
47 47 47 48 48 48 48 48 48 48 49 49 48 48 49 49 50 49 40 47 51 55 46 36 53 51 54 54 54 52 49 48 51 47 47 56 62 56 44 46 59 62 63 63 59 65 64 67 67 68 64 65 67 70
46 47 47 48 47 48 48 48 48 48 48 48 49 48 49 50 52 44 42 49 54 57 48 41 44 53 53 52 50 51 52 49 49 50 49 54 55 55 46 44 59 63 65 65 67 65 62 62 60 62 61 63 64 68
46 46 46 47 47 47 47 47 47 47 47 48 48 48 48 49 49 47 53 52 55 50 52 40 39 44 53 43 42 52 47 48 50 50 53 51 55 52 45 56 60 63 64 63 64 66 64 64 62 61 61 60 59 59
46 46 46 46 46 46 47 47 47 47 47 48 48 49 48 46 43 46 50 53 56 50 42 36 35 33 45 44 45 47 51 41 52 44 47 50 47 42 43 43 49 54 54 55 59 61 65 61 60 59 58 56 54 53
46 46 46 46 46 46 46 47 47 48 49 50 50 46 39 44 48 50 49 46 47 48 45 35 42 34 36 38 41 44 46 42 39 45 52 44 43 43 41 40 42 47 52 55 52 52 52 53 56 57 56 55 54 54
46 46 46 46 46 46 46 47 47 48 48 50 44 38 46 48 47 44 37 38 41 36 43 43 43 35 37 32 35 44 36 41 35 42 41 41 35 34 38 38 39 43 47 52 54 54 54 52 53 53 53 52 52 50
47 46 47 47 46 46 46 47 47 48 50 47 48 50 47 41 39 36 34 37 38 37 44 41 40 41 37 37 33 36 34 37 33 40 37 30 31 36 35 35 36 38 41 43 44 43 43 44 46 44 39 36 35 34
46 47 47 46 46 46 46 47 47 47 51 53 48 42 42 38 32 31 29 33 33 34 38 38 36 39 40 39 33 35 33 32 37 33 28 29 33 34 34 34 34 34 34 34 34 34 34 33 34 34 31 31 30 29
46 46 46 46 46 45 46 46 47 49 50 39 35 30 31 29 30 28 28 30 33 33 32 34 37 35 36 34 32 32 32 34 32 28 24 28 31 32 33 33 33 30 30 30 30 30 29 29 29 30 29 29 28 26
46 46 47 46 45 45 46 46 47 50 42 32 33 25 26 30 31 31 32 32 34 34 32 35 35 36 34 33 33 34 32 25 25 23 26 28 31 32 32 32 32 31 30 30 30 29 28 28 28 28 28 28 27 26
47 47 45 45 46 46 46 48 49 47 39 32 27 24 27 28 27 29 30 30 35 32 33 34 33 33 31 32 29 25 26 19 22 25 27 29 29 30 30 31 30 30 30 29 29 28 28 27 26 26 27 27 27 26
48 44 45 46 46 45 46 46 42 34 32 29 25 28 27 27 25 27 29 30 33 30 31 32 27 25 34 27 22 25 21 23 25 25 26 27 27 28 29 29 29 29 29 29 28 28 27 28 28 27 25 26 26 26
46 48 46 46 47 47 46 43 36 32 24 26 25 26 28 28 27 29 31 32 34 33 32 26 32 23 19 19 19 23 26 25 25 24 23 25 26 26 26 26 27 27 26 27 28 28 28 27 27 26 27 27 26 26
47 47 45 46 46 46 39 38 40 27 26 28 28 28 28 27 28 30 31 31 31 32 30 25 19 17 17 20 20 22 25 24 22 23 23 24 24 25 25 25 24 24 25 25 25 25 25 25 26 26 26 26 25 26
43 44 44 45 47 44 37 36 44 35 29 30 30 28 28 26 28 26 26 29 27 24 19 17 16 17 19 21 23 23 25 28 25 22 21 23 24 23 22 23 23 23 23 22 22 23 23 23 23 23 23 23 22 20
44 46 45 50 47 44 40 39 37 37 36 32 35 33 29 31 26 24 25 29 23 22 18 20 20 21 23 24 25 25 24 25 23 23 21 19 22 22 21 21 22 21 20 19 18 18 19 19 21 22 20 19 19 21
47 44 46 46 41 41 39 42 39 41 37 35 35 34 29 26 25 25 28 22 20 20 23 23 23 23 23 22 23 24 23 23 23 23 22 22 19 19 20 20 20 18 19 18 18 17 17 18 21 20 20 20 19 18
44 46 42 40 33 34 31 44 33 37 31 32 34 29 27 26 29 34 21 22 22 25 26 25 25 25 24 25 26 26 26 25 23 22 22 22 22 22 21 21 22 19 18 19 21 19 17 18 17 17 18 18 18 17
43 34 31 32 34 28 34 31 38 34 33 30 28 23 25 27 32 25 17 19 22 26 26 26 27 25 25 24 23 24 26 27 25 25 26 23 20 19 19 18 19 20 21 21 19 17 17 16 16 15 14 14 14 14
32 26 31 28 34 31 29 28 29 30 25 28 25 24 25 30 23 20 18 19 21 22 23 26 26 26 23 22 22 23 25 25 21 18 20 23 23 23 19 17 16 17 19 17 16 14 14 15 14 14 12 10 10 11
23 26 28 29 29 29 29 25 26 26 26 24 23 26 28 25 19 16 19 20 20 21 22 23 23 21 21 22 20 18 19 25 22 16 17 18 18 18 16 14 12 12 16 16 14 14 12 12 12 11 11 10 6 9
24 24 29 36 34 32 29 30 31 27 24 22 24 24 24 17 14 17 22 23 20 22 24 25 26 23 21 20 20 20 19 19 17 17 18 17 17 16 13 10 8 10 14 14 13 12 11 10 10 10 10 10 9 9
27 28 21 25 25 29 23 24 23 21 22 26 25 16 16 16 15 20 21 23 23 24 23 23 22 23 21 21 21 21 20 17 17 19 17 17 17 16 15 13 12 13 12 11 12 11 10 10 9 9 8 8 8 10
25 27 24 16 21 20 20 21 20 20 22 25 21 16 15 19 21 20 21 23 24 23 20 19 18 20 19 19 18 18 18 17 16 12 12 12 12 11 14 14 13 12 13 13 12 10 10 9 7 7 8 9 10 10
24 30 21 18 16 14 16 21 18 22 24 22 21 18 17 17 20 24 23 23 21 19 19 20 20 20 17 17 14 14 14 14 12 12 12 10 9 12 12 12 11 12 12 11 11 12 11 10 12 11 9 8 7 4
30 28 22 20 16 18 19 21 23 22 22 21 22 18 15 15 18 21 21 21 20 19 18 17 17 18 17 16 16 14 11 11 9 9 12 12 12 12 10 10 10 10 11 10 9 9 7 7 8 8 7 5 4 3
27 23 19 15 15 19 22 23 23 21 21 19 17 18 17 18 14 16 20 20 19 18 14 19 17 15 15 14 13 11 8 12 11 10 11 11 11 11 11 11 11 10 9 8 9 8 7 6 5 5 5 4 3 2
24 23 22 19 17 19 21 23 21 19 21 19 17 19 18 17 14 16 19 21 19 20 18 18 17 15 13 14 14 11 10 10 6 8 6 4 2 3 5 10 9 9 8 7 7 8 6 6 4 3 3 2 2 1

GFSWCAN_sfc_temp_063.txt.gz
Temp
48 48 48 48 48 48 48 49 49 50 50 50 50 50 50 49 51 47 43 46 43 38 44 49 50 44 47 47 40 43 43 44 38 32 35 32 30 39 38 44 40 37 33 32 34 30 30 56 58 51 54 59 62 61
47 48 48 48 49 49 49 49 49 49 49 49 50 50 50 50 50 49 41 46 48 42 44 51 50 52 50 52 45 47 45 45 41 37 35 36 30 34 37 35 50 35 41 37 41 38 52 55 55 59 60 60 60 60
47 48 49 48 48 48 48 48 48 48 48 48 49 49 50 50 50 48 43 44 43 39 41 42 43 50 55 53 52 41 44 51 45 47 40 40 35 40 29 34 44 49 53 45 44 49 53 56 58 58 57 58 61 66
47 48 48 48 48 48 48 47 47 47 48 49 49 49 50 50 49 48 44 46 43 41 35 39 52 50 55 54 51 49 46 48 48 45 41 38 35 46 36 43 42 47 52 48 45 52 55 57 59 58 57 59 62 64
47 47 48 47 48 47 48 47 47 47 47 48 48 48 49 49 48 48 47 48 48 41 35 39 49 51 54 51 49 48 46 43 41 39 37 37 42 42 42 43 40 50 47 41 39 51 52 55 61 61 58 60 62 59
47 47 47 47 47 48 48 48 48 48 48 48 48 48 49 48 49 45 40 46 49 48 41 33 46 48 49 50 48 47 45 43 42 42 39 43 49 44 32 34 50 55 56 55 52 57 58 58 60 61 59 58 59 58
47 47 47 47 47 48 48 48 48 48 48 48 48 49 48 49 47 41 38 44 50 49 42 32 34 46 49 47 44 44 45 42 42 41 41 40 41 43 33 33 49 54 56 58 58 57 53 54 54 56 57 55 56 57
46 47 47 47 47 47 47 48 48 48 48 48 49 48 47 48 48 44 47 50 50 46 45 31 31 37 46 38 36 43 39 41 41 39 41 40 42 42 35 40 42 45 48 51 52 54 53 56 55 55 54 53 51 51
46 46 46 46 47 47 47 47 48 48 48 48 48 48 46 44 40 42 50 51 50 45 34 28 27 30 39 39 38 38 41 30 41 35 37 42 37 32 34 35 38 39 42 43 49 51 52 50 51 52 52 50 48 46
46 46 46 46 46 47 47 47 47 48 49 49 47 42 34 41 49 49 45 41 41 41 38 29 35 27 35 34 31 31 33 30 28 37 43 36 31 35 34 37 38 39 42 45 43 42 45 45 47 48 47 46 45 42
46 46 46 46 46 46 47 47 47 47 48 45 40 37 42 48 44 40 32 32 35 30 35 34 34 32 37 32 32 35 32 29 26 32 35 33 26 31 33 34 37 38 40 42 43 41 41 39 39 38 36 36 36 35
47 47 47 46 46 46 47 47 47 44 44 44 44 45 43 41 37 32 27 31 29 28 33 31 34 37 35 37 32 35 32 31 27 35 33 25 28 32 33 32 33 34 35 35 37 36 35 36 35 34 32 30 30 29
46 46 46 46 46 46 47 48 48 48 49 47 44 38 38 32 27 21 22 25 29 31 32 34 33 34 35 35 32 32 29 30 36 29 22 23 29 31 32 32 31 32 32 32 31 32 31 30 30 30 28 28 28 27
46 46 46 46 46 46 46 48 48 48 44 34 32 24 26 25 25 24 25 27 30 31 31 32 33 33 32 31 32 31 32 32 27 21 18 23 28 29 30 31 29 28 28 28 28 28 27 26 26 26 26 26 26 25
46 46 47 45 46 46 47 47 48 42 34 25 25 20 20 27 25 27 29 30 31 32 30 32 33 34 32 31 31 30 26 19 20 16 21 25 27 29 28 28 28 27 26 26 26 26 25 25 25 24 25 25 25 25
47 47 44 45 45 46 46 46 42 40 32 25 23 19 20 17 17 19 24 26 30 30 30 32 31 29 26 26 23 21 19 15 17 21 23 25 25 26 27 27 27 27 27 26 26 26 25 25 24 24 25 25 24 24
47 42 45 45 46 47 46 41 35 30 27 26 23 25 22 18 21 23 27 23 31 29 28 27 20 21 28 19 17 21 16 18 20 21 24 23 23 24 25 25 25 26 26 27 26 26 25 26 26 25 23 24 25 25
43 43 46 46 45 44 41 37 30 29 23 24 21 23 24 22 22 25 25 27 30 30 26 23 26 17 14 13 14 20 20 21 21 20 20 23 23 22 23 22 23 24 23 23 23 24 25 25 24 24 25 25 24 24
44 44 46 46 44 41 35 34 35 25 25 26 26 26 25 24 25 26 26 27 28 28 25 20 13 13 14 17 18 20 21 21 19 20 20 21 21 22 22 22 21 21 21 22 22 21 20 21 21 22 21 22 21 22
45 45 45 44 44 38 33 32 38 30 26 25 27 24 23 22 25 25 25 27 26 23 17 14 14 16 17 19 20 21 23 23 22 18 18 19 20 20 19 20 19 19 19 19 19 20 20 19 19 18 18 19 17 16
43 43 44 45 41 39 35 32 31 31 30 28 30 29 25 26 22 20 21 26 20 18 15 17 17 19 21 21 22 22 21 21 19 19 17 17 19 19 18 19 18 18 16 15 14 15 16 16 17 17 15 13 15 15
41 44 39 39 34 35 32 35 32 32 30 29 26 27 21 17 16 19 24 18 16 17 19 19 19 20 21 21 21 21 21 21 21 20 20 19 17 17 17 17 17 15 15 15 15 13 13 14 15 15 14 12 13 11
43 40 34 33 29 28 25 34 27 31 23 24 26 22 19 17 23 26 14 19 20 22 22 22 22 24 22 23 24 23 23 22 19 18 18 17 17 17 16 16 17 14 13 14 15 13 12 9 9 8 7 8 8 3
40 31 26 26 26 20 27 24 29 28 24 21 20 16 18 19 23 15 12 16 19 23 23 23 23 21 21 21 19 20 22 22 18 17 19 16 13 12 13 12 12 13 15 13 11 8 8 3 3 4 1 -2 -2 -2
23 21 23 18 26 21 17 17 19 20 14 19 13 15 16 23 12 13 12 15 17 17 18 22 22 21 16 15 16 16 19 18 14 11 13 16 15 13 11 11 10 11 12 10 3 -2 -3 -0 2 -5 -1 -4 -1 -5
15 19 21 21 19 19 20 14 13 14 14 11 15 22 19 11 6 8 15 15 10 15 17 18 14 15 15 16 13 11 13 16 15 10 11 12 10 6 5 3 2 5 9 1 1 -4 -3 -2 -3 -1 -5 -3 -5 -8
14 17 26 31 28 26 19 20 23 16 11 12 16 13 9 1 2 12 17 18 13 17 19 19 20 17 15 14 14 13 12 13 11 12 13 12 11 9 4 -3 -4 3 5 6 -1 -3 -6 -7 -9 -8 -7 -10 -9 -8
23 23 14 17 16 21 11 12 10 8 10 18 15 3 1 5 7 15 15 16 14 18 17 17 16 16 14 14 14 11 9 8 7 11 11 10 8 5 5 1 0 9 0 -5 -5 -6 -6 -9 -10 -10 -10 -8 -8 -4
17 20 17 9 13 13 14 12 10 14 18 18 7 5 6 16 13 14 14 14 15 16 12 8 6 6 9 9 7 7 5 5 -1 -3 -4 1 -2 -0 -1 -0 -2 -3 -1 2 7 -2 -4 -6 -7 -8 -8 -9 -6 -11
18 22 13 9 7 8 12 14 16 14 16 14 14 14 13 12 16 16 16 17 17 12 9 12 14 11 10 5 -3 -2 -0 -4 -5 -3 -1 -5 -4 -3 -5 -5 -4 -4 -3 -6 -7 -2 2 -5 1 -5 -7 -10 -13 -13
23 19 13 12 9 10 10 12 17 17 13 14 12 6 7 7 8 13 12 8 7 5 5 3 4 5 3 0 -0 -0 -5 -5 -6 -5 -4 -4 -4 -6 -7 -6 -6 -6 -2 -7 -8 -9 -11 -11 -12 -9 -11 -12 -11 -13
19 13 10 6 10 15 17 18 15 12 12 5 3 4 5 7 3 5 8 9 8 10 7 10 7 0 -2 -2 -5 -6 -1 -3 -5 -5 -5 -6 -4 -8 -5 -1 -4 -5 -7 -9 -7 -7 -9 -11 -13 -13 -13 -13 -14 -14
17 16 13 11 10 9 13 13 10 11 9 6 4 7 5 6 2 5 7 10 12 14 10 6 3 -1 -2 0 -2 -5 -2 -7 -4 3 -1 -3 -7 -7 -11 -9 -10 -9 -8 -10 -10 -9 -9 -8 -11 -13 -14 -14 -14 -17

GFSWCAN_sfc_temp_066.txt.gz
Temp
47 47 48 48 48 48 48 48 49 49 49 49 49 49 50 50 50 47 44 46 41 33 38 46 47 41 43 43 35 39 39 40 36 31 30 29 26 35 35 40 36 33 32 31 32 31 28 53 55 47 49 54 57 57
47 47 48 48 48 48 48 48 49 49 49 49 49 49 49 49 50 49 42 46 47 41 39 47 50 51 53 51 45 42 41 42 41 34 32 32 28 28 34 31 45 34 41 36 38 38 51 53 54 53 55 53 55 54
48 48 48 48 48 48 48 48 49 49 49 49 49 49 49 49 49 48 42 44 44 39 38 41 44 50 53 52 51 39 41 48 44 43 38 36 33 35 32 33 40 44 49 42 42 49 50 53 58 59 57 57 59 58
48 48 47 48 48 48 48 47 47 47 47 48 49 49 49 50 50 48 42 46 44 40 33 38 51 48 52 52 51 50 48 48 47 44 37 33 31 41 32 40 41 47 49 48 43 49 52 54 54 57 59 60 58 60
48 47 47 48 47 47 47 47 46 47 48 48 49 49 49 50 50 47 45 47 45 41 34 37 46 48 50 50 50 49 48 45 43 39 35 33 38 39 38 40 38 46 45 39 38 49 49 51 57 60 56 58 60 58
47 47 47 47 47 47 47 47 47 48 48 49 49 49 50 49 48 44 39 44 47 45 37 33 45 44 46 47 46 45 46 43 42 37 35 41 44 41 34 34 41 43 45 48 45 51 52 56 58 58 56 55 57 56
47 47 47 47 47 47 47 47 47 47 48 49 49 49 48 48 46 41 37 43 50 46 37 33 35 44 48 46 43 42 44 41 40 39 36 38 40 45 33 32 38 41 42 45 46 49 47 50 51 51 53 53 53 54
47 47 47 47 47 47 47 47 48 48 47 47 47 48 49 50 48 43 45 49 49 43 41 30 33 38 41 36 34 40 37 38 38 38 38 40 41 40 34 35 38 40 41 43 43 47 47 49 50 50 51 50 49 48
46 47 46 47 47 47 47 47 47 47 48 48 48 48 46 44 40 42 49 49 48 43 31 25 25 27 39 37 36 36 37 31 38 29 36 40 35 28 30 32 34 36 37 39 43 43 45 44 46 45 46 45 43 39
46 46 46 46 47 47 47 47 48 49 47 46 45 40 34 41 48 48 44 39 38 38 35 28 33 29 34 34 32 31 27 29 31 33 39 32 28 32 32 34 35 35 37 40 38 36 37 39 40 38 37 38 37 35
46 47 46 46 46 46 47 47 47 47 49 43 38 36 41 47 43 39 31 32 33 30 33 33 34 29 36 27 31 34 33 30 25 31 30 28 24 28 32 32 33 34 36 36 38 38 38 37 36 34 33 31 30 30
47 47 47 46 46 47 47 47 48 44 42 43 41 43 41 40 35 31 29 32 29 30 33 30 32 33 34 38 32 34 32 31 27 32 25 17 25 29 31 31 31 32 33 33 33 32 32 32 31 30 29 27 27 27
46 46 46 46 46 47 47 47 49 48 47 44 40 35 34 29 22 19 21 27 28 30 31 32 32 31 34 36 32 32 30 28 34 24 18 20 27 28 28 29 29 30 29 29 28 29 28 27 28 27 26 27 27 26
46 46 46 46 46 47 47 47 47 45 40 31 28 19 21 20 21 22 23 25 29 29 29 30 32 33 32 31 32 30 29 29 21 16 14 21 25 27 27 28 26 25 26 25 25 25 25 25 24 24 25 25 24 22
46 46 46 46 46 46 47 46 45 38 31 23 23 14 16 21 20 25 24 27 30 30 29 31 32 33 30 28 27 26 22 14 16 12 18 22 25 26 25 26 25 25 24 24 24 23 23 23 23 23 24 24 24 23
47 46 44 45 45 46 46 43 39 37 28 22 22 15 16 12 13 14 14 17 23 28 30 31 28 27 24 22 20 17 16 11 14 19 21 23 23 23 23 25 25 25 25 24 24 24 24 23 23 23 23 24 23 23
47 41 45 45 45 46 45 37 33 29 26 22 16 14 8 8 13 19 16 23 29 28 24 26 19 19 24 18 16 19 13 16 19 20 21 21 20 22 23 23 23 22 22 24 25 25 25 25 25 23 21 22 23 22
41 43 45 45 45 43 37 34 30 28 22 22 17 18 18 16 15 14 23 26 27 27 26 20 24 14 11 11 12 17 18 19 19 18 18 21 21 20 20 19 20 21 21 21 20 20 21 21 21 21 22 22 22 21
43 44 46 46 43 37 32 32 33 23 23 23 23 23 22 21 23 24 25 25 25 25 22 17 11 11 11 16 16 18 18 18 16 17 18 18 19 19 19 19 19 18 19 19 19 18 18 18 19 19 20 20 17 18
45 46 45 45 45 35 32 31 35 28 23 23 24 21 21 20 23 23 23 25 24 21 15 11 11 14 14 16 20 20 20 20 19 16 15 17 18 18 17 17 17 17 17 17 17 18 18 16 17 16 16 16 14 12
43 42 44 42 38 37 32 31 30 28 26 25 26 26 22 24 20 19 19 25 18 14 13 16 15 18 20 20 21 21 20 21 18 18 16 15 17 18 17 17 17 16 15 14 13 13 13 13 14 13 11 11 10 9
38 43 37 36 32 33 30 31 30 30 29 28 26 27 20 15 15 18 23 17 15 16 18 18 19 20 20 18 19 20 20 20 19 18 18 18 14 15 15 15 15 13 12 12 11 8 9 10 11 12 8 6 7 6
40 37 31 31 26 26 23 32 26 30 20 21 23 19 16 13 18 24 12 18 18 21 21 20 20 22 21 21 22 21 21 18 14 13 14 12 12 12 11 13 13 10 10 10 12 9 5 3 4 2 2 2 2 -2
37 28 23 21 23 18 22 21 27 25 21 18 17 13 18 14 19 11 11 14 19 22 21 21 20 18 18 17 14 16 18 17 14 14 14 11 9 8 9 9 10 11 9 9 7 4 2 -4 -4 -0 -5 -6 -9 -10
22 19 20 13 19 18 13 12 14 17 10 15 12 11 12 18 7 6 7 13 14 14 13 18 18 16 12 10 11 12 16 14 11 9 11 12 9 8 7 8 8 9 9 1 -5 -5 -8 -7 -8 -6 -5 -9 -3 -7
11 15 19 14 12 15 14 9 8 8 7 5 13 16 11 5 0 3 12 9 7 11 8 3 10 11 11 12 10 9 9 13 11 7 8 9 8 2 -3 -4 -3 3 5 -4 -6 -8 -8 -7 -9 -8 -13 -9 -11 -12
8 13 23 27 24 22 14 14 17 9 4 8 9 5 1 -6 -5 10 14 14 12 9 13 14 16 13 11 10 12 11 10 10 9 9 10 9 8 6 -1 -5 -5 0 2 -2 -7 -10 -12 -15 -15 -14 -15 -16 -12 -15
20 17 9 9 11 15 4 3 -0 1 3 15 9 -3 -5 -3 4 11 10 12 10 15 14 14 14 13 12 11 9 6 5 4 7 8 8 6 4 -2 -3 -4 -2 5 -7 -12 -13 -14 -14 -14 -14 -16 -14 -10 -13 -12
11 14 13 4 7 8 8 2 3 10 15 12 -2 -2 4 13 6 10 12 11 11 12 9 7 1 2 5 4 1 1 0 2 -1 -4 -6 -10 -9 -2 -4 -8 -10 -8 -5 -5 1 -6 -9 -10 -9 -11 -13 -14 -15 -20
12 15 7 2 1 4 6 8 3 2 12 8 12 14 12 11 14 12 13 15 8 0 -2 -0 2 0 -5 -6 -11 -7 -9 -15 -12 -6 -8 -11 -7 -5 -13 -12 -11 -9 -13 -14 -13 -9 -3 -10 -4 -7 -9 -14 -19 -19
18 11 7 5 4 7 5 3 12 10 2 0 -1 -2 2 6 7 10 9 6 7 2 2 -3 -3 -9 -3 -8 -12 -14 -11 -9 -14 -10 -8 -9 -13 -15 -14 -14 -14 -13 -13 -15 -16 -17 -17 -18 -20 -19 -18 -17 -18 -20
9 3 5 5 8 10 11 7 -1 -2 -6 -5 -6 -9 -3 -5 -5 -2 1 -1 -1 -2 -4 -4 -3 -5 -11 -13 -15 -14 -8 -9 -12 -10 -9 -13 -15 -17 -14 -8 -10 -14 -15 -16 -15 -12 -11 -14 -17 -19 -19 -18 -20 -20
7 10 5 5 6 5 7 4 2 4 0 -3 -0 -0 -1 0 -4 3 5 1 2 3 -1 -5 -9 -8 -7 -8 -7 -10 -8 -11 -12 -1 -5 -7 -12 -11 -18 -19 -20 -19 -17 -18 -19 -17 -14 -12 -14 -16 -18 -21 -22 -22

GFSWCAN_sfc_temp_069.txt.gz
Temp
47 48 48 48 47 48 48 48 48 48 49 49 49 49 50 50 50 47 43 46 40 34 38 44 47 42 42 41 33 38 39 38 32 29 28 28 24 32 34 36 33 31 31 28 32 30 25 50 48 41 46 50 50 53
48 48 48 48 48 48 48 48 48 48 48 49 49 49 49 49 50 49 41 46 46 39 38 42 45 48 52 50 44 42 42 40 39 32 30 30 25 25 32 27 41 32 36 32 34 36 47 50 48 50 51 51 53 53
48 48 48 48 48 48 48 48 49 48 48 48 48 49 49 49 50 48 43 44 42 37 37 38 39 47 51 53 52 38 40 46 41 41 35 34 30 33 25 29 35 39 44 39 38 45 48 52 54 56 56 55 57 57
48 48 48 48 47 47 47 48 48 48 48 48 48 49 49 50 50 49 43 45 43 39 32 37 49 45 52 52 52 49 46 45 44 41 36 31 29 39 30 37 35 40 43 42 43 49 50 52 54 55 56 57 57 57
47 47 47 47 47 47 47 46 47 47 48 49 49 49 49 49 50 48 45 46 48 39 32 35 45 48 49 47 47 47 46 42 39 36 34 31 36 37 36 36 33 39 38 34 34 43 41 51 55 55 54 55 56 55
47 47 47 47 47 47 47 47 47 47 47 48 49 49 49 49 46 43 35 44 48 45 37 31 44 43 44 46 46 46 44 42 41 40 37 39 44 40 29 31 39 39 42 43 39 43 43 48 52 52 54 54 54 54
47 47 47 47 47 47 47 47 47 47 48 48 48 49 49 47 45 40 37 42 47 45 36 32 35 43 47 44 42 42 43 42 41 39 37 37 40 42 33 30 36 39 40 42 43 43 43 44 44 48 49 50 50 50
47 47 47 47 47 47 47 47 48 47 48 48 48 48 47 49 48 43 44 48 48 41 38 31 33 37 43 36 36 41 38 39 39 37 36 35 38 38 32 33 36 38 39 41 40 43 42 44 43 42 44 45 43 39
46 46 46 47 47 47 47 47 47 48 48 48 48 48 46 43 41 42 49 50 47 41 33 30 28 30 38 36 35 35 36 32 37 30 33 36 34 25 28 31 33 34 34 35 39 42 41 40 39 38 37 36 35 32
46 46 46 46 47 47 46 47 47 48 49 48 45 39 32 42 48 48 43 37 38 36 35 28 29 31 37 35 29 30 28 28 30 33 37 28 26 30 30 33 33 32 34 36 34 35 35 35 36 34 31 32 31 30
46 46 46 46 47 47 47 47 46 47 47 41 37 34 42 46 43 38 31 30 32 30 32 30 31 28 34 29 33 31 32 27 22 28 30 26 23 26 29 29 31 32 33 34 35 34 34 33 32 31 29 29 28 28
46 46 46 46 47 47 47 48 47 44 42 42 42 43 41 37 33 31 29 29 31 29 32 28 33 32 34 37 30 33 31 31 27 31 24 17 23 27 28 28 28 29 30 30 30 29 29 29 29 28 27 27 26 26
46 46 46 46 46 47 47 47 47 47 46 43 38 32 31 25 19 17 19 22 23 30 29 31 32 33 34 36 31 32 29 29 30 21 15 18 25 26 26 27 26 27 27 27 26 27 26 26 27 26 25 25 25 24
46 46 46 46 46 46 46 46 45 43 38 29 25 15 16 13 18 19 21 22 27 26 27 28 31 32 32 31 32 29 25 27 18 13 11 19 23 25 25 26 25 23 23 23 23 23 23 23 23 23 23 22 21 20
46 45 46 45 46 46 46 45 44 37 31 23 22 12 15 20 21 22 23 24 28 28 28 30 32 32 27 25 24 21 19 12 14 10 17 21 23 24 24 24 23 23 23 22 23 23 22 22 22 21 22 22 22 21
45 45 43 45 46 46 45 41 37 35 28 23 20 15 17 13 15 16 16 19 26 27 30 30 28 25 21 21 17 15 14 10 12 16 19 22 22 22 21 22 23 24 24 24 23 23 22 21 20 20 21 21 20 20
44 40 44 45 46 45 44 35 31 27 23 19 15 15 8 6 9 15 18 21 27 26 24 25 17 18 23 17 14 16 10 14 17 18 19 18 18 18 20 20 20 20 20 20 21 23 22 22 22 21 19 20 20 20
41 43 45 46 44 41 36 34 28 26 19 19 16 17 12 13 13 16 20 24 24 25 24 18 23 13 8 10 11 14 15 16 17 17 17 18 18 18 19 18 19 19 19 19 19 19 20 20 20 19 19 19 18 17
42 43 45 46 42 35 32 30 31 19 19 19 17 19 16 17 22 22 22 24 24 24 20 17 10 9 10 14 14 14 13 15 14 15 16 17 18 18 17 18 18 17 18 17 17 16 16 17 17 18 17 16 13 14
45 45 45 45 44 33 30 28 31 25 20 19 22 20 20 19 20 17 21 23 23 20 12 8 8 9 9 14 17 16 15 16 17 14 14 16 17 16 15 16 16 16 16 16 16 16 16 14 15 14 13 12 9 7
41 41 42 42 37 35 31 28 26 26 25 22 25 24 21 23 19 18 19 23 17 14 12 14 14 17 19 19 19 19 18 19 16 16 14 13 16 16 15 15 15 14 12 11 10 10 12 10 10 10 8 4 3 4
36 42 34 34 32 32 29 30 28 28 27 26 24 26 18 12 12 16 21 14 14 15 17 17 17 17 17 16 16 17 17 17 17 16 15 15 12 13 13 13 13 11 10 9 8 7 7 9 9 6 3 -1 1 0
39 36 29 29 25 25 24 30 25 28 20 19 22 19 15 11 17 23 10 16 16 18 17 17 18 20 17 18 19 19 18 16 13 12 12 11 11 10 10 10 9 6 6 6 7 5 3 1 -1 -3 -3 -2 -4 -8
36 26 22 20 23 17 21 19 27 24 20 17 16 13 15 12 17 11 10 13 16 19 19 19 19 16 17 16 13 14 16 15 12 11 11 9 7 7 8 8 7 6 6 6 3 -2 -2 -9 -7 -4 -10 -13 -18 -17
22 19 19 13 18 16 12 10 12 16 8 12 11 11 10 16 6 4 4 10 13 11 10 16 16 14 10 7 9 11 14 14 10 8 8 9 6 7 6 7 6 6 5 -2 -11 -11 -15 -14 -11 -11 -10 -15 -6 -13
13 17 14 12 12 15 12 7 7 7 6 6 9 11 7 1 -3 -0 9 7 6 7 -0 4 7 9 10 11 9 7 7 10 10 6 7 9 7 -1 -6 -6 -4 2 2 -8 -10 -13 -12 -15 -15 -13 -16 -14 -13 -17
7 10 21 24 21 19 10 11 15 9 4 5 4 -1 -3 -10 -10 6 13 13 10 8 12 11 13 11 9 9 9 8 8 8 7 7 7 7 6 4 -3 -7 -6 -0 0 -6 -11 -11 -12 -16 -18 -18 -16 -18 -19 -19
17 14 6 5 8 12 -1 -2 -3 -1 3 14 5 -7 -9 -6 2 8 8 8 10 13 12 12 12 12 10 8 6 5 2 2 4 4 4 3 1 -4 -6 -7 -5 1 -11 -16 -17 -18 -17 -16 -16 -18 -17 -14 -16 -20
7 10 10 -1 3 5 6 -1 2 10 13 6 -5 -4 3 11 7 7 10 8 9 11 7 5 0 -2 0 -0 -3 -0 -5 -4 -6 -10 -13 -14 -15 -5 -9 -13 -13 -14 -14 -10 -3 -8 -11 -14 -13 -15 -17 -17 -19 -25
8 12 4 -2 0 2 0 3 -1 -2 8 6 10 12 10 8 10 6 9 5 3 -2 -4 -3 -6 -7 -10 -9 -12 -9 -12 -15 -10 -5 -10 -14 -9 -10 -13 -15 -14 -16 -19 -17 -15 -13 -5 -11 -6 -11 -15 -18 -21 -21
13 7 4 5 4 3 2 -5 -1 4 -4 -2 -3 -3 0 3 8 11 9 4 1 -2 0 -5 -9 -13 -9 -16 -16 -16 -11 -13 -18 -15 -13 -14 -18 -18 -18 -18 -18 -19 -20 -19 -18 -20 -20 -21 -23 -21 -20 -19 -20 -23
2 -3 3 3 5 7 5 -3 -4 -6 -11 -6 -8 -13 -6 -6 -7 2 3 2 2 -4 -8 -10 -6 -6 -13 -16 -19 -18 -11 -11 -14 -13 -11 -16 -18 -19 -17 -16 -20 -20 -20 -20 -19 -19 -17 -16 -19 -22 -21 -20 -23 -24
4 5 4 4 3 2 3 5 3 -1 -4 -6 -2 -6 -7 -7 -6 -0 3 -1 -0 1 -2 -5 -10 -11 -11 -11 -11 -15 -14 -16 -16 -2 -8 -10 -15 -15 -21 -23 -23 -22 -19 -21 -22 -21 -19 -17 -19 -19 -20 -23 -24 -24

GFSWCAN_sfc_temp_072.txt.gz
Temp
48 47 48 48 49 49 49 48 48 48 49 49 49 49 49 49 49 46 44 47 40 34 39 44 45 40 42 41 34 38 37 36 33 28 29 29 25 31 31 34 32 31 29 31 32 29 26 47 46 41 44 46 47 51
47 48 48 48 49 49 49 49 48 48 48 48 49 49 50 48 49 48 40 45 45 39 38 43 45 47 50 49 44 43 40 37 36 30 28 30 25 25 31 26 37 29 34 31 33 33 44 46 46 50 50 52 50 51
47 48 48 48 48 48 48 48 49 48 48 48 48 49 49 49 49 47 43 43 42 35 37 38 39 46 50 50 52 40 40 45 38 41 33 32 28 31 25 28 34 37 41 35 36 41 44 48 48 51 51 51 54 56
48 48 48 47 47 47 47 47 47 48 48 48 48 48 49 49 50 48 42 44 42 39 32 34 47 44 50 49 49 49 48 46 44 41 34 29 29 37 29 35 33 38 40 38 39 43 44 47 48 51 52 54 54 56
47 48 47 47 47 47 47 47 47 47 49 48 48 48 49 49 50 46 45 45 47 39 31 32 43 47 50 48 47 48 47 44 41 37 32 29 33 35 33 34 31 37 36 33 32 38 39 40 44 46 46 48 52 53
47 47 47 47 47 47 47 47 47 47 48 48 48 48 48 49 49 44 36 44 47 42 35 30 41 42 46 47 46 45 47 43 41 39 35 38 40 36 26 28 37 41 41 42 40 40 40 41 44 44 43 47 46 44
46 47 47 47 47 47 47 47 47 47 48 48 48 48 48 49 46 39 37 41 48 46 36 25 33 41 46 45 42 42 44 42 40 37 37 38 36 39 32 31 35 38 40 40 43 40 39 41 40 42 42 44 43 40
46 46 47 46 47 47 47 47 47 47 48 48 48 48 48 48 46 43 44 48 48 41 39 28 32 36 44 36 36 41 39 39 39 36 34 34 37 36 32 32 35 37 37 39 38 40 41 42 41 38 39 38 36 33
46 46 46 46 46 46 47 47 47 48 48 48 47 48 46 43 40 41 48 49 46 40 32 32 29 29 40 36 37 37 38 32 37 33 32 37 32 26 27 30 31 32 31 32 36 38 39 38 37 34 33 32 30 28
46 46 46 46 46 46 47 47 47 47 47 47 44 38 33 41 48 47 41 37 37 38 34 31 32 31 35 33 32 33 31 31 30 33 36 26 25 28 30 30 31 31 32 34 32 33 32 32 33 31 29 30 29 28
46 46 46 46 47 46 46 46 47 47 46 42 37 34 42 48 42 36 31 31 32 29 32 32 31 30 33 29 31 30 31 27 26 28 31 25 21 25 28 27 29 30 31 31 32 31 31 31 30 29 28 28 28 27
46 46 46 46 46 47 47 46 46 43 41 42 41 43 40 35 32 30 29 31 29 28 31 32 32 33 34 34 31 32 26 31 26 29 23 16 22 25 27 26 27 27 27 28 28 27 28 28 27 27 26 25 25 24
46 46 46 46 46 46 46 46 47 47 45 41 35 30 30 23 15 15 17 24 24 27 28 31 31 33 34 35 31 32 28 26 27 19 15 17 23 25 25 26 25 26 26 26 26 26 25 25 25 25 23 23 23 22
46 46 46 46 46 46 45 45 45 43 36 28 23 12 13 11 16 18 19 19 26 23 23 25 32 32 32 30 28 27 24 24 17 11 11 18 22 23 24 25 24 22 23 23 22 22 22 22 21 21 21 21 20 18
46 46 46 45 46 46 45 44 43 35 29 20 20 10 13 18 20 21 22 24 26 27 27 30 30 29 24 21 21 21 16 11 13 10 16 19 21 22 22 23 23 22 22 21 21 20 20 20 19 19 20 20 20 19
45 45 43 45 45 45 44 40 36 33 26 22 19 14 16 15 15 16 18 19 25 25 30 30 26 22 20 20 16 13 13 8 10 14 17 19 18 19 19 20 20 21 22 21 21 21 21 19 19 19 19 19 18 18
44 39 45 45 45 44 43 33 30 26 21 18 14 15 10 12 10 14 16 20 25 26 22 23 16 16 22 16 12 13 8 11 16 16 17 17 17 18 19 19 19 19 19 19 20 21 20 20 20 19 16 17 18 18
41 42 45 46 43 39 33 31 27 24 16 14 10 14 14 12 14 14 19 22 23 25 22 17 21 13 10 10 10 13 15 16 17 16 16 17 18 18 18 17 18 18 18 18 18 18 18 18 17 16 17 17 16 15
43 43 45 45 41 34 29 27 27 17 15 15 16 16 14 14 18 21 21 23 24 25 22 17 11 10 10 14 14 14 15 15 14 15 15 16 17 17 17 17 17 16 16 16 16 15 15 15 15 15 15 14 11 12
45 44 43 45 43 32 28 26 29 23 16 17 22 19 17 17 20 15 20 22 22 19 12 7 6 6 7 11 13 14 15 17 16 13 13 14 16 15 14 15 14 15 15 15 14 15 14 12 12 11 10 9 6 5
40 40 41 39 33 32 28 26 24 23 22 20 24 22 19 21 18 16 17 22 15 13 10 13 13 16 17 17 18 18 17 18 15 15 13 12 14 15 14 14 14 14 12 11 10 10 10 8 8 8 4 2 2 3
34 41 33 34 30 31 28 28 26 26 25 24 22 24 16 12 13 15 19 13 12 13 15 15 15 16 15 14 14 16 16 16 16 14 13 14 11 11 10 11 11 8 8 7 7 4 5 7 5 3 -1 -7 -1 -2
38 35 29 30 26 25 25 30 24 27 19 20 22 18 14 12 17 22 10 16 15 18 17 17 17 18 16 17 17 16 16 15 12 11 10 9 9 8 8 7 6 2 1 3 5 2 -1 -2 -4 -6 -7 -6 -7 -11
35 24 17 16 22 15 19 18 26 23 19 17 15 12 11 10 16 10 8 11 15 18 17 17 17 14 15 14 11 12 13 13 10 9 9 8 5 5 6 5 4 3 4 3 0 -3 -4 -13 -11 -7 -15 -17 -21 -20
21 17 17 10 16 15 10 7 10 14 6 8 8 7 7 14 4 2 1 5 7 5 5 12 14 12 8 6 8 10 12 12 8 6 7 7 4 5 5 5 4 4 3 -5 -13 -15 -17 -18 -18 -17 -15 -19 -9 -16
13 15 12 13 11 12 10 4 4 6 6 4 5 7 4 1 -3 -3 7 2 1 3 -4 0 5 8 8 10 7 6 6 9 9 5 5 7 4 -4 -8 -7 -5 -0 -1 -10 -12 -16 -15 -18 -17 -15 -17 -14 -14 -19
7 8 18 21 20 17 8 9 13 7 1 4 5 -3 -4 -10 -11 4 11 8 8 6 9 9 12 10 8 7 7 7 6 6 5 5 6 5 4 3 -4 -9 -7 -2 -2 -8 -14 -13 -13 -18 -19 -19 -19 -22 -23 -22
15 13 7 3 6 10 -2 -3 -5 -3 4 11 4 -9 -10 -7 1 8 8 8 8 12 10 9 10 10 8 6 4 3 0 -1 2 2 2 1 -1 -5 -8 -10 -8 -1 -14 -18 -19 -20 -19 -17 -18 -20 -20 -17 -18 -24
5 7 7 -5 0 2 3 -3 0 9 11 3 -7 -5 2 9 6 7 9 7 8 10 5 2 -3 -4 -1 -2 -6 -5 -6 -7 -7 -11 -14 -15 -17 -8 -11 -14 -15 -15 -18 -12 -4 -12 -13 -16 -16 -17 -18 -19 -22 -28
6 10 0 -6 -4 -1 -2 2 -1 -2 7 5 10 12 8 6 8 5 5 3 2 -4 -8 -7 -12 -12 -12 -12 -12 -7 -11 -14 -10 -4 -8 -12 -10 -13 -15 -14 -15 -19 -22 -19 -17 -14 -6 -13 -7 -15 -15 -19 -23 -23
10 3 1 2 1 1 0 -8 -8 -0 -7 -4 -6 -4 -1 1 5 6 2 -5 -6 -5 -4 -10 -12 -18 -13 -18 -17 -16 -11 -15 -21 -17 -16 -19 -21 -20 -19 -21 -21 -22 -22 -21 -21 -21 -22 -23 -25 -23 -22 -20 -22 -25
0 -3 2 1 3 4 1 -7 -8 -8 -11 -7 -10 -15 -10 -8 -9 -0 1 -1 -2 -4 -7 -11 -11 -7 -10 -15 -19 -19 -13 -15 -16 -17 -16 -18 -19 -21 -20 -18 -22 -22 -22 -22 -21 -21 -20 -20 -22 -24 -23 -22 -24 -25
1 1 1 1 -1 -1 0 2 1 -2 -5 -8 -8 -12 -14 -10 -7 -1 0 -5 -3 -3 -6 -7 -11 -17 -15 -16 -16 -18 -17 -19 -17 -3 -10 -11 -16 -16 -24 -26 -26 -24 -21 -22 -25 -23 -20 -19 -21 -22 -23 -26 -24 -26

GFSWCAN_sfc_temp_075.txt.gz
Temp
48 48 47 48 48 49 49 50 49 50 49 48 49 48 48 48 48 45 42 47 41 34 39 45 46 41 41 39 34 38 35 35 35 31 31 31 30 35 35 38 36 35 33 32 33 30 29 50 50 45 51 53 52 56
47 47 48 48 49 49 48 49 49 49 49 48 49 49 48 48 49 48 41 46 47 39 38 44 47 48 50 48 43 41 41 38 39 35 34 35 31 32 35 31 40 35 39 38 39 40 49 51 51 55 55 53 54 55
46 48 48 49 48 48 48 48 48 48 48 48 48 49 48 48 48 48 42 45 42 35 37 38 39 48 50 51 53 38 42 46 41 44 37 36 32 36 31 34 39 42 44 40 40 47 48 50 53 50 50 48 51 53
47 48 47 48 48 48 48 48 47 48 48 48 48 48 48 48 48 47 43 44 41 38 33 35 46 45 51 50 50 50 48 47 46 44 38 34 35 40 35 39 39 43 44 42 41 47 46 52 47 46 46 49 49 50
47 47 47 47 47 47 47 47 47 47 48 48 48 48 48 48 48 46 44 44 45 39 31 34 43 47 49 48 47 48 48 45 43 40 36 36 38 39 38 38 38 43 42 39 40 39 39 42 46 46 44 44 46 44
47 47 46 47 47 47 47 47 47 47 48 48 48 48 48 47 47 43 35 43 46 45 36 30 42 42 46 46 46 45 45 45 42 40 37 40 42 41 34 34 39 41 42 42 39 43 43 43 46 44 41 42 43 41
47 47 47 46 47 47 47 47 47 47 48 47 48 48 48 47 44 39 37 42 47 46 36 31 34 41 44 44 43 44 45 43 42 39 38 39 39 41 34 30 35 37 38 39 42 40 41 43 40 41 40 40 40 38
46 47 47 47 47 47 47 47 47 48 48 47 48 48 48 48 47 42 44 48 48 41 40 28 29 36 44 37 35 41 38 39 39 37 37 37 39 39 32 32 34 34 35 38 36 38 37 41 41 38 37 37 35 31
46 46 46 46 47 46 47 48 48 48 48 48 48 48 45 42 39 41 48 48 47 41 32 30 27 29 41 37 37 35 38 32 38 33 34 38 34 28 27 28 30 30 30 31 35 37 38 36 36 34 34 31 31 29
46 46 46 46 46 47 46 46 47 47 46 46 43 38 33 41 47 46 41 37 37 38 36 31 33 31 36 34 33 33 35 32 30 33 36 31 25 27 28 29 30 30 31 32 30 31 30 30 31 29 28 28 28 28
46 46 46 46 46 47 46 46 46 47 47 41 37 36 43 47 41 37 32 31 33 30 32 33 32 31 35 33 32 33 32 32 27 31 32 26 22 24 28 28 29 29 30 30 31 31 29 29 28 28 26 26 26 26
46 46 46 46 46 46 47 47 47 44 42 42 41 41 39 34 32 30 28 30 31 28 32 32 32 34 33 36 34 33 30 31 26 29 24 16 22 26 27 26 27 27 28 28 28 27 27 27 26 25 25 24 23 23
46 46 46 46 46 46 46 46 46 46 44 39 34 30 30 24 16 16 18 23 24 27 28 31 31 33 35 36 33 33 26 23 28 19 14 18 23 25 25 26 25 26 26 25 25 25 25 24 24 23 22 22 21 20
46 46 46 46 45 45 45 45 45 42 35 27 22 12 12 11 16 18 19 21 26 27 26 28 32 30 31 28 26 25 22 25 16 12 11 18 21 23 24 25 24 22 22 22 21 21 20 20 20 20 20 19 18 17
46 46 45 45 46 45 44 44 42 34 29 20 19 10 14 18 20 20 21 23 26 27 28 31 28 29 24 21 22 23 17 12 13 11 16 19 21 21 21 22 22 21 21 21 21 20 19 19 19 18 19 19 19 17
45 45 42 45 45 45 43 40 35 33 27 21 17 15 16 16 16 16 18 19 24 24 29 29 25 21 19 19 15 12 13 9 12 15 19 20 19 20 20 21 21 22 21 21 21 20 20 19 18 18 18 18 17 16
44 37 45 45 44 43 42 34 31 26 22 19 14 17 13 14 14 15 17 20 24 26 22 23 17 16 22 16 11 14 11 14 16 17 18 18 18 18 19 20 19 19 19 19 20 20 19 19 19 18 16 17 17 17
39 39 45 45 42 38 33 31 27 24 16 16 14 16 17 15 15 15 18 22 23 24 23 18 22 14 12 11 11 14 16 16 17 16 16 17 18 18 18 17 18 18 18 17 17 17 18 17 16 16 16 16 15 14
41 41 44 45 40 33 29 27 27 16 17 17 18 19 17 15 19 21 22 24 25 26 23 19 13 11 11 15 14 15 16 16 15 15 16 16 17 17 17 17 17 16 16 16 16 15 14 14 15 15 15 15 13 14
44 44 44 44 41 31 28 25 29 23 16 19 22 20 18 19 21 17 20 23 22 19 12 9 9 11 13 15 17 16 17 18 17 14 13 15 16 16 15 16 16 16 16 15 15 15 14 13 12 12 11 11 10 8
41 39 41 37 32 31 28 26 23 23 22 21 24 22 19 21 18 16 17 21 15 13 11 14 13 15 17 17 19 19 18 20 17 17 14 13 15 16 15 15 15 15 14 13 12 11 10 9 10 9 8 6 7 7
34 41 32 34 30 30 27 27 25 25 24 23 22 23 16 11 12 15 20 13 12 13 15 15 16 16 15 14 14 16 16 16 16 15 14 15 13 12 11 12 12 10 10 9 10 8 7 8 7 6 4 3 4 5
37 34 28 29 23 21 24 30 24 27 18 19 22 17 15 14 17 22 12 15 15 18 18 17 17 18 16 17 17 17 16 15 13 12 11 10 10 9 9 9 9 7 7 7 9 7 5 1 0 2 3 3 3 1
35 23 17 16 22 13 18 15 25 22 20 19 17 12 12 12 16 11 8 11 16 18 17 17 17 15 15 14 12 13 13 14 12 11 11 10 8 7 8 8 8 7 8 7 5 4 3 1 -2 2 0 -1 -2 -1
21 15 16 10 17 16 11 9 12 14 9 10 10 7 7 14 5 3 4 10 12 12 12 15 15 14 10 9 11 11 13 14 11 8 9 10 8 8 7 7 7 7 6 4 -0 -0 -3 -4 -2 -0 -1 1 1 -1
11 13 11 11 8 13 10 6 4 6 6 4 5 6 5 3 -0 -1 9 8 8 9 5 7 10 11 10 12 10 9 9 12 12 8 8 10 8 6 4 4 5 5 4 3 1 1 -1 -4 -2 -1 -2 -4 -10 -3
6 6 16 19 18 15 7 8 12 7 1 2 3 -2 -1 -5 -6 5 12 11 12 10 12 12 15 13 10 8 8 8 8 8 8 7 7 7 6 7 5 4 3 5 4 2 1 2 2 -1 -2 -2 -1 -3 -4 -4
9 10 4 1 3 8 -2 -2 -2 -2 6 11 5 -7 -6 -4 3 10 11 10 10 12 10 9 10 11 9 7 6 5 4 4 5 5 6 6 4 2 0 1 1 0 -3 -3 -2 -3 -1 -1 -1 -2 -2 0 -1 -7
5 5 6 -6 -1 0 1 -3 2 9 10 4 -4 -2 3 8 7 9 10 10 11 10 7 5 1 1 2 1 -1 1 3 3 4 -2 -3 -1 -2 3 -2 -2 -1 -2 -2 2 -2 -3 -1 -1 -2 -2 -3 -2 -4 -8
3 8 -1 -8 -5 -2 -3 3 0 1 6 7 10 10 8 7 9 10 8 8 7 3 -1 0 -4 1 -0 1 -1 -1 -3 -4 -1 2 -1 -1 1 -1 -3 -1 -1 -4 -5 -2 0 1 -2 -1 -1 -4 -4 -4 -4 -4
8 3 -1 -0 -1 3 0 -7 -8 -1 -4 -2 -2 -1 1 4 7 6 3 -2 -2 -4 -1 -2 -5 -8 -3 -5 -2 -3 -1 -3 -12 -9 -6 -5 -6 -4 -3 -5 -6 -7 -5 -3 -3 -3 -4 -5 -5 -5 -5 -4 -6 -10
-1 -5 -0 -2 1 1 -0 -8 -8 -5 -8 -2 -5 -10 -5 -2 -4 4 3 1 -2 -1 -4 -4 -1 3 -4 -5 -8 -8 -11 -4 -5 -7 -6 -6 -4 -7 -8 -7 -10 -8 -6 -6 -7 -7 -7 -6 -6 -6 -6 -6 -8 -9
2 -0 1 2 1 -1 -1 0 0 -2 -5 -4 -5 -9 -9 -4 -3 2 1 -1 4 5 1 -1 -3 -6 -6 -8 -5 -8 -10 -7 -10 -1 -8 -8 -12 -9 -10 -10 -10 -9 -7 -7 -8 -8 -8 -8 -6 -8 -8 -10 -11 -11

GFSWCAN_sfc_temp_081.txt.gz
Temp
47 47 47 47 47 48 48 48 48 49 49 49 49 49 49 48 48 45 45 53 47 40 47 52 53 47 51 44 36 43 39 38 35 34 37 40 39 44 45 48 43 39 35 34 38 32 32 61 60 50 53 59 61 61
47 47 47 47 48 48 48 49 49 49 49 50 50 49 49 49 48 48 39 51 52 43 46 54 55 57 55 52 44 43 46 41 46 41 44 45 39 44 45 37 52 37 47 43 46 46 58 60 53 59 60 58 59 59
46 46 47 47 48 48 48 48 48 49 49 49 49 50 50 49 48 47 41 47 44 39 42 46 45 54 59 57 56 40 44 50 46 54 43 43 38 49 39 43 45 53 54 47 43 54 55 53 56 59 59 58 59 60
46 47 48 48 47 48 48 48 48 48 48 49 49 49 49 49 48 48 41 47 43 39 34 43 57 50 56 57 55 54 50 49 50 46 44 43 41 53 46 48 45 54 52 52 51 53 58 59 57 54 57 58 57 58
47 47 47 47 47 47 47 47 47 48 48 48 49 49 49 49 48 47 45 47 52 48 39 42 51 55 57 53 51 50 46 43 42 39 40 42 49 48 51 49 47 56 49 47 44 49 50 54 54 53 54 53 53 53
47 47 47 47 47 47 47 47 47 47 48 48 48 50 49 48 48 43 36 44 54 51 40 36 52 49 51 51 48 46 45 43 42 38 37 48 54 48 41 41 43 49 50 48 43 48 50 52 48 46 46 50 51 50
46 47 47 47 47 47 48 48 47 47 48 48 48 47 47 48 45 40 40 45 50 51 40 36 40 49 51 48 46 44 46 41 41 39 41 46 46 49 43 39 39 44 46 46 46 46 46 46 40 42 42 44 45 43
46 46 46 47 46 47 47 47 47 48 48 47 47 47 47 47 47 46 48 49 51 43 43 35 38 39 50 41 38 43 38 39 39 38 43 45 47 44 37 35 39 41 44 44 43 44 43 43 43 44 44 43 41 36
46 46 46 46 46 47 47 47 47 48 47 46 46 46 44 43 40 42 49 50 50 45 38 37 35 32 48 43 40 39 39 33 39 35 39 45 43 30 29 34 36 36 36 38 42 45 43 40 40 41 41 40 38 35
45 45 46 46 46 46 46 46 46 47 47 46 45 40 33 42 47 46 43 38 40 44 46 38 43 34 43 41 39 36 38 36 33 36 44 36 28 30 33 36 37 37 38 39 36 35 36 35 35 35 35 34 33 32
46 45 46 46 46 46 46 46 47 47 48 45 40 36 42 48 46 43 35 38 38 35 43 41 41 37 42 35 36 43 36 37 32 34 34 33 28 29 34 34 37 38 38 37 37 36 34 33 32 32 32 31 30 29
46 46 46 46 47 46 47 47 48 48 47 46 41 43 43 39 39 36 34 36 37 32 37 37 38 38 38 39 38 36 34 35 30 36 33 27 26 32 33 33 33 34 34 33 34 32 31 30 30 30 29 27 26 26
45 46 46 45 45 46 47 47 48 48 51 51 46 35 40 36 29 30 27 31 31 34 36 35 34 37 37 38 37 36 32 29 37 31 25 25 28 29 29 31 30 31 30 30 29 29 29 28 28 28 25 26 25 24
45 45 45 45 45 45 45 46 47 50 51 38 34 25 29 27 28 28 29 30 31 33 34 35 35 36 37 35 33 30 29 33 27 26 21 24 25 27 28 28 28 25 25 25 25 24 23 23 22 23 22 22 21 20
45 46 46 45 45 45 45 46 47 50 43 31 34 24 25 28 29 29 30 33 32 35 33 36 37 37 32 30 32 30 27 24 25 23 25 26 26 26 26 26 25 25 24 23 23 22 21 21 20 20 21 21 20 19
46 47 46 45 45 45 46 48 48 47 38 31 28 27 29 30 28 29 30 30 32 32 36 41 34 30 27 30 26 23 26 22 22 23 26 27 24 24 24 24 24 25 24 24 23 23 21 20 19 19 19 19 18 18
46 47 44 44 45 44 45 46 43 33 30 28 24 28 29 28 26 27 29 29 33 33 30 35 27 23 34 26 21 24 20 21 23 23 25 25 24 23 24 24 24 24 24 23 23 23 22 22 22 20 18 18 19 18
48 48 45 45 49 47 45 44 37 32 24 27 24 25 27 28 28 28 30 32 34 34 34 26 34 25 22 20 20 21 22 24 25 24 25 25 25 25 25 24 24 24 23 23 23 23 23 22 21 20 20 20 19 19
47 51 45 45 48 46 38 37 40 27 26 28 28 30 29 29 31 32 32 33 35 36 33 30 23 21 20 24 23 23 25 25 23 24 23 23 24 23 23 24 24 23 23 23 23 22 22 21 22 23 23 23 21 21
44 44 44 45 46 43 34 34 43 33 28 28 32 30 30 29 30 29 30 32 32 30 24 21 20 22 23 25 28 27 26 27 27 24 23 24 25 25 24 25 25 24 24 23 23 23 23 22 23 23 24 23 21 19
45 45 44 50 47 43 38 36 34 35 33 30 34 33 28 31 28 27 28 33 26 24 20 22 21 23 25 27 29 29 28 30 28 28 25 23 25 26 25 25 25 25 24 23 22 21 21 21 22 22 20 18 18 17
49 43 49 48 41 39 37 41 36 37 34 32 31 33 28 26 26 25 32 25 21 21 25 24 24 25 24 23 24 25 25 26 26 26 25 25 24 24 23 24 24 22 22 22 22 20 20 21 21 20 19 18 19 18
44 47 44 41 33 32 28 39 31 34 27 28 31 26 26 27 28 35 23 24 21 25 26 25 25 26 24 24 25 25 26 26 25 24 25 25 25 25 25 24 25 23 21 22 23 21 17 16 16 18 18 18 17 16
42 33 30 32 32 25 32 30 36 32 31 28 26 22 23 26 30 26 20 22 23 26 25 25 27 25 26 27 26 25 26 28 26 25 26 26 24 23 24 23 22 22 23 23 21 19 18 16 15 18 16 16 16 16
33 24 29 25 32 28 26 26 26 27 23 25 22 22 23 28 23 21 19 21 23 24 25 27 28 29 26 25 25 24 25 28 26 23 23 25 23 23 22 22 21 20 23 20 18 17 16 17 17 17 17 16 13 12
22 23 26 27 27 28 28 24 24 25 25 21 21 24 26 25 21 18 23 24 23 24 24 25 26 26 26 27 25 25 23 26 26 23 22 23 22 21 21 19 20 18 21 20 19 18 16 16 15 12 13 11 7 11
21 21 25 29 31 30 27 28 31 27 23 20 22 22 23 18 16 19 25 27 26 27 29 29 29 28 26 24 23 23 23 23 21 21 21 21 21 21 20 18 15 17 20 18 18 18 17 15 14 14 14 15 14 12
22 23 18 20 21 26 21 22 21 20 21 26 26 17 17 18 17 22 24 25 26 27 27 27 27 27 25 23 22 21 19 18 18 19 20 19 19 18 16 16 14 11 15 14 16 16 16 16 15 14 13 12 13 14
20 23 20 10 17 17 16 18 18 19 22 25 20 17 15 18 22 21 22 25 26 25 21 20 19 21 20 21 21 22 22 22 17 11 10 16 17 15 18 18 17 17 18 16 10 12 12 13 13 12 13 13 14 12
18 24 16 13 12 12 13 18 16 19 22 22 21 18 16 17 20 24 24 24 23 22 22 21 21 21 18 18 16 16 19 19 17 16 16 15 15 16 16 16 16 15 16 16 15 15 9 12 12 11 10 11 12 12
24 23 17 16 13 15 17 18 20 21 21 22 23 19 16 16 18 20 21 22 22 21 19 18 18 20 18 18 19 16 16 15 10 11 14 15 16 16 15 14 15 16 15 14 13 12 12 11 12 11 10 10 9 8
21 18 15 12 13 17 19 21 20 19 20 19 18 19 19 20 16 18 19 21 20 20 18 21 19 18 19 17 16 14 13 13 12 12 11 14 15 12 14 14 12 13 12 11 11 10 9 8 9 9 9 9 8 7
20 21 20 18 15 16 18 21 21 18 21 19 18 19 18 20 14 16 18 19 20 21 19 19 18 17 15 15 15 14 14 12 9 8 7 5 5 8 12 13 12 11 9 10 10 9 7 7 7 8 7 6 6 5

GFSWCAN_sfc_temp_084.txt.gz
Temp
47 47 47 47 47 47 48 48 48 49 49 49 49 49 49 49 49 46 45 52 44 38 42 49 51 46 48 47 38 43 36 39 35 32 33 37 36 42 42 46 42 39 34 33 36 33 30 60 58 48 51 56 57 57
46 47 47 47 47 47 48 48 48 49 49 49 49 49 49 49 49 48 40 50 51 41 44 53 54 56 53 51 39 41 39 40 44 39 42 42 36 41 42 36 51 38 45 40 42 42 56 57 54 58 58 56 56 56
46 46 46 47 47 48 48 48 48 48 48 49 49 49 50 49 49 47 42 46 44 39 42 45 44 54 58 56 53 39 40 45 43 46 40 41 37 46 36 41 43 46 53 39 44 46 47 47 53 57 58 55 56 57
46 46 47 47 48 48 48 48 48 48 48 48 49 49 50 49 49 48 41 45 42 39 33 41 56 50 58 59 57 54 50 50 49 44 38 39 36 51 43 47 45 47 46 47 46 47 45 45 49 51 54 54 53 55
45 46 47 47 47 47 47 47 47 47 47 48 49 49 49 50 49 47 43 46 46 46 36 41 52 57 58 55 53 52 48 46 41 36 35 37 47 46 48 48 42 46 41 40 37 44 42 41 48 51 50 50 50 50
46 47 47 47 47 47 47 47 47 47 47 48 48 49 49 49 49 40 33 44 50 51 38 34 50 52 54 52 49 49 47 45 40 37 38 45 52 45 37 38 40 47 48 46 41 47 49 49 45 47 45 46 46 45
46 46 47 46 46 47 47 47 48 47 47 48 48 49 49 48 43 40 41 45 49 48 37 34 37 49 52 50 47 46 47 42 40 38 39 43 44 45 39 34 35 42 46 45 46 46 45 44 39 45 46 46 46 44
46 46 46 46 46 46 47 47 48 47 48 48 48 48 48 47 47 44 51 49 51 42 42 33 34 40 50 40 38 46 39 39 39 38 42 42 45 41 32 35 39 40 43 41 42 46 44 45 45 44 45 44 42 38
45 45 45 46 46 47 47 47 47 47 47 47 48 46 44 42 39 43 49 50 52 45 36 35 33 32 46 40 39 38 38 33 38 34 37 43 36 26 29 33 35 36 36 37 41 45 41 40 39 39 38 36 34 33
45 45 46 46 46 46 46 46 46 46 46 47 45 39 33 42 48 47 42 37 38 41 41 36 43 35 43 40 38 36 37 35 32 36 44 36 26 32 34 36 36 37 38 38 34 32 33 32 33 33 32 32 31 29
46 46 46 46 46 46 46 46 47 48 47 44 39 36 43 49 45 40 33 35 36 34 41 42 42 36 42 36 36 41 35 36 31 34 34 32 26 28 34 34 36 36 36 36 35 33 32 31 30 30 29 29 28 27
46 46 46 46 46 47 47 46 46 45 46 45 41 43 43 40 38 35 33 37 38 34 39 37 37 41 39 40 38 37 33 35 29 36 32 24 25 30 32 31 32 32 32 31 32 30 29 29 29 28 27 25 25 25
45 45 45 46 47 47 47 47 48 47 50 50 43 37 39 36 30 31 28 32 31 34 35 36 33 37 37 38 33 34 31 30 38 31 23 23 26 29 29 29 29 29 29 28 27 27 27 25 26 26 23 24 23 21
45 44 44 44 44 45 46 46 48 50 48 38 34 27 30 28 27 27 29 30 31 33 34 35 35 35 35 35 33 30 31 33 29 26 20 22 24 26 27 28 26 24 24 24 23 23 21 21 20 21 21 20 19 18
44 45 45 45 44 44 46 47 48 48 41 32 34 25 26 29 31 31 33 33 33 35 35 36 36 36 33 31 33 31 28 25 24 20 22 24 25 25 25 25 24 23 22 22 22 21 20 19 19 18 19 19 18 18
46 47 45 45 45 46 46 49 49 46 39 32 29 28 30 31 29 30 31 30 33 34 37 39 33 30 28 31 29 25 26 21 20 23 25 26 24 24 23 24 24 24 24 23 22 21 20 19 18 17 18 18 17 17
45 47 44 45 45 46 47 47 43 36 32 29 26 30 30 28 27 28 30 31 35 34 31 34 28 25 34 27 22 23 19 21 23 24 25 25 24 23 24 24 24 24 23 23 22 22 21 21 21 20 17 18 18 18
46 45 45 46 48 48 47 45 38 34 26 29 26 26 28 29 28 29 30 33 35 35 34 28 35 25 21 21 19 20 22 24 25 24 24 24 24 24 25 24 24 24 23 23 23 23 22 21 21 19 19 20 20 19
48 49 44 45 48 47 39 39 41 27 27 29 29 31 31 30 32 33 33 35 36 38 34 30 24 21 21 24 22 23 25 25 22 23 23 24 24 24 24 24 24 24 23 24 24 22 22 22 23 23 23 23 21 21
45 45 45 45 46 43 36 36 44 33 28 29 33 30 30 29 31 31 32 34 33 30 24 22 22 23 24 26 28 27 27 28 27 23 23 25 26 25 24 25 25 25 24 24 24 23 23 22 23 22 22 22 20 18
48 47 46 50 47 45 40 37 34 34 33 30 33 32 28 31 29 29 28 33 26 24 20 23 22 24 26 28 30 30 27 29 26 27 25 23 26 26 26 26 26 26 24 23 22 21 21 20 22 22 20 18 17 16
48 44 49 47 40 40 37 41 36 38 33 32 32 33 28 26 26 27 31 24 22 23 25 24 25 25 25 24 25 27 27 27 27 27 26 26 24 24 23 24 24 22 22 22 22 20 20 21 21 20 18 18 17 15
43 48 45 41 33 32 29 40 33 35 28 28 32 28 27 27 29 35 23 23 22 27 28 27 26 26 24 25 27 27 28 27 25 25 25 25 26 26 25 25 25 23 21 21 23 20 16 14 16 17 17 18 16 15
44 34 32 32 33 26 33 31 36 33 32 29 27 24 26 27 32 27 20 22 24 27 26 25 27 26 27 28 26 26 27 29 27 26 27 26 24 22 24 23 22 22 22 22 21 19 18 16 13 17 17 16 15 15
34 26 30 27 33 29 27 28 28 29 24 27 24 24 24 30 25 23 21 20 23 24 26 28 29 29 26 25 25 24 27 28 26 23 24 25 24 23 22 22 20 20 22 20 18 17 16 17 17 16 16 15 14 13
23 25 28 29 29 29 29 25 26 26 26 24 24 26 28 27 22 20 23 23 24 25 25 26 27 27 27 28 26 24 23 27 27 23 22 23 22 21 20 19 19 16 20 19 19 17 15 15 15 13 13 10 3 8
23 23 27 33 34 32 29 31 33 29 25 22 24 24 26 20 18 20 26 28 26 27 29 31 31 29 26 24 24 23 23 22 21 21 22 21 21 20 18 15 14 15 19 18 17 17 16 14 14 13 14 15 14 12
25 26 19 24 25 28 25 25 25 23 24 29 28 20 20 20 18 24 25 28 28 29 28 28 29 28 26 23 22 21 19 19 19 20 20 20 20 18 16 15 13 13 13 11 13 15 15 15 15 14 13 12 12 13
23 25 21 13 20 19 19 20 21 22 24 28 22 18 16 21 24 23 25 26 27 26 22 20 20 22 22 23 23 23 23 22 19 13 14 16 16 13 17 17 17 16 17 15 9 12 13 12 12 9 11 12 13 12
20 27 18 16 14 13 16 21 19 22 24 22 21 19 19 20 23 27 26 25 24 22 22 22 22 21 18 18 17 17 19 19 16 15 15 13 13 15 16 16 15 15 15 15 15 14 11 12 13 11 8 11 12 12
27 25 20 18 15 16 19 23 25 25 24 21 22 17 16 17 19 22 23 24 23 23 22 21 20 21 19 19 19 16 14 13 11 12 15 16 16 15 14 13 14 15 15 14 12 12 11 9 11 11 11 10 9 8
25 20 17 13 13 20 22 23 21 19 19 19 18 20 20 20 16 18 21 23 22 21 20 21 19 17 18 17 16 14 13 13 13 13 14 15 14 13 13 13 13 13 12 10 11 10 10 9 8 9 8 8 8 6
22 21 20 17 15 17 20 23 22 20 21 20 19 20 20 20 14 16 20 21 22 22 20 18 18 17 16 17 15 15 13 10 7 9 7 5 3 6 10 13 12 11 10 10 10 10 9 8 7 7 6 5 5 5

GFSWCAN_sfc_temp_087.txt.gz
Temp
47 47 47 47 47 47 47 47 48 48 49 49 49 49 49 49 49 45 42 47 41 34 39 42 44 38 40 36 29 37 34 36 34 28 27 28 26 34 35 40 36 33 30 28 30 26 26 53 54 43 45 51 52 50
46 47 47 47 47 47 47 48 48 48 48 48 49 49 49 49 49 48 40 47 47 37 38 45 47 48 46 47 38 38 37 35 38 32 32 32 28 33 33 29 43 30 38 32 35 34 43 47 47 49 53 49 50 48
46 46 46 46 46 47 47 48 48 48 48 48 48 49 49 49 49 48 42 44 42 37 37 37 38 47 51 48 47 37 39 43 40 42 37 36 30 37 30 33 37 38 45 38 38 41 42 43 47 51 50 48 50 50
46 46 45 46 47 47 48 48 48 48 48 48 48 48 49 49 49 49 41 44 41 38 30 35 49 43 51 50 47 45 45 45 44 41 36 34 33 42 35 40 37 39 42 40 39 40 41 42 43 47 49 49 49 49
45 45 45 46 47 47 47 48 48 47 48 48 48 48 49 50 50 48 44 44 45 40 31 34 44 48 49 47 45 46 44 41 38 36 34 33 38 39 40 40 35 41 35 34 31 36 39 38 42 47 44 44 44 41
45 46 46 46 47 47 47 47 47 47 47 48 48 48 49 50 50 38 33 43 46 47 36 29 42 43 47 45 44 43 42 39 39 37 35 38 44 39 34 32 35 40 42 40 34 39 42 42 43 45 43 43 41 38
45 45 46 46 47 47 47 47 47 47 48 48 48 48 49 49 43 38 36 41 47 45 35 31 31 42 46 43 39 40 42 41 38 37 36 37 39 41 33 29 32 34 38 39 43 43 39 41 39 42 42 43 41 38
45 46 46 46 46 47 47 47 48 48 47 47 48 48 49 47 47 41 45 47 47 40 39 29 30 34 43 36 35 42 38 39 38 37 38 37 39 37 27 32 35 35 38 37 39 39 38 39 39 38 37 36 34 32
45 45 45 46 46 46 47 47 48 48 48 48 48 47 44 41 38 41 48 48 46 41 32 31 27 29 41 37 37 37 38 32 38 33 34 37 30 23 27 29 31 33 33 33 37 36 35 33 33 34 33 31 29 27
45 45 46 46 46 46 46 47 47 47 46 46 45 38 32 41 47 47 41 38 38 39 37 32 36 32 39 35 34 33 33 32 30 33 39 27 23 29 31 33 33 33 33 33 28 27 28 28 29 28 27 27 26 25
46 46 46 46 46 46 46 46 47 47 47 42 36 35 43 48 42 38 32 32 33 30 34 35 36 33 39 32 32 33 31 32 26 31 31 27 22 25 30 29 31 31 31 30 30 28 27 28 26 25 24 24 23 23
46 46 46 46 46 47 47 47 47 45 43 42 41 43 43 39 36 33 29 32 30 29 34 34 35 37 35 37 34 34 30 31 27 34 30 19 22 26 27 27 27 27 27 26 27 25 24 25 25 24 23 22 21 21
46 46 47 46 46 46 47 47 47 47 46 45 40 35 35 32 27 23 22 27 27 30 32 34 33 34 35 37 33 32 29 28 30 25 16 18 23 25 25 26 25 26 26 24 23 23 23 22 23 22 20 20 19 18
45 45 46 46 45 46 47 48 48 47 43 34 30 19 25 24 24 25 27 28 30 32 33 33 32 32 33 31 32 25 27 29 26 16 11 18 21 22 23 24 22 19 20 18 18 17 16 16 15 16 16 16 16 15
44 44 44 44 45 47 47 48 47 43 36 28 29 20 21 26 28 29 31 30 31 33 33 33 30 31 30 25 30 27 26 19 18 10 16 19 20 20 22 23 17 17 15 17 14 14 11 11 13 14 14 15 16 15
45 45 43 45 46 47 47 46 43 40 32 27 26 25 28 24 25 27 29 29 32 32 33 31 27 26 23 27 25 18 20 10 12 17 20 18 18 18 19 20 20 20 19 18 16 16 16 14 13 13 14 14 13 13
44 41 45 45 46 47 48 41 36 32 29 26 22 24 25 23 24 24 25 26 30 30 25 30 25 21 28 20 14 17 11 14 19 20 21 21 20 18 17 20 20 19 16 15 15 15 14 16 16 17 13 13 15 14
41 42 45 46 46 45 41 39 32 29 24 25 21 21 21 26 24 24 25 30 30 28 27 23 27 18 11 14 12 17 19 20 21 20 20 17 18 17 16 14 14 16 18 18 17 18 17 17 17 16 16 16 17 17
43 43 45 45 45 40 34 34 33 25 24 24 26 25 26 25 27 29 28 26 27 28 26 23 18 17 16 18 16 16 16 15 15 13 15 14 14 14 14 16 19 19 21 21 20 19 19 20 20 20 20 20 17 17
46 45 45 45 45 36 32 30 36 28 24 24 27 25 26 25 27 22 24 27 27 25 20 18 16 19 20 22 22 21 18 20 19 16 16 16 18 19 20 21 18 18 19 20 20 20 19 19 20 19 17 16 14 12
45 43 45 45 39 38 33 30 29 28 28 25 29 27 24 25 21 20 20 27 21 19 16 18 17 19 22 23 24 22 23 23 23 20 15 18 21 20 19 20 20 21 19 16 14 16 17 15 16 16 11 4 3 3
42 45 40 40 33 34 31 34 30 31 29 27 27 29 25 20 17 19 24 19 18 20 19 18 18 20 19 17 15 18 16 21 20 20 19 21 19 15 14 17 16 12 12 12 15 10 9 11 12 11 8 8 8 5
43 43 36 34 27 25 25 33 27 30 22 23 26 24 22 19 23 28 14 20 19 22 22 21 21 22 19 19 24 25 23 21 16 15 16 13 14 14 14 14 16 12 12 10 13 9 5 4 6 2 3 4 1 -2
40 31 28 26 27 23 27 26 30 27 25 24 22 20 21 19 25 18 14 15 16 20 21 22 22 21 23 25 20 20 21 22 19 18 17 18 14 12 14 13 12 10 12 13 13 9 5 -0 2 4 -0 0 0 2
25 21 23 17 25 20 18 19 22 23 17 21 19 15 16 23 15 13 11 14 18 14 17 22 24 24 19 15 16 17 22 22 19 14 15 16 13 13 13 14 12 12 13 12 7 2 -0 0 0 5 5 1 1 -4
13 16 20 21 22 21 21 15 17 18 18 15 15 19 18 16 10 9 15 16 19 17 14 18 19 19 20 21 18 15 14 18 19 14 13 16 14 7 7 7 9 8 9 3 3 5 1 -0 2 -1 -6 -4 -4 -7
13 15 24 30 28 28 22 24 26 20 14 11 13 12 11 3 3 15 21 19 20 20 23 23 24 21 17 16 17 16 15 15 14 15 15 15 14 12 6 2 3 5 9 6 2 2 4 -0 -4 -3 -3 -4 -3 -4
19 22 10 19 18 22 17 16 15 12 13 21 17 6 4 4 9 18 21 24 23 23 20 20 22 21 18 16 14 11 7 8 9 11 12 10 7 4 2 0 0 8 -2 -4 -3 -3 -0 1 2 2 -0 -5 -6 -4
15 19 16 8 12 13 12 12 12 15 18 18 7 5 7 17 19 20 21 21 21 18 15 14 11 13 14 13 11 13 12 10 8 0 -2 2 2 1 1 3 1 -0 5 3 5 1 -1 -3 -5 -7 -6 -6 -6 -6
15 21 12 9 6 7 11 16 9 12 16 14 17 18 17 18 20 20 18 18 17 15 10 9 8 8 6 9 5 8 9 4 1 1 2 1 1 1 -1 1 3 -0 -2 -2 1 2 7 1 3 -4 -2 -3 -0 -2
22 18 12 11 7 11 18 20 19 18 16 16 14 12 9 13 14 19 21 19 17 15 15 14 11 9 10 8 7 7 1 0 -2 -2 -0 -1 4 1 -4 -4 -4 -4 -1 -3 -5 -5 -6 -8 -9 -4 -2 -4 -7 -9
16 11 8 5 8 14 20 13 11 14 13 10 6 6 6 8 6 11 16 14 14 14 12 11 12 9 9 8 7 8 6 2 -2 -3 1 5 -4 -5 -3 -2 -3 -3 -6 -6 -5 -6 -7 -8 -10 -10 -10 -9 -10 -12
15 13 12 9 7 8 13 14 12 14 12 12 14 16 11 9 5 7 11 15 18 16 14 13 12 10 10 9 7 5 1 -2 -5 2 -1 -3 -6 -2 1 -4 -4 -5 -7 -7 -8 -7 -7 -6 -10 -11 -11 -13 -13 -15

GFSWCAN_sfc_temp_090.txt.gz
Temp
47 47 47 46 47 47 47 47 48 48 48 48 49 49 49 49 49 46 42 46 39 30 36 39 40 34 37 36 30 34 30 35 33 29 28 27 24 31 31 37 34 32 29 28 27 27 24 45 49 38 42 48 48 48
46 46 46 46 46 47 47 47 47 47 48 48 49 49 49 49 49 48 40 46 46 35 36 43 43 44 43 42 36 37 35 35 36 32 31 30 25 26 30 26 40 31 35 31 33 32 42 45 43 47 48 45 45 45
46 46 46 46 46 46 46 46 47 48 48 48 49 49 49 49 49 48 42 43 41 35 35 36 37 44 48 45 45 32 37 40 39 40 36 35 30 33 26 29 33 35 40 36 37 39 40 42 44 46 46 44 45 44
46 46 46 46 46 46 46 47 47 48 48 48 49 49 49 49 49 49 42 43 40 37 29 34 46 40 49 46 43 43 44 45 44 40 35 33 30 39 34 36 33 37 39 34 37 39 39 40 41 43 44 44 42 40
46 45 45 46 46 46 46 47 47 47 48 48 48 49 49 49 50 48 45 44 44 39 28 32 41 45 46 44 43 42 41 40 36 34 32 32 34 36 37 36 31 35 32 32 30 34 36 35 39 41 39 38 38 37
45 45 45 45 46 46 46 47 47 47 47 48 48 48 49 49 49 39 33 42 45 43 35 30 38 40 42 41 39 40 42 37 37 35 35 38 42 36 31 30 33 35 35 34 33 35 36 38 40 41 40 38 37 34
44 45 45 45 45 46 46 47 47 47 47 47 47 48 48 48 43 39 36 39 46 44 35 30 31 39 41 39 37 37 38 38 39 37 35 37 37 37 31 24 30 33 33 34 33 38 35 36 34 38 39 38 36 33
45 45 45 45 46 46 46 46 46 47 47 48 48 48 48 48 46 41 45 46 46 38 38 26 25 32 40 34 33 37 34 36 38 37 37 36 37 34 22 28 31 32 33 33 33 34 33 36 36 34 35 35 31 29
44 44 44 45 46 46 46 46 47 48 48 48 48 48 44 41 38 41 47 47 45 39 32 30 21 23 39 34 37 37 38 32 37 33 33 36 27 22 25 26 27 29 29 30 32 32 32 30 30 30 29 28 27 26
44 45 45 45 46 47 47 47 48 47 47 46 44 37 32 40 47 46 41 36 36 38 35 31 32 30 36 35 34 33 34 32 29 32 35 26 22 26 28 29 29 28 29 30 27 25 27 27 26 25 25 25 25 24
45 45 46 46 46 46 46 47 46 47 47 41 37 36 42 48 42 36 31 31 33 30 31 31 34 33 36 32 32 31 31 32 28 31 31 24 21 23 26 26 27 28 27 26 26 25 26 26 25 24 23 23 23 22
44 46 46 46 46 46 46 46 47 44 42 42 41 43 42 38 35 31 29 31 30 27 32 30 35 36 35 38 33 34 30 31 26 34 23 14 20 24 25 24 24 26 25 24 24 23 24 24 23 23 22 21 19 19
46 46 46 46 46 46 45 46 48 48 47 44 38 33 34 29 27 18 23 27 28 31 33 34 31 33 34 37 31 31 26 23 32 20 15 17 22 24 24 24 23 24 24 22 21 22 22 21 22 22 19 19 18 15
46 45 46 47 47 47 46 48 48 46 42 34 28 14 19 12 18 18 25 27 30 32 33 30 32 32 33 30 31 27 26 28 23 7 9 17 20 21 22 23 21 18 17 16 14 15 14 14 13 13 12 13 12 12
45 45 45 45 47 47 47 47 46 40 33 27 25 13 15 22 24 29 29 30 31 33 33 32 30 30 27 24 28 27 25 8 12 8 14 17 17 20 20 19 15 13 11 12 9 10 7 8 11 12 12 12 12 11
45 45 42 44 46 48 47 45 40 37 30 27 25 23 25 20 20 25 27 26 31 31 33 30 24 21 20 24 19 14 16 7 8 9 15 17 15 15 15 17 15 13 13 12 11 11 10 7 6 7 7 8 6 8
45 40 44 45 47 47 46 38 33 30 26 24 20 21 18 17 19 24 26 26 30 29 20 23 17 17 24 14 10 13 6 10 16 18 18 14 13 11 12 14 13 12 11 9 9 10 8 9 10 13 9 8 12 11
38 42 45 46 45 43 39 35 29 27 22 22 20 21 14 17 20 20 25 25 26 25 25 21 24 15 7 9 8 13 16 18 17 15 15 15 15 9 12 10 8 10 8 9 11 10 11 10 12 10 12 15 15 15
40 41 45 46 44 38 33 31 31 21 21 21 22 22 22 21 24 24 23 24 24 26 26 21 15 13 12 15 14 10 8 10 15 11 9 6 9 10 8 10 11 10 15 15 16 17 17 18 17 17 17 18 15 14
45 45 45 46 45 35 31 29 32 26 21 22 25 23 23 20 22 18 24 26 26 23 17 14 12 13 14 11 10 15 15 17 16 13 8 10 10 12 10 12 11 12 15 15 16 19 18 17 18 17 16 15 12 10
43 42 44 42 37 35 31 28 26 26 26 23 26 26 22 24 19 17 19 25 18 17 12 13 14 18 17 15 18 22 17 20 14 15 13 14 10 15 15 16 19 20 17 13 13 13 13 13 14 12 2 -5 -3 2
38 44 36 37 31 31 29 29 27 27 26 25 25 27 17 10 10 15 23 17 16 14 14 15 15 18 18 15 16 17 13 21 20 18 16 17 14 13 12 12 11 6 10 10 11 5 5 10 10 6 1 -4 -0 1
42 39 32 31 23 21 23 30 24 27 19 21 23 21 16 14 20 26 12 18 16 16 16 17 17 20 19 17 22 21 20 20 15 13 14 13 13 9 11 10 11 9 8 7 9 6 3 2 4 -2 -3 -3 -4 -8
38 30 24 20 22 17 21 20 28 26 23 22 19 16 16 17 23 14 11 12 14 17 18 20 21 20 22 22 18 18 20 20 17 15 13 15 12 9 12 10 9 7 10 11 8 3 1 -5 -3 -2 -3 -3 -4 -1
24 20 21 13 19 15 12 12 17 19 12 15 13 12 15 21 10 8 7 11 12 10 15 20 21 20 15 11 13 15 19 20 16 13 12 12 8 10 10 11 10 9 9 3 -1 -4 -6 -8 -6 -6 -5 -7 1 -6
12 13 17 13 14 17 16 11 11 13 13 11 12 16 15 9 4 4 12 10 7 10 8 14 19 17 16 18 14 13 12 15 17 11 10 13 10 6 3 2 1 3 5 -2 1 -2 -5 -8 -8 -7 -10 -7 -8 -12
7 8 21 27 26 25 19 19 23 16 9 9 11 8 4 -3 -3 10 15 13 15 12 18 22 22 18 14 13 13 12 12 13 12 12 12 12 10 8 3 3 1 3 4 -1 -3 -5 -5 -8 -10 -11 -10 -9 -8 -8
17 16 10 12 13 17 10 11 9 8 8 17 13 1 -1 2 6 15 17 18 17 18 18 19 19 18 15 12 10 9 6 7 9 10 10 7 4 -2 -3 -4 -2 4 -7 -10 -10 -9 -5 -3 -5 -9 -10 -9 -8 -5
8 14 14 7 9 10 10 8 7 12 16 12 2 -0 5 15 14 17 15 16 18 17 14 12 6 10 11 10 8 7 2 4 3 -2 -5 -5 -6 -0 -3 -6 -7 -7 -6 -4 1 -5 -7 -9 -10 -10 -10 -10 -12 -15
11 16 8 3 2 3 5 10 4 3 12 10 15 17 14 15 18 17 17 15 13 9 4 12 6 10 7 6 1 0 -1 -5 -3 0 -6 -7 -4 -4 -7 -6 -6 -9 -10 -9 -6 -3 2 -6 -4 -9 -9 -9 -7 -8
17 11 4 2 2 8 6 10 14 11 4 5 3 3 5 11 14 18 15 9 13 12 12 6 1 1 6 3 -0 -3 -4 -3 -6 -5 -1 -2 -6 -10 -10 -11 -12 -12 -12 -13 -14 -14 -15 -16 -17 -16 -15 -13 -14 -16
4 -1 1 1 5 9 9 1 -0 1 -0 -1 -1 -4 2 3 3 8 14 9 11 10 4 6 7 4 2 3 3 1 3 -1 -7 -3 -6 -8 -14 -14 -12 -11 -13 -14 -14 -13 -13 -13 -14 -15 -17 -17 -16 -17 -19 -19
3 1 -1 1 3 3 7 6 3 4 -1 -0 1 3 5 1 0 5 10 11 9 10 8 5 7 6 5 4 3 0 -1 -7 -7 1 -4 -6 -8 -7 -14 -16 -15 -16 -12 -15 -15 -16 -14 -12 -15 -16 -18 -19 -19 -21

GFSWCAN_sfc_temp_093.txt.gz
Temp
47 47 47 47 47 47 47 47 47 48 48 48 48 49 49 49 49 46 42 45 38 26 33 37 38 33 34 35 30 33 30 33 32 25 26 27 25 31 31 34 31 29 25 24 27 26 22 42 43 36 41 43 45 44
46 46 47 47 47 47 46 47 47 47 47 47 48 48 49 49 49 48 40 45 46 36 33 39 41 42 40 39 33 34 33 34 36 32 31 31 24 25 29 24 37 27 33 30 31 30 41 43 41 43 43 40 40 42
46 46 46 46 47 46 46 47 47 47 47 47 48 49 49 49 49 48 43 43 40 35 34 32 34 43 45 42 44 31 34 38 35 39 34 33 31 31 23 24 32 36 37 33 34 39 39 40 41 42 41 38 38 39
46 46 46 46 46 46 46 46 46 46 47 48 49 50 50 50 50 49 42 43 40 36 28 32 44 38 45 44 42 42 40 43 42 39 34 32 29 36 32 36 32 33 35 31 34 36 38 37 39 38 36 39 37 35
45 46 46 46 45 46 46 46 46 46 47 48 49 50 49 49 50 48 45 43 44 39 28 31 40 43 43 43 41 41 40 39 36 34 32 28 33 34 34 34 29 33 30 28 28 32 35 34 36 38 35 33 35 34
45 45 45 45 45 45 46 46 46 47 47 48 48 49 49 49 49 41 33 42 45 43 35 29 38 37 38 40 40 37 37 38 38 36 34 38 42 36 31 27 30 33 34 32 32 34 33 34 36 37 35 34 34 32
45 45 45 45 45 45 46 46 46 47 47 47 48 48 48 48 44 39 35 40 46 43 34 29 30 36 39 38 35 34 37 37 37 35 34 36 37 38 29 24 28 32 32 31 32 35 32 32 30 36 36 34 33 30
44 44 45 45 45 45 45 45 46 47 47 47 47 47 48 48 46 40 44 47 46 39 37 27 24 29 39 31 33 34 32 35 35 34 36 35 35 32 23 26 28 30 32 30 30 33 32 33 32 31 31 32 29 27
44 44 45 45 45 45 45 46 46 46 47 47 47 47 45 41 37 41 47 47 44 39 31 30 22 19 38 34 34 33 34 30 34 33 33 34 25 17 23 25 25 27 27 28 30 30 30 29 27 26 27 26 26 25
44 44 44 44 45 45 46 46 47 47 48 48 44 36 32 40 46 45 40 35 34 36 35 29 27 27 36 33 33 31 34 31 28 32 32 24 18 23 25 26 26 26 27 27 27 24 26 26 24 24 23 24 23 22
44 44 44 45 45 46 47 46 47 47 47 41 34 33 42 47 40 36 30 31 32 29 33 31 32 30 36 31 31 33 31 32 26 31 28 20 19 21 25 25 26 26 25 25 25 25 25 25 24 23 22 23 22 20
44 45 45 46 46 46 47 47 47 43 41 41 41 43 41 36 34 30 28 30 30 26 30 32 34 36 32 34 33 33 28 31 25 31 23 12 20 23 24 23 23 24 24 23 24 23 23 23 23 22 20 18 17 17
43 45 45 45 45 47 47 47 47 47 47 43 37 33 33 29 24 26 23 26 27 32 34 34 32 33 33 34 32 30 26 26 29 17 11 15 21 23 23 23 22 23 22 22 21 22 21 20 21 21 18 18 16 14
45 46 46 46 45 46 47 47 48 45 39 31 27 13 17 9 16 16 22 23 26 32 33 32 32 32 32 27 29 22 23 26 13 8 10 17 19 20 21 22 19 15 15 14 13 13 13 13 11 11 9 6 6 6
47 46 46 45 45 45 46 46 45 38 31 25 24 10 13 20 20 27 30 31 31 33 33 31 29 30 25 23 24 23 18 9 11 7 9 16 19 19 17 17 13 12 8 9 8 8 3 5 7 7 7 5 7 4
45 44 42 45 47 45 46 43 40 37 29 25 22 20 23 19 23 26 27 28 31 32 32 29 25 22 20 20 17 12 17 10 8 8 15 18 17 18 18 17 14 11 9 7 6 7 7 4 5 4 6 6 3 4
44 39 43 44 46 46 45 37 32 29 25 22 17 21 16 16 22 24 25 26 30 28 21 24 17 20 22 13 9 12 7 9 14 16 10 10 12 10 9 11 10 10 8 6 6 7 5 6 7 12 9 10 11 10
38 41 44 47 45 43 38 34 29 27 21 20 18 20 18 18 23 23 23 27 28 26 25 19 23 14 7 9 7 10 13 12 10 12 7 6 6 5 11 9 5 8 6 6 9 7 8 8 10 10 13 13 14 14
41 43 46 46 43 37 32 29 29 20 20 21 21 22 22 19 23 24 24 25 23 24 23 19 13 10 9 11 6 7 7 8 14 10 9 5 8 10 7 5 7 8 12 12 15 14 14 15 15 15 15 16 14 13
45 45 45 46 44 33 30 27 31 25 20 22 25 24 23 20 22 17 23 25 24 22 15 12 10 13 13 9 6 14 9 14 16 12 14 15 7 7 6 10 9 11 16 16 15 17 16 16 16 15 15 14 12 11
42 41 43 41 35 34 30 27 25 26 26 23 27 26 20 23 19 18 20 25 18 15 10 9 16 17 10 10 17 18 17 19 12 14 11 12 9 13 13 10 14 13 11 7 8 9 9 8 9 9 -1 -7 -5 1
39 43 36 36 31 31 28 28 27 26 25 24 24 25 17 14 13 16 22 16 14 12 11 13 13 15 17 14 10 14 14 17 16 16 15 15 14 11 8 6 9 8 12 9 10 2 4 7 6 4 -4 -8 -3 -1
41 38 30 29 23 21 20 29 23 26 17 19 22 19 15 14 19 25 11 16 12 13 15 17 16 19 17 15 20 20 19 18 14 13 13 10 9 6 8 6 7 6 4 5 7 4 2 1 5 -4 -6 -6 -5 -8
37 27 20 18 21 19 19 16 27 24 21 20 18 14 15 14 20 12 9 9 12 18 18 20 20 19 20 20 16 17 17 18 15 13 13 13 10 7 9 8 6 5 8 8 6 0 -2 -7 -5 -2 -7 -8 -9 -5
25 19 18 11 17 14 10 8 13 17 10 12 11 10 14 18 7 4 6 9 13 11 13 18 20 19 14 9 12 13 17 18 15 11 9 11 8 9 8 9 7 7 7 -1 -4 -5 -9 -13 -13 -11 -9 -9 -2 -6
12 11 16 10 11 14 13 9 8 9 8 7 8 12 11 7 2 1 10 9 5 8 5 13 13 15 14 15 13 11 11 14 15 10 8 11 9 5 2 1 -0 2 3 -4 -2 -6 -7 -10 -11 -8 -11 -9 -10 -14
9 8 19 25 23 22 14 16 20 14 9 9 9 9 3 -3 -4 7 11 11 13 11 17 18 20 18 14 11 11 10 11 11 11 11 10 9 8 6 3 -0 0 3 3 -4 -8 -7 -3 -7 -12 -13 -13 -16 -16 -14
16 14 12 10 10 15 6 6 5 5 6 15 12 0 -0 1 4 12 12 12 16 18 16 16 17 16 13 10 9 8 7 7 7 7 6 6 3 -2 -4 -5 -3 4 -9 -13 -12 -12 -9 -8 -8 -11 -12 -10 -11 -10
8 12 13 5 7 8 9 7 7 12 15 11 -0 -1 4 13 10 11 13 10 17 16 12 9 5 9 7 5 3 2 2 7 1 -5 -9 -9 -9 -3 -9 -11 -11 -11 -13 -8 -2 -7 -8 -11 -11 -12 -12 -13 -14 -18
9 13 6 0 1 4 5 8 3 5 12 9 12 13 11 11 16 15 10 9 11 10 6 9 7 8 4 4 -2 0 -2 -7 -4 -0 -4 -6 -4 -8 -14 -11 -11 -13 -16 -13 -11 -9 -2 -10 -7 -14 -16 -15 -16 -17
14 9 4 4 3 3 6 3 5 5 -0 -0 -1 1 3 10 15 16 13 8 10 10 8 2 -1 -2 2 -1 -4 -2 -1 -1 -6 -4 -4 -5 -9 -11 -11 -12 -15 -16 -17 -16 -16 -17 -18 -20 -21 -20 -17 -15 -17 -20
4 -1 1 0 4 5 4 -2 -2 2 -0 -0 3 -3 -1 0 -0 6 11 6 6 4 -2 4 5 0 -4 -3 -3 -1 3 1 -1 -2 -5 -10 -14 -17 -16 -15 -19 -18 -17 -18 -19 -18 -17 -18 -20 -20 -20 -19 -21 -21
-2 -5 -6 -1 3 4 4 4 0 -0 -4 -2 2 -2 -5 -3 -1 3 8 8 6 7 3 -2 1 1 1 2 1 -0 -1 -3 -4 2 -2 -6 -11 -12 -19 -21 -20 -19 -16 -18 -20 -19 -17 -15 -18 -19 -20 -22 -22 -23

GFSWCAN_sfc_temp_096.txt.gz
Temp
47 47 47 47 47 47 48 47 47 47 48 48 48 48 48 48 49 45 41 44 37 26 30 35 36 32 32 33 29 32 28 32 30 27 26 27 25 30 30 33 31 29 26 23 28 24 21 40 40 33 38 39 40 41
46 46 46 46 46 47 47 47 46 47 47 48 48 48 48 49 49 48 40 44 44 35 32 36 39 41 39 37 32 32 32 34 34 31 31 31 27 26 28 25 35 26 32 30 31 30 39 41 39 41 41 37 36 37
46 46 46 46 46 47 47 47 46 46 47 47 47 48 48 49 50 48 42 42 39 35 34 32 34 40 42 41 41 30 31 36 36 39 33 33 29 32 24 25 32 35 37 32 32 36 37 38 38 38 37 34 34 34
46 46 46 46 46 46 46 46 45 46 47 46 47 48 48 50 50 48 41 42 40 36 28 31 41 37 42 42 39 38 38 39 41 39 34 32 28 34 32 34 31 32 33 29 32 33 35 35 36 35 34 35 33 31
45 46 46 46 46 46 46 46 46 46 46 46 47 48 50 50 50 47 44 43 44 38 26 29 37 41 42 39 38 39 38 36 35 34 31 27 30 33 35 33 28 32 28 25 26 31 32 32 34 34 32 30 30 29
45 45 46 45 46 46 46 45 46 46 46 46 47 48 49 50 49 41 33 42 45 43 35 27 36 36 37 37 37 36 36 38 38 34 33 36 41 35 30 20 30 31 32 31 29 33 32 32 32 33 30 30 30 28
45 45 45 45 45 45 45 46 45 46 46 46 47 48 48 49 44 39 36 40 46 43 34 29 28 35 37 35 33 34 36 36 34 35 32 32 33 37 28 19 27 30 31 30 31 32 31 29 27 31 32 31 30 27
44 45 45 45 45 45 45 45 45 46 46 47 47 48 48 48 46 41 44 46 45 39 37 28 24 29 36 30 29 33 31 32 34 34 34 32 34 31 23 25 27 29 31 30 29 32 31 30 29 28 29 29 27 26
44 45 44 44 44 44 45 45 45 46 46 47 47 48 45 42 36 41 47 47 44 38 31 30 20 17 37 34 35 33 32 25 31 32 30 34 27 18 23 25 25 25 25 25 30 29 28 26 25 25 25 25 24 23
44 44 44 44 44 44 44 44 45 46 46 47 44 36 30 35 46 45 38 34 34 35 35 28 26 28 36 33 32 32 31 23 28 29 31 25 15 23 25 25 25 25 25 26 25 23 25 25 23 22 22 23 22 21
44 44 44 44 45 44 44 45 46 47 47 39 33 33 40 46 39 34 30 30 31 29 33 31 32 30 36 28 30 32 30 32 26 28 28 21 18 21 24 23 25 25 25 24 24 25 25 24 23 22 20 20 19 18
44 44 45 44 44 45 46 47 47 44 40 39 40 42 41 36 33 30 28 30 29 26 30 31 32 35 33 35 32 31 28 30 24 29 22 11 17 22 23 22 22 23 24 23 23 22 23 23 22 20 18 16 16 15
43 43 44 44 44 46 47 47 47 46 46 42 37 32 33 28 25 21 21 25 19 30 31 34 32 34 33 33 32 31 27 24 28 19 14 15 21 22 22 22 21 23 22 21 20 21 20 18 18 19 16 15 14 11
41 43 45 46 46 46 47 46 46 44 39 31 28 21 22 13 18 17 21 24 29 32 34 34 32 32 32 30 30 24 24 26 19 9 10 15 18 20 21 22 19 15 14 14 12 13 12 11 9 8 5 3 4 3
44 45 46 46 46 46 46 45 44 37 31 25 25 13 17 19 22 28 31 32 32 35 33 29 28 29 23 22 20 22 19 13 12 10 9 15 16 18 16 16 12 11 7 7 6 6 2 3 5 5 4 1 3 -1
44 44 43 45 45 45 44 43 38 34 29 25 21 20 23 23 24 26 28 28 31 33 32 28 24 20 18 20 19 15 18 12 8 6 13 18 17 14 13 14 9 8 7 5 3 5 5 2 3 2 2 1 -2 -2
44 40 44 44 45 44 44 36 33 28 24 21 16 19 11 13 22 24 26 26 30 31 25 22 19 19 24 15 12 11 6 7 11 13 8 9 12 10 7 8 7 7 6 3 4 5 3 4 5 9 6 3 5 3
40 43 44 45 44 42 36 32 29 27 20 20 17 16 17 19 24 23 25 26 29 28 25 20 25 14 7 11 6 8 8 8 7 9 6 3 5 4 9 7 3 6 5 4 7 5 5 5 7 6 8 8 9 9
41 41 45 46 43 35 30 28 29 19 19 21 21 22 20 17 23 25 26 27 27 27 23 17 11 9 7 6 3 4 10 8 14 12 11 3 7 9 6 5 7 5 8 7 10 10 10 11 13 14 14 14 12 11
43 44 44 44 43 32 29 26 30 25 19 21 24 23 23 21 22 19 23 24 24 21 14 10 7 7 8 5 5 15 7 14 16 14 13 12 5 7 6 9 9 10 13 15 14 14 14 15 15 15 14 14 12 9
41 41 42 40 34 32 28 26 25 25 25 22 26 25 21 22 19 18 18 23 16 12 10 8 16 16 7 7 16 17 17 19 11 13 11 14 9 10 9 8 10 11 9 6 9 10 10 8 7 8 -2 -8 -7 3
38 43 35 35 31 30 27 27 26 26 25 25 25 25 17 12 11 14 20 14 12 10 8 13 18 12 16 13 10 14 12 16 15 15 14 14 14 11 8 5 13 10 10 8 12 3 3 6 5 2 -6 -10 -4 -3
40 36 29 28 22 21 19 29 22 26 17 18 21 17 13 11 17 23 11 15 12 13 13 15 15 18 16 15 19 18 18 17 13 11 11 9 8 5 7 5 5 4 2 4 6 3 1 -1 1 -5 -8 -8 -7 -11
36 25 18 16 21 18 18 15 26 23 19 17 16 12 14 12 18 11 7 7 11 17 17 18 19 18 19 19 15 16 17 17 14 12 12 12 9 6 7 6 5 4 6 7 5 -1 -3 -9 -8 -5 -10 -10 -15 -12
23 17 16 10 16 13 7 6 10 15 7 9 9 8 11 16 7 2 6 8 12 13 15 17 18 18 13 8 11 12 16 17 14 10 8 10 7 7 7 7 6 6 5 -2 -6 -8 -10 -15 -15 -13 -11 -15 -6 -9
11 10 14 9 10 13 11 7 5 7 7 6 6 9 9 7 3 3 10 9 6 9 8 13 13 14 13 14 12 11 10 13 14 9 7 10 8 4 0 -1 -0 2 1 -5 -4 -6 -7 -11 -13 -9 -12 -10 -10 -14
6 7 18 23 21 20 11 12 17 10 4 4 5 4 2 -2 -4 5 12 10 11 9 14 18 19 17 14 10 11 10 10 10 10 9 8 8 7 6 3 -1 -1 3 3 -4 -9 -9 -6 -6 -9 -11 -14 -18 -19 -14
12 13 12 7 7 13 1 1 -1 0 5 14 12 -3 -2 -2 3 8 11 10 15 18 15 14 15 15 12 9 8 7 4 5 5 6 7 7 3 -1 -3 -5 -4 2 -11 -14 -15 -15 -13 -8 -6 -7 -9 -10 -10 -14
5 9 10 0 3 5 6 2 3 11 14 10 -1 -2 3 10 8 8 14 10 15 15 10 8 5 5 5 3 0 1 3 5 3 -2 -3 -4 -5 -1 -8 -11 -13 -14 -15 -10 -3 -8 -10 -12 -14 -14 -15 -15 -18 -23
6 11 3 -4 -3 1 1 5 3 4 11 8 11 11 10 8 13 14 10 7 9 7 2 8 3 6 3 3 -2 -2 -7 -7 -2 3 1 -2 -0 -7 -13 -12 -13 -17 -19 -16 -14 -11 -4 -11 -9 -17 -18 -16 -13 -13
11 5 0 0 -0 2 3 1 1 -0 -4 -3 -6 -1 2 5 12 14 10 5 7 8 7 1 -3 -4 3 1 -1 -1 -1 -3 -5 -3 -1 -3 -8 -9 -13 -14 -19 -20 -19 -18 -18 -19 -20 -21 -23 -21 -19 -17 -20 -22
-2 -6 -1 -2 1 4 1 -4 -5 -3 0 -0 0 -6 -4 -2 -3 6 8 8 7 5 1 5 5 -0 -6 -6 -6 -4 2 1 0 -0 -1 -6 -11 -17 -18 -18 -23 -21 -19 -20 -21 -20 -19 -19 -21 -22 -21 -20 -22 -23
-7 -9 -9 -3 0 -1 -0 -1 -2 -1 -4 -3 -1 -7 -12 -5 -1 1 7 7 6 8 5 -2 -3 -1 -1 -1 -0 0 0 -1 -2 3 -2 -5 -10 -14 -22 -24 -23 -21 -18 -20 -22 -21 -19 -17 -19 -21 -22 -24 -24 -24

GFSWCAN_sfc_temp_099.txt.gz
Temp
48 48 47 47 47 47 46 48 48 48 48 48 48 48 48 48 49 45 41 44 38 31 34 36 38 35 35 34 30 35 33 35 34 30 30 29 29 32 32 35 33 32 30 28 30 27 24 41 43 35 36 37 37 37
47 47 46 47 47 47 47 47 47 47 47 47 47 48 48 48 49 48 39 44 44 35 35 38 40 43 42 41 36 35 35 33 34 31 31 32 30 31 30 28 38 30 32 30 33 31 37 39 36 37 38 34 34 35
46 47 46 46 46 46 46 47 47 47 47 46 47 48 48 48 49 48 41 42 39 35 36 35 36 42 43 43 44 34 35 38 37 39 33 32 30 33 27 30 33 34 37 32 33 33 32 35 35 36 34 32 32 33
45 46 46 46 46 46 46 47 46 46 46 46 47 47 47 48 49 48 41 41 40 36 29 33 43 39 45 43 42 43 41 41 42 40 35 33 29 37 32 34 32 32 34 28 31 32 34 33 34 33 32 33 31 30
45 46 46 46 46 46 46 46 46 46 46 46 46 46 48 48 49 47 43 42 43 39 29 32 39 43 43 40 40 41 40 39 37 35 34 32 35 35 35 34 30 33 28 27 26 30 31 30 32 32 30 28 28 30
44 44 45 45 45 46 46 46 46 46 46 46 46 46 48 48 49 42 33 41 45 43 35 28 39 39 38 38 38 38 39 38 38 36 36 38 41 36 31 28 31 32 32 31 29 33 31 30 31 32 29 29 30 28
44 44 45 45 45 46 46 46 46 46 46 46 46 47 47 48 45 39 37 41 46 44 34 30 31 37 38 37 36 36 38 38 39 36 33 36 37 36 31 26 29 31 30 30 30 32 29 28 26 30 32 30 30 28
44 44 45 45 45 45 45 45 45 46 46 46 46 47 47 47 46 41 44 46 45 38 37 29 27 32 39 33 31 36 34 36 37 35 35 34 35 33 27 27 28 29 30 28 29 31 29 28 29 28 30 30 28 26
44 44 44 44 45 45 45 45 45 46 46 46 47 47 45 42 39 41 46 47 44 38 32 31 24 24 38 35 36 34 35 28 35 32 33 35 30 26 26 27 26 26 26 26 30 30 29 27 25 26 26 26 25 23
43 44 44 44 45 45 44 45 45 46 46 46 43 38 32 36 46 45 39 34 34 35 35 30 30 30 36 35 32 32 31 30 28 31 34 29 24 25 26 26 27 26 26 28 28 24 26 25 24 23 22 23 22 21
43 44 44 44 44 44 44 45 45 45 45 40 32 33 39 46 40 35 30 30 32 28 32 32 32 31 37 31 30 34 30 33 25 29 29 24 23 23 25 25 26 27 26 26 26 26 26 25 24 22 21 21 20 19
44 44 44 44 45 45 45 45 45 41 39 38 40 42 40 36 32 29 28 30 29 28 32 30 31 34 34 37 32 32 30 30 25 32 26 19 20 24 24 23 24 25 25 24 25 24 25 23 22 21 19 18 17 16
44 44 44 45 45 45 44 44 44 45 45 43 38 33 32 29 26 25 21 24 25 28 31 33 31 33 33 34 32 31 27 27 30 25 23 19 22 24 23 23 22 24 23 22 21 21 21 19 21 20 17 16 15 12
43 44 44 44 44 43 44 45 46 44 38 33 30 23 26 22 23 21 25 25 28 30 33 34 32 32 32 30 31 28 28 28 23 19 19 19 21 21 22 22 20 16 16 15 15 15 14 13 10 9 7 8 8 7
42 42 42 42 43 44 45 44 43 38 34 27 27 17 16 21 22 28 32 32 33 36 33 32 31 32 28 28 26 25 23 22 23 21 17 19 20 20 18 17 15 14 12 11 12 10 8 9 9 8 7 9 8 6
40 40 43 46 46 45 44 42 39 36 31 26 21 19 23 25 26 28 31 29 32 33 33 32 27 26 24 25 23 23 23 21 20 16 18 20 18 17 16 16 13 12 12 11 11 11 10 9 10 10 9 9 6 8
43 39 44 44 44 44 44 37 34 29 25 22 17 21 16 21 24 25 27 28 31 33 25 27 22 23 26 19 19 19 20 18 15 17 18 18 17 14 12 12 11 12 11 11 11 12 10 10 10 13 12 11 12 11
39 42 44 46 43 40 35 33 30 27 20 21 19 19 18 22 24 24 25 28 30 29 28 25 28 21 20 21 18 14 13 13 16 17 16 13 14 13 15 13 11 13 12 11 13 11 11 11 13 15 13 13 13 13
41 43 45 45 42 34 31 30 31 20 21 22 23 24 22 22 24 25 27 28 28 29 26 22 19 19 17 14 12 12 15 18 16 15 13 11 14 13 11 12 12 12 13 13 15 17 17 15 17 18 17 16 16 16
44 44 44 45 43 32 29 27 32 26 21 24 26 24 23 23 24 23 24 26 26 24 19 16 15 14 15 15 14 18 15 18 18 16 14 14 13 13 14 16 17 16 16 17 18 16 18 18 19 18 17 17 17 16
40 41 42 40 34 33 29 27 25 25 26 24 27 25 22 24 21 20 20 24 18 14 14 13 17 15 12 12 19 20 20 22 19 19 18 16 14 17 16 16 17 18 17 17 17 16 16 16 16 15 13 10 10 14
39 42 35 36 31 30 27 28 27 27 26 26 25 25 20 18 16 17 22 17 14 14 14 17 16 17 18 17 16 19 17 18 18 17 16 17 17 17 16 16 17 16 16 16 17 15 14 14 13 12 11 9 7 10
40 37 31 30 23 21 21 30 23 27 19 21 23 19 16 15 19 24 14 16 15 16 17 18 17 19 17 17 20 19 19 20 17 16 16 16 15 15 16 15 16 14 14 13 14 14 13 4 6 9 8 8 10 9
36 25 20 18 21 18 19 16 27 24 22 19 17 13 14 15 19 14 11 11 15 19 19 19 20 19 20 20 18 18 19 19 16 15 16 17 15 13 14 14 14 13 15 14 13 11 10 8 0 8 6 7 5 7
23 16 18 10 16 14 9 10 13 16 8 10 10 9 12 18 10 8 10 12 15 17 18 19 20 20 17 14 15 16 18 19 17 14 14 16 12 13 12 12 12 11 11 10 9 9 7 3 4 5 6 5 7 5
11 14 14 14 10 14 12 9 6 8 9 6 7 12 12 10 7 7 13 12 12 14 14 17 17 16 16 18 15 15 15 17 18 14 12 14 14 13 11 11 11 11 9 9 8 9 7 4 4 4 5 3 -4 2
6 7 18 21 20 19 11 12 17 10 5 5 8 7 7 3 2 9 14 13 15 14 17 19 21 19 16 13 12 12 13 14 14 13 11 11 10 11 12 10 8 11 9 7 7 8 8 6 5 4 4 1 1 1
11 13 12 6 7 12 2 1 1 1 6 15 12 -0 0 2 6 11 13 15 14 18 15 14 16 18 15 12 10 9 8 8 8 9 9 9 7 6 5 6 6 5 2 2 3 1 4 5 5 4 3 4 3 -1
5 9 10 -0 3 5 5 1 5 11 13 10 2 1 4 10 10 10 14 15 17 16 12 10 5 7 6 5 4 7 9 10 9 6 5 6 6 7 3 3 3 1 1 5 3 2 4 3 2 2 -0 1 -1 -5
6 10 3 -4 -3 1 2 5 7 6 11 10 12 11 10 10 12 14 13 14 13 11 8 9 6 9 6 7 4 5 2 3 7 9 8 8 8 7 3 3 3 -1 -1 3 4 3 0 -0 1 -1 -2 -1 -1 -0
9 4 1 1 0 3 4 3 1 3 0 2 -3 2 5 7 11 12 10 9 9 9 8 6 3 3 6 6 6 6 7 4 1 3 5 4 3 2 1 -1 -3 -3 -1 0 0 -0 -1 -2 -3 -2 -1 -1 -4 -6
-2 -7 -1 -2 1 4 2 -3 -5 -2 1 3 3 -3 -0 3 4 8 9 11 10 9 6 7 7 5 2 3 2 5 6 3 4 4 4 3 0 -2 -3 -4 -7 -4 -2 -3 -3 -3 -3 -2 -2 -3 -3 -3 -5 -6
-8 -9 -8 -2 1 -0 -1 -0 -0 -0 -2 -1 0 -6 -7 -1 2 7 9 8 11 10 8 5 3 2 3 3 4 3 3 3 4 4 1 -2 -4 -4 -6 -7 -6 -4 -4 -4 -5 -5 -4 -5 -3 -5 -6 -8 -8 -8

GFSWCAN_sfc_temp_105.txt.gz
Temp
48 48 48 48 48 48 48 48 48 48 49 48 49 48 49 49 49 49 48 53 47 41 48 50 50 45 47 48 41 47 45 45 41 37 36 36 37 41 40 44 40 38 35 36 39 36 28 34 46 34 33 35 36 36
48 47 47 47 47 47 48 48 47 48 48 48 48 48 48 48 49 48 42 50 48 43 47 52 53 54 52 52 46 49 43 43 44 37 37 38 36 42 40 32 47 35 37 34 31 29 33 35 34 35 39 37 36 37
47 46 46 47 47 47 47 47 46 47 48 48 48 48 48 48 49 47 43 45 41 37 43 48 50 56 59 56 57 45 51 49 46 49 38 39 34 44 34 36 40 40 47 35 33 33 34 36 38 39 39 37 38 39
47 46 46 46 47 47 47 47 46 46 47 47 48 48 47 48 48 48 42 44 41 39 36 45 58 53 58 57 55 54 52 53 51 51 40 39 39 48 40 42 38 42 42 32 32 34 36 36 37 37 36 39 40 42
46 46 46 46 46 46 46 47 46 47 47 47 47 47 47 48 48 49 47 46 46 42 36 43 54 56 56 54 52 53 51 49 49 44 41 39 46 45 47 45 35 42 35 33 29 33 35 33 36 38 36 36 38 40
46 46 46 46 46 46 46 46 46 47 47 47 47 47 47 47 47 43 34 43 46 44 36 37 51 51 52 53 51 50 51 50 50 44 43 48 50 44 36 35 37 39 38 37 33 36 34 34 35 37 35 37 39 39
45 45 46 46 46 45 46 46 46 47 47 47 47 47 47 46 44 40 40 46 47 45 36 35 42 46 51 51 52 50 49 48 47 42 43 46 46 45 39 35 34 36 36 35 38 37 34 36 34 37 38 39 39 39
45 45 46 45 46 46 46 46 46 47 47 47 47 47 47 46 46 42 51 48 47 40 39 35 38 41 49 42 39 48 43 44 45 44 46 43 44 42 33 36 38 36 38 36 36 38 35 34 36 37 40 40 37 35
45 45 44 45 45 45 45 45 46 46 47 47 47 47 44 41 37 42 47 47 49 43 35 35 35 31 48 41 42 44 43 35 47 38 38 44 40 33 35 39 40 38 38 38 37 36 35 34 34 35 36 35 34 31
44 44 45 44 45 45 45 45 46 46 46 47 43 37 32 39 47 45 40 36 37 37 38 36 47 35 42 39 37 37 41 37 33 37 43 36 38 37 40 43 42 40 40 40 36 34 35 33 32 32 31 32 31 29
44 44 44 45 45 45 45 45 46 46 46 42 34 35 44 47 43 38 33 33 34 31 37 40 45 38 47 37 37 42 37 39 31 37 35 33 34 32 37 38 40 40 39 39 40 38 37 36 33 31 30 30 29 27
44 45 44 45 44 45 45 45 45 45 41 39 42 43 40 37 36 33 33 36 36 36 41 36 41 44 42 47 40 40 34 36 28 41 34 31 28 34 35 35 36 38 37 36 37 34 33 33 33 31 29 27 25 23
44 45 44 44 44 45 45 45 44 46 43 42 38 35 34 34 30 28 27 32 34 40 39 39 35 40 43 43 37 36 29 30 42 31 32 31 32 34 34 35 34 35 35 34 33 33 32 31 31 29 25 25 24 20
44 44 44 44 44 45 45 45 45 45 39 35 32 29 30 29 33 37 40 40 43 42 41 39 36 38 37 34 35 30 35 37 29 28 31 30 30 31 33 33 31 27 27 28 27 26 23 21 18 18 18 18 17 16
44 44 44 44 44 45 45 45 45 42 36 32 32 29 31 36 36 37 38 41 44 45 42 38 38 37 33 32 33 34 29 29 32 33 31 31 30 29 28 27 24 22 22 22 22 20 18 18 18 18 19 19 18 16
44 43 44 44 44 45 45 44 38 36 35 32 30 29 32 33 31 34 33 35 43 43 45 44 36 32 31 36 30 30 31 30 32 32 31 30 29 28 27 25 23 23 24 23 21 21 20 19 20 20 20 18 18 17
43 42 45 44 45 45 42 36 35 33 32 29 29 32 32 36 34 34 37 36 44 41 35 40 31 31 39 33 31 38 33 31 32 30 32 31 28 26 24 23 22 23 24 24 23 23 22 23 21 22 21 21 22 20
40 44 44 45 44 39 35 36 34 31 27 31 31 30 32 32 33 33 34 40 41 41 42 37 42 33 31 30 34 32 31 32 32 31 29 29 27 25 25 24 23 24 24 24 23 23 22 21 24 25 24 23 23 22
40 44 44 44 40 38 33 33 38 30 30 31 32 33 33 32 34 36 36 38 43 47 42 39 33 35 35 35 32 31 31 30 28 29 28 27 27 25 24 24 24 25 24 24 25 28 28 26 27 29 29 29 27 28
41 43 42 43 44 40 31 33 44 36 31 31 33 33 34 33 33 33 33 35 40 42 36 34 34 32 33 32 36 34 33 33 31 27 26 27 27 25 25 27 29 27 27 27 27 25 29 28 30 30 29 27 25 25
40 40 42 44 44 45 35 36 35 35 33 32 34 36 32 35 33 33 33 38 35 35 34 33 31 29 31 34 36 35 33 35 33 33 29 26 29 30 29 30 29 30 29 29 29 27 25 28 29 29 26 25 24 24
45 44 47 47 40 39 37 43 38 39 34 33 34 36 31 30 30 31 36 33 34 32 34 34 31 30 30 30 32 34 33 34 35 33 32 30 29 29 30 30 30 28 29 29 30 28 28 29 28 26 24 24 20 24
45 46 43 41 33 33 29 40 33 36 29 29 34 30 30 30 33 37 30 35 31 32 34 33 32 34 31 31 31 31 31 33 32 31 30 32 33 32 32 31 32 29 28 29 31 29 27 18 22 22 24 22 22 22
41 33 31 31 33 26 33 30 36 33 31 30 30 26 29 31 33 31 30 32 29 32 31 30 32 30 31 31 31 31 33 36 33 33 33 32 30 30 31 31 31 31 31 31 28 27 25 24 18 22 22 20 20 19
32 26 29 25 31 29 27 27 28 30 26 28 26 26 27 32 28 29 29 28 28 29 30 32 33 33 31 32 31 31 33 34 31 29 31 33 31 29 28 29 29 28 29 26 24 24 23 23 22 21 21 20 19 18
25 24 26 27 28 29 29 25 26 27 27 26 26 30 30 29 26 27 30 28 27 28 29 30 31 32 32 32 29 29 31 34 32 29 29 31 30 28 26 24 23 23 27 26 25 23 23 22 20 19 19 19 12 14
24 24 27 31 32 32 29 30 32 30 26 24 27 26 26 24 25 25 27 29 29 30 33 35 36 34 32 32 31 31 31 31 31 29 29 28 27 27 28 25 23 23 24 23 23 22 20 20 19 19 18 19 19 17
25 27 23 24 25 29 24 25 24 22 24 28 30 23 24 23 23 22 25 29 30 31 31 33 35 35 32 29 28 26 24 23 22 23 23 23 23 22 21 21 19 18 20 20 19 19 19 19 19 18 17 17 17 17
24 26 26 16 21 22 21 22 22 23 24 26 24 22 20 21 21 23 24 28 29 28 26 25 25 27 26 27 27 26 26 25 22 18 19 19 18 17 20 19 19 19 19 17 14 17 15 16 15 15 14 15 16 16
21 27 22 17 17 18 18 21 20 21 24 24 25 23 22 20 21 25 26 27 27 26 27 26 25 25 22 22 20 21 23 24 25 24 22 21 22 18 18 18 17 18 19 20 19 17 12 15 15 15 14 15 16 15
26 26 22 22 18 19 20 22 23 23 24 22 24 23 20 20 21 22 23 25 26 26 25 25 25 25 24 21 21 19 17 19 18 20 22 21 19 19 18 18 18 18 18 17 16 16 16 15 16 14 14 13 12 10
23 21 20 17 17 20 23 23 23 22 22 22 20 22 21 22 18 19 19 23 25 24 22 24 23 22 25 24 22 20 21 19 18 18 19 19 18 17 16 15 15 17 16 15 15 15 12 12 13 13 12 11 11 9
21 22 22 20 18 18 20 22 21 19 22 20 19 20 19 19 15 17 20 20 22 23 22 21 21 20 19 19 18 18 18 16 14 14 13 13 13 14 15 15 15 14 12 14 14 13 11 11 11 10 10 8 8 7

GFSWCAN_sfc_temp_111.txt.gz
Temp
49 48 48 48 48 48 48 48 48 49 49 48 48 49 49 49 50 44 41 45 41 35 39 43 45 37 38 37 27 35 32 34 30 28 28 29 28 34 33 37 35 29 28 25 28 26 21 34 37 29 32 35 35 35
47 48 48 48 48 48 48 48 48 48 48 48 48 48 49 49 49 47 41 47 46 36 36 43 45 46 44 43 37 37 36 37 35 28 29 32 31 31 32 26 39 27 33 27 28 26 32 35 33 35 35 33 34 36
46 47 48 48 48 48 48 48 48 48 48 48 48 48 48 48 49 47 42 41 39 34 34 36 41 48 52 49 48 34 39 42 39 40 31 34 31 35 27 28 32 37 41 30 30 31 32 34 36 37 39 38 39 38
46 46 47 47 47 47 47 47 47 47 48 48 48 48 48 48 48 48 39 43 41 37 32 38 53 47 53 52 48 46 44 45 43 39 34 36 30 39 33 35 30 36 36 32 29 32 33 34 35 36 37 38 39 39
45 45 46 47 47 47 47 47 47 47 47 47 48 48 48 48 48 44 41 43 45 37 33 32 44 53 53 50 47 46 44 40 35 33 30 30 35 35 36 36 30 35 31 29 26 33 32 31 36 38 36 35 36 35
46 46 46 46 47 46 46 46 46 46 47 47 48 48 48 48 48 40 33 41 43 41 34 29 42 45 49 48 46 45 45 40 37 34 33 36 44 34 28 25 34 35 37 36 30 35 34 34 36 38 35 37 36 35
46 46 47 46 46 46 46 46 46 46 47 47 47 47 47 47 41 37 34 42 47 45 35 30 33 43 48 49 44 40 42 38 37 34 33 35 36 38 24 21 32 34 36 36 37 36 32 34 33 38 39 38 37 34
45 46 46 46 46 46 46 46 46 46 46 47 47 47 47 46 45 38 44 47 46 40 37 30 29 34 44 34 33 39 34 36 36 34 35 34 35 33 27 33 35 36 37 36 35 36 35 36 37 37 38 36 31 28
45 45 45 46 46 46 46 46 46 46 46 47 47 47 42 39 36 38 48 47 45 40 32 32 28 21 41 39 36 37 38 32 36 28 32 34 28 23 32 34 33 36 36 33 36 35 34 32 32 31 30 29 26 25
45 45 45 45 45 45 46 46 46 46 46 47 41 36 31 36 47 46 39 36 36 37 36 32 34 27 36 34 30 35 35 27 24 31 35 26 23 34 39 40 37 37 37 37 31 30 30 27 27 26 26 25 24 22
45 45 45 45 45 45 46 46 46 46 45 37 33 33 41 46 40 36 31 31 32 30 32 33 34 28 38 26 29 34 25 27 22 27 25 22 25 31 33 34 35 36 36 34 34 32 32 30 26 25 24 24 22 21
45 45 45 45 46 46 46 46 46 41 37 38 39 42 41 37 33 30 29 31 28 27 31 28 31 36 32 38 31 32 26 26 22 29 22 16 27 33 34 32 32 33 32 31 31 29 28 28 26 24 22 20 19 18
45 44 45 45 45 46 46 46 46 46 44 39 37 32 32 31 27 24 24 26 22 29 32 31 32 35 34 34 26 32 27 19 28 20 22 23 30 32 32 30 29 29 29 28 27 25 23 23 25 23 20 19 17 13
45 44 45 45 45 45 46 46 45 43 38 31 30 26 26 24 23 25 27 28 30 33 33 32 28 29 28 28 29 29 31 29 26 19 20 26 29 28 29 28 24 21 20 19 18 17 15 14 12 11 8 6 5 2
44 45 45 44 45 45 45 45 44 40 34 30 31 25 22 27 34 33 33 31 32 35 34 29 29 29 30 31 32 31 27 22 21 23 27 28 27 24 22 22 20 17 16 14 13 11 8 8 10 6 5 5 5 1
44 44 42 44 44 45 45 44 39 37 34 30 30 27 30 32 31 32 32 33 35 32 31 31 27 28 29 30 28 27 23 19 24 27 27 27 25 22 20 20 17 17 16 14 12 12 11 8 9 9 6 6 3 3
44 38 44 44 44 44 43 37 35 32 28 29 28 30 28 28 32 32 33 33 35 32 29 27 22 27 28 24 28 26 19 27 27 27 28 27 22 19 18 18 16 17 15 14 13 13 10 12 13 14 10 7 9 11
37 41 44 44 43 41 37 36 30 30 27 27 25 31 28 31 32 32 33 34 35 30 30 29 30 26 19 21 19 24 28 29 29 28 26 25 21 18 19 16 16 17 16 15 15 13 12 10 13 14 18 16 14 16
40 41 44 42 41 35 30 31 34 27 24 27 24 27 29 28 30 32 30 33 35 35 31 28 26 22 23 30 30 28 28 24 25 25 24 23 20 18 17 17 17 17 17 16 18 17 16 17 19 19 19 20 16 18
44 43 42 43 43 34 30 31 35 30 26 26 28 28 29 29 28 32 32 32 33 33 31 26 25 29 29 30 30 32 28 26 23 20 21 21 18 19 18 20 20 21 19 18 21 21 21 20 21 21 19 16 12 10
42 41 42 41 37 34 32 31 30 31 29 27 30 30 28 29 28 30 30 34 30 30 29 28 27 28 25 26 28 32 28 27 23 22 21 20 21 22 21 22 22 21 20 18 17 14 14 15 19 19 10 7 7 8
38 41 37 37 33 33 31 33 32 33 30 29 30 30 27 27 29 30 32 30 30 30 28 25 23 24 25 24 25 32 30 28 27 25 23 23 21 21 22 22 21 21 23 20 20 19 17 17 17 14 11 6 10 10
41 38 34 32 30 28 26 34 29 31 23 26 30 27 26 27 29 32 25 29 25 25 25 25 27 29 26 25 29 30 30 29 25 24 24 24 22 21 23 22 22 19 18 18 21 19 14 13 12 10 9 9 10 8
41 33 30 28 28 19 29 28 31 30 29 27 27 25 27 28 31 27 25 23 22 25 25 28 28 26 28 30 24 25 27 28 26 25 24 25 22 23 24 22 23 21 22 22 20 17 16 12 10 11 10 10 8 7
28 27 28 27 29 26 25 24 26 26 22 25 24 23 25 27 25 24 24 25 19 20 26 28 26 26 23 20 22 23 29 28 26 23 23 25 22 23 22 22 20 20 20 17 13 14 13 12 10 10 10 8 10 7
25 26 25 27 27 27 26 24 25 25 26 22 25 25 25 26 24 23 23 25 26 27 28 28 25 24 23 26 23 23 23 26 27 22 21 24 23 21 17 15 12 13 16 14 15 12 12 13 11 10 8 10 8 6
24 23 27 31 29 29 24 27 30 24 21 22 25 25 25 22 22 19 21 23 26 27 28 29 28 27 26 25 23 22 23 25 23 21 21 20 19 18 17 16 14 13 16 15 13 10 9 8 8 8 7 6 7 8
24 25 22 25 25 26 23 22 21 18 21 25 27 24 23 16 13 17 18 23 28 27 27 27 29 29 24 21 20 20 18 19 18 18 18 17 16 14 12 12 15 15 12 12 10 10 9 8 7 7 6 4 4 4
24 25 23 19 21 20 17 18 20 20 21 23 22 15 13 16 17 18 19 25 27 25 23 22 22 23 22 21 21 20 16 14 12 9 5 3 4 7 8 7 10 10 9 9 14 10 10 7 5 5 4 4 4 3
22 26 20 19 16 15 16 19 16 16 20 18 18 17 16 14 19 22 21 21 22 22 22 22 22 21 20 19 18 17 17 15 13 11 10 7 8 11 8 8 8 8 10 10 7 7 13 7 9 4 3 3 1 -4
26 26 21 19 15 17 16 17 20 20 19 19 16 10 10 10 14 18 17 19 24 21 21 21 21 21 20 17 14 10 8 11 9 13 15 15 15 13 13 10 8 8 9 9 8 7 5 4 4 5 4 -2 -6 -6
25 21 17 11 12 15 19 20 21 17 17 12 10 11 12 13 7 12 18 17 21 20 21 21 19 16 16 16 16 13 12 10 9 14 14 14 13 11 9 7 8 9 8 7 7 5 3 2 -1 -5 -7 -8 -10 -10
23 20 16 14 12 12 15 17 17 16 19 16 14 14 12 8 5 10 17 20 19 18 17 17 17 17 14 12 10 9 9 10 11 13 12 12 9 10 8 6 7 7 7 5 3 1 -3 -4 -7 -8 -9 -10 -13 -16

GFSWCAN_sfc_temp_114.txt.gz
Temp
47 47 47 48 48 48 48 49 49 49 49 48 48 48 49 49 49 43 39 42 38 30 34 40 42 35 35 33 25 32 30 33 29 25 26 26 26 32 31 35 32 29 26 24 27 23 20 32 34 29 31 33 34 35
48 48 47 47 47 48 48 48 48 48 48 48 48 48 48 49 48 46 38 43 42 34 34 40 42 44 43 42 34 34 36 35 32 26 31 29 27 29 29 23 37 26 29 26 27 25 31 33 32 34 35 33 33 34
48 48 48 47 47 47 47 48 48 48 48 48 48 48 48 49 49 46 41 38 36 31 32 35 39 46 47 45 44 33 35 40 36 37 33 32 29 31 26 30 30 36 38 27 28 30 31 33 34 37 36 35 34 34
47 47 47 47 47 47 47 47 47 47 48 48 48 48 48 48 48 45 37 39 36 37 26 37 51 44 50 48 45 43 41 42 39 35 31 35 29 36 31 34 28 32 35 30 29 31 32 33 34 35 34 35 35 34
46 47 47 47 47 47 47 47 47 47 47 47 48 48 48 48 48 42 39 39 40 35 31 32 40 50 50 48 46 44 42 38 33 31 28 28 32 33 33 33 26 32 29 29 26 33 31 31 35 36 32 31 32 31
46 46 46 47 47 47 47 47 47 47 47 47 47 48 48 48 46 37 29 37 40 38 35 26 38 42 47 45 44 41 41 37 34 32 30 33 40 32 27 27 32 35 36 35 31 34 33 34 34 35 31 31 32 30
45 45 45 46 47 46 46 46 46 47 47 47 47 47 47 47 38 35 32 41 45 42 35 28 32 42 47 47 43 38 38 36 34 32 31 32 34 34 20 21 31 34 35 35 36 35 31 34 29 35 34 33 32 29
45 45 46 46 46 46 46 46 46 47 47 47 47 47 47 47 43 36 43 47 46 38 37 27 26 31 41 32 31 35 32 33 33 31 32 32 33 30 23 31 34 35 36 34 34 36 35 34 33 33 33 30 26 25
45 45 45 45 46 46 46 46 46 47 47 47 47 46 39 36 32 36 48 46 45 39 31 31 23 19 38 37 33 36 35 28 33 28 30 31 25 26 29 31 31 35 33 33 35 35 31 29 27 28 27 26 23 21
45 45 46 46 45 46 46 46 46 46 46 46 39 35 31 37 46 46 40 36 36 37 36 31 30 28 34 29 28 33 31 25 22 28 32 25 27 33 37 36 35 35 34 34 29 27 27 26 25 24 23 22 21 20
45 45 45 45 46 46 46 46 46 46 45 35 33 32 40 45 40 36 31 31 32 29 32 34 30 26 35 25 25 29 24 24 20 26 24 20 25 28 33 33 32 32 32 31 31 32 30 28 24 22 22 22 21 20
46 46 46 46 46 46 46 46 46 39 36 36 38 42 41 37 33 30 27 30 28 26 28 26 29 33 29 35 28 30 25 23 21 27 23 15 22 30 32 29 30 30 29 28 29 28 27 26 24 23 21 19 18 17
45 45 46 46 46 46 46 46 46 45 43 38 36 32 32 30 25 24 22 26 19 25 27 27 26 35 33 30 23 29 25 17 25 24 19 22 27 30 29 29 27 27 26 24 24 25 24 23 24 22 19 17 16 12
44 45 45 45 46 46 46 46 45 43 35 28 28 23 25 24 25 23 25 25 28 27 29 28 25 32 31 25 26 19 23 28 24 19 20 20 27 28 28 27 25 21 20 20 18 17 15 15 11 10 7 6 5 0
45 45 45 45 45 46 45 44 43 38 34 27 29 19 24 26 27 31 33 29 28 31 31 28 27 27 24 29 31 26 26 24 21 18 20 24 25 24 22 21 18 16 14 13 11 10 8 8 8 3 0 2 2 -3
44 44 41 45 45 45 44 40 37 37 32 28 28 22 29 30 32 33 31 32 28 29 27 29 25 22 27 26 27 26 26 17 19 20 18 23 23 22 20 19 17 15 13 11 10 11 10 7 8 8 2 2 -2 0
43 35 44 44 45 44 43 35 34 31 26 27 26 29 29 28 30 32 33 33 34 30 21 25 19 22 26 23 25 31 18 18 27 24 19 21 20 17 17 17 15 14 12 12 10 12 10 10 8 12 9 6 7 9
33 40 44 43 42 40 37 35 29 28 25 22 21 27 28 30 31 32 30 34 34 31 28 27 28 24 17 20 16 21 24 27 28 24 17 19 16 15 18 15 14 14 13 13 13 12 12 10 13 12 13 12 11 11
36 40 42 42 39 34 29 31 33 24 22 28 26 28 24 23 29 30 30 32 35 35 30 26 25 19 19 24 20 24 27 25 24 24 19 13 17 16 14 15 15 14 15 14 16 17 17 16 16 17 18 18 15 15
43 42 42 43 42 32 29 28 32 28 22 24 24 22 24 24 27 30 29 29 32 33 31 28 20 27 22 22 28 24 23 24 24 21 18 14 14 17 16 19 18 17 18 18 17 17 18 17 20 19 17 16 12 9
41 40 42 39 36 34 30 28 27 28 26 23 27 27 23 27 27 21 24 31 29 30 28 21 23 17 24 22 23 25 25 25 22 21 19 18 17 19 18 18 19 20 18 16 17 16 16 17 18 18 9 3 2 6
38 40 35 36 32 32 30 33 30 28 26 26 28 28 22 22 23 22 28 27 27 29 24 21 20 20 23 27 21 24 24 24 23 21 19 20 19 18 19 20 19 16 17 17 19 17 14 16 15 13 8 3 4 6
39 37 33 32 28 28 25 33 28 28 21 25 28 25 23 22 26 31 21 28 22 22 24 27 28 28 24 22 28 27 26 25 21 20 20 21 19 19 20 19 20 17 18 19 21 19 16 12 9 7 5 5 5 2
38 32 27 26 25 21 27 25 30 28 27 24 23 20 23 22 30 25 21 19 19 22 23 26 26 24 25 28 22 23 26 26 23 22 22 22 20 21 22 21 20 20 21 20 18 15 11 7 6 8 5 5 2 1
25 25 27 23 26 23 20 21 24 24 17 21 25 19 22 25 18 20 26 24 24 14 17 23 24 24 20 17 19 21 26 26 23 21 19 23 18 21 20 19 19 19 20 16 10 12 8 4 5 6 7 5 8 6
22 22 21 23 17 19 20 14 14 16 19 22 22 22 20 22 21 21 21 22 25 22 23 22 24 21 21 22 20 21 21 22 24 20 19 24 23 20 16 15 12 13 14 13 11 7 9 7 7 8 6 7 7 6
17 18 24 29 28 28 20 22 26 18 14 17 20 22 24 21 21 15 19 22 23 25 28 28 30 27 22 20 20 19 21 22 21 19 18 17 17 18 19 15 11 11 12 12 9 9 8 7 7 6 4 4 4 5
24 25 20 24 24 25 18 18 17 17 17 22 24 22 22 18 11 15 17 22 23 23 24 25 26 26 22 18 18 17 16 17 16 16 16 14 12 10 10 13 14 14 10 9 8 8 8 7 5 4 4 5 4 1
20 24 24 20 21 19 17 17 15 18 20 21 18 14 13 16 15 14 19 22 24 20 20 19 19 20 19 19 19 17 17 18 16 11 5 -1 -0 5 6 8 8 8 8 10 13 10 8 5 5 5 5 3 1 -1
22 25 20 18 17 15 16 19 18 18 20 18 18 15 13 11 15 17 17 16 16 15 15 19 20 19 18 17 14 14 14 9 8 11 7 2 5 2 2 5 6 6 8 8 3 4 12 6 8 4 2 1 -4 -10
25 24 19 17 14 15 15 14 16 16 13 12 7 5 5 8 12 13 16 15 12 19 20 19 19 18 17 14 14 11 9 10 9 11 11 12 11 8 7 8 9 9 8 3 1 3 2 2 -1 -4 -7 -10 -14 -16
20 18 14 9 10 13 16 13 12 7 5 2 2 -1 2 3 2 10 16 17 15 17 14 15 14 11 14 13 10 10 12 9 10 11 10 11 10 10 8 7 6 6 3 4 2 2 -2 -6 -11 -14 -16 -17 -19 -20
16 14 11 10 7 6 8 12 10 12 9 7 7 7 2 -2 1 7 13 18 12 10 13 12 11 10 10 9 8 7 8 9 10 12 11 9 7 8 5 1 1 4 6 4 -3 -6 -9 -11 -16 -17 -19 -21 -23 -23

GFSWCAN_sfc_temp_117.txt.gz
Temp
48 48 49 48 47 48 48 49 49 49 48 48 48 48 48 49 49 43 39 41 38 30 34 38 40 34 34 31 25 32 28 31 27 24 25 25 25 30 30 32 30 27 26 24 27 23 19 32 34 28 30 32 33 33
48 47 47 47 47 48 48 48 48 48 48 48 48 48 48 49 49 46 38 42 41 35 35 38 41 43 41 40 33 35 35 32 31 25 30 27 25 28 28 22 35 25 29 26 26 24 30 32 31 33 34 30 30 32
48 47 46 47 47 48 48 48 48 48 48 48 48 48 48 49 49 45 38 38 36 31 33 35 38 43 44 43 43 32 33 37 35 35 31 29 27 30 25 25 30 33 37 27 27 29 30 32 33 34 33 30 31 32
47 46 46 46 47 47 48 47 48 48 48 48 48 48 48 48 48 45 37 38 36 33 30 37 47 42 47 45 43 41 40 39 37 33 30 29 28 35 29 31 27 30 33 26 27 30 31 32 32 32 32 32 32 32
47 46 46 46 46 47 47 47 47 47 47 48 48 48 48 48 47 42 39 38 38 34 26 31 42 46 48 46 44 41 40 36 31 30 27 28 31 32 31 32 28 32 29 26 24 30 30 30 33 33 29 28 29 28
47 47 47 47 46 46 46 46 47 47 47 47 48 48 48 47 44 37 30 37 40 37 30 25 36 41 46 43 42 40 38 34 32 31 29 31 36 31 25 25 32 35 35 35 32 35 33 34 32 32 28 29 29 28
47 47 47 47 47 47 46 47 47 47 47 47 47 48 48 46 39 34 32 41 43 38 31 23 32 42 46 44 42 36 36 33 33 30 30 30 32 31 19 23 31 34 34 34 35 34 31 33 27 31 30 29 28 25
45 46 46 46 46 46 46 46 46 47 47 47 47 47 47 46 43 37 42 46 43 35 34 25 27 31 39 31 30 33 31 31 32 30 30 30 31 29 23 29 33 35 35 34 35 35 31 32 31 29 29 27 25 24
45 45 46 46 46 46 46 46 46 47 47 47 46 45 39 36 32 37 46 46 42 36 31 23 23 19 35 34 31 32 32 22 31 27 29 30 25 22 31 30 30 33 34 33 34 32 31 28 26 26 26 25 22 21
44 45 46 46 46 45 46 46 46 46 46 46 39 33 29 33 45 45 39 35 34 36 36 30 28 31 33 28 26 26 27 24 22 27 30 24 25 30 33 37 36 33 33 32 28 26 26 25 25 25 24 23 22 21
45 45 46 46 46 45 46 46 46 46 44 35 32 32 38 46 39 35 31 30 31 29 32 33 29 25 33 25 24 27 23 23 22 26 24 20 25 24 31 31 31 33 32 32 31 30 30 28 24 22 22 22 21 20
45 45 46 46 46 46 46 46 46 39 36 36 38 41 40 36 33 29 26 30 29 26 27 27 28 31 28 33 27 28 24 22 20 25 24 16 19 26 28 29 29 29 30 29 30 28 26 26 25 23 21 19 17 16
45 46 46 46 46 46 46 46 45 44 42 39 36 32 31 30 24 20 17 26 25 24 25 26 24 34 29 28 22 27 18 16 24 25 16 20 23 27 27 28 27 26 26 26 25 26 25 23 24 22 18 16 15 11
45 45 46 46 46 46 46 46 45 42 36 27 24 23 25 22 21 22 24 25 27 25 26 27 30 29 27 25 22 17 21 26 20 16 18 19 25 25 27 29 26 22 21 21 20 19 17 16 12 9 7 6 6 3
45 45 45 45 46 45 45 44 43 38 32 26 29 22 24 25 25 31 31 32 31 27 28 26 26 27 21 23 28 21 19 19 19 17 19 18 25 25 23 21 18 17 14 14 12 11 8 7 8 1 -2 -1 1 -4
44 44 41 45 45 45 43 40 38 36 32 28 26 22 27 28 29 30 31 32 32 26 26 28 24 19 20 22 24 22 21 15 18 17 17 22 23 22 20 19 16 16 14 12 10 10 8 7 8 7 2 1 -4 -2
41 36 44 45 44 44 43 35 32 29 28 27 24 22 20 27 28 30 32 33 32 27 20 25 18 21 26 21 19 24 16 18 18 27 14 17 21 17 15 15 14 13 11 10 8 10 8 9 9 11 8 3 4 5
34 42 44 44 42 39 33 33 29 28 25 22 21 21 23 29 29 31 31 33 34 31 28 26 27 23 19 23 15 18 26 25 27 24 13 12 13 14 17 15 12 12 10 10 12 11 10 8 10 10 10 9 9 9
39 41 43 43 39 33 29 29 32 23 21 21 21 27 27 24 28 31 32 32 34 35 31 26 21 19 18 19 18 16 28 18 23 23 12 9 14 16 13 12 11 10 12 12 15 15 14 13 14 14 14 15 13 13
43 42 43 43 42 32 28 26 31 28 22 24 25 24 24 24 28 29 29 27 32 32 32 26 21 19 21 20 21 21 18 21 22 22 19 11 10 13 14 15 15 13 14 15 16 16 16 16 17 17 16 15 12 11
41 40 42 38 35 34 29 27 26 27 26 24 27 28 24 27 22 23 23 29 25 26 27 21 20 17 18 19 20 21 23 25 20 21 18 14 12 16 16 15 16 17 16 15 15 13 14 15 15 16 8 3 4 7
36 38 35 36 29 31 29 32 29 27 25 25 27 29 20 21 23 19 27 21 21 22 27 23 20 19 21 22 20 22 21 23 22 19 17 19 17 16 17 16 17 13 14 13 16 13 15 16 13 12 7 2 5 5
39 37 30 28 23 22 19 33 27 26 23 26 28 23 23 17 23 30 20 24 22 21 21 22 23 26 24 20 26 25 24 23 18 17 17 16 17 17 18 17 17 14 14 15 18 17 13 9 8 6 6 7 3 0
38 25 20 20 22 18 26 26 30 27 23 23 20 19 24 23 28 23 18 18 19 20 22 25 24 23 24 26 21 21 23 23 20 19 19 19 17 16 19 18 17 18 20 19 17 13 11 10 10 10 4 -1 -2 0
22 20 26 23 25 20 16 19 21 24 17 20 19 17 22 25 16 17 21 18 18 17 16 20 23 23 19 16 17 19 24 24 21 18 16 19 17 18 17 17 16 16 18 12 8 9 6 5 5 2 3 1 7 3
17 22 23 22 22 21 21 17 18 18 21 20 22 23 21 15 15 16 18 14 22 24 18 15 17 21 22 22 19 19 18 21 22 18 17 21 21 18 13 13 11 13 13 14 13 12 10 6 2 3 3 5 5 3
19 18 24 29 28 27 20 21 24 17 15 14 17 18 18 13 17 13 17 18 19 22 26 28 28 27 25 21 19 19 19 20 19 18 16 16 15 16 18 16 14 12 11 12 9 9 9 7 3 6 7 3 3 4
21 23 20 23 24 25 20 18 19 18 16 20 22 21 18 19 13 12 14 17 20 23 22 22 23 23 20 17 17 16 15 15 15 16 16 15 12 10 11 12 12 11 6 5 6 6 6 7 7 5 2 2 1 -1
20 23 24 19 20 19 18 19 18 19 20 19 15 8 7 14 12 12 16 18 21 20 17 16 17 18 16 17 16 16 16 16 18 14 9 7 4 8 5 7 6 6 7 9 13 8 9 7 4 0 1 1 -3 -10
20 25 20 17 17 16 15 16 16 17 19 19 18 16 14 11 12 16 15 15 15 12 10 13 16 16 16 15 14 14 12 12 13 16 12 6 7 5 1 5 5 5 7 7 7 7 9 0 5 1 -2 -7 -12 -14
25 23 18 17 15 16 17 18 20 19 17 14 13 12 12 13 13 13 15 13 10 11 15 16 16 17 16 15 13 12 11 11 9 9 9 10 8 6 4 5 5 6 4 5 1 -3 -4 -2 -8 -10 -12 -13 -18 -21
22 18 16 13 14 16 18 17 15 14 11 10 7 6 7 3 -1 6 13 13 10 8 9 13 12 8 10 11 11 10 10 7 8 9 10 10 8 6 6 4 3 4 1 -2 -1 -2 -4 -9 -17 -18 -20 -22 -24 -25
15 14 14 10 8 10 10 11 11 9 4 3 4 1 -6 -3 -0 4 10 14 9 6 9 8 7 8 7 8 8 8 9 9 10 11 9 7 5 4 1 1 1 1 0 -2 -5 -8 -11 -15 -20 -22 -25 -25 -26 -26

GFSWCAN_sfc_temp_120.txt.gz
Temp
48 48 48 47 47 47 48 48 48 48 48 48 48 48 48 49 49 43 38 40 39 32 34 38 40 34 33 31 25 31 28 29 26 23 25 25 25 28 27 31 28 26 25 24 27 23 20 31 33 28 30 32 32 29
48 48 47 47 47 47 48 48 48 48 48 48 48 48 48 49 48 46 38 41 41 35 35 38 39 41 40 39 32 31 31 31 30 24 24 26 25 26 28 20 32 25 28 26 25 23 30 31 30 33 31 28 29 29
47 48 48 47 47 47 47 47 48 48 48 48 48 48 48 49 49 45 38 38 36 33 35 36 37 41 43 41 41 32 32 36 33 33 30 25 26 28 24 25 30 32 35 28 27 28 29 30 31 32 31 29 30 30
47 47 47 47 47 47 47 46 47 47 47 48 48 48 48 48 48 45 38 37 36 33 30 34 45 41 44 43 41 40 38 37 35 32 29 28 27 32 27 30 27 29 31 26 27 30 30 30 30 31 31 32 30 29
47 47 46 46 46 46 46 47 47 47 47 47 48 48 48 48 47 42 39 38 39 36 29 32 40 44 45 43 42 40 38 34 30 30 26 27 30 31 30 29 27 32 30 26 19 30 29 29 30 31 29 28 29 26
46 46 46 46 46 47 46 46 47 47 47 47 48 48 47 46 44 37 32 38 40 37 32 26 35 41 45 43 41 39 36 32 31 30 29 30 34 30 21 20 32 35 35 35 30 33 31 31 30 30 28 28 28 26
46 46 46 46 47 47 46 46 46 47 47 47 47 47 47 46 39 34 33 40 42 38 29 26 34 41 44 43 39 34 34 31 31 29 29 29 31 30 18 21 30 32 34 34 35 34 29 30 26 29 29 27 27 25
46 46 45 46 46 45 45 45 47 47 47 47 47 47 47 46 43 39 41 45 41 35 33 25 29 35 42 32 29 31 30 30 30 29 29 30 30 28 21 28 31 34 34 34 34 34 31 30 28 27 27 26 24 23
46 46 46 46 46 45 45 46 46 47 47 47 47 46 39 36 33 38 46 46 40 35 26 22 28 25 34 30 30 30 30 21 29 23 28 29 24 22 28 29 29 33 33 32 32 31 29 27 25 25 25 24 22 22
46 46 46 46 46 46 46 46 46 47 46 46 39 32 23 33 44 45 38 32 31 36 33 24 27 23 30 27 25 25 24 23 21 25 29 23 22 29 32 33 35 32 34 33 27 25 26 25 25 24 24 24 23 21
46 46 46 46 46 46 46 46 46 46 44 35 30 31 36 45 39 35 29 27 27 27 31 30 29 25 31 25 24 26 22 23 21 25 25 19 24 25 29 32 35 32 32 31 31 30 30 28 26 23 22 23 21 20
46 46 46 46 46 46 46 46 46 39 36 36 38 41 40 36 32 27 27 30 29 27 28 27 27 30 27 31 27 27 22 21 19 24 24 20 21 26 28 30 33 30 30 30 30 28 27 27 25 24 21 19 17 16
45 46 46 45 46 46 46 46 45 44 42 39 37 32 28 30 20 18 20 25 26 25 24 26 23 32 27 28 22 26 16 16 23 23 15 20 22 26 26 27 28 27 28 27 26 26 25 24 24 22 18 16 14 11
45 45 45 46 46 46 46 45 45 42 37 28 25 19 18 21 21 22 25 23 25 24 26 24 25 26 24 24 18 16 19 22 10 10 17 19 23 25 26 28 27 23 21 22 21 20 19 17 13 10 9 7 6 3
45 45 45 45 45 45 45 44 43 37 31 26 26 22 24 23 26 28 28 31 31 25 26 25 25 26 18 20 20 19 15 12 16 16 18 18 21 24 22 21 18 17 15 15 14 13 10 8 9 2 -3 -2 1 -2
45 45 41 45 45 45 44 41 37 35 30 26 26 21 25 27 28 29 31 32 30 25 26 28 23 18 19 20 20 15 18 13 17 17 18 18 20 21 19 18 17 15 15 12 11 10 8 7 8 6 -1 -2 -6 -3
42 36 45 44 44 43 43 36 32 29 27 25 20 26 26 24 24 30 32 32 29 30 26 23 18 20 25 18 17 21 15 17 17 19 22 15 18 17 16 15 13 13 12 11 8 9 6 7 8 9 7 2 3 3
36 42 44 45 42 39 34 34 29 28 24 21 20 24 22 25 29 30 31 32 32 31 30 26 27 21 13 15 13 18 14 21 23 27 13 10 11 13 16 14 12 12 11 9 10 8 7 7 10 10 10 8 8 7
41 41 44 45 39 33 29 30 31 23 22 23 21 25 26 27 29 30 31 32 33 34 32 25 20 18 18 19 18 14 19 27 23 19 10 7 11 14 12 11 11 9 11 10 13 13 12 12 12 12 12 14 11 11
44 44 43 43 41 30 28 27 31 28 23 23 25 24 24 23 27 29 29 29 33 32 31 26 20 19 21 21 21 21 19 19 19 21 21 10 8 12 11 14 15 12 12 13 13 13 14 13 15 15 14 13 10 10
39 39 41 38 33 32 28 27 27 27 26 23 26 28 24 29 22 20 21 29 30 29 27 26 24 20 17 17 20 20 21 23 20 21 18 11 9 14 14 13 14 15 13 13 13 11 12 13 13 15 7 5 6 5
36 39 35 35 30 31 29 32 28 27 24 25 26 27 24 22 23 24 26 24 23 22 23 21 23 20 20 21 18 21 20 22 21 18 16 17 15 14 14 14 15 12 13 12 15 13 12 14 13 11 5 1 1 4
38 36 30 29 22 22 18 32 27 26 23 25 28 24 24 21 22 28 23 25 20 19 21 21 23 25 23 19 24 23 23 22 17 15 16 14 15 15 16 16 16 13 12 13 15 14 12 9 7 2 1 2 3 0
38 29 23 18 19 12 23 24 30 28 25 24 22 19 23 25 29 26 24 16 17 19 23 24 22 21 23 25 20 20 21 21 18 17 17 18 16 14 17 17 16 16 17 16 15 11 8 2 6 9 4 3 -3 -2
22 18 17 8 25 23 18 20 23 22 12 20 18 16 21 25 18 20 18 14 18 20 21 22 23 22 19 15 16 18 22 21 19 16 15 17 15 17 15 15 14 14 15 10 4 4 2 8 9 9 7 0 6 0
10 17 23 18 22 20 16 9 13 15 12 16 20 21 19 14 18 17 17 17 16 23 24 24 25 25 24 24 21 19 18 20 20 17 17 18 18 16 12 11 9 11 11 11 12 11 11 9 8 6 1 3 4 3
11 19 22 28 27 26 20 21 23 16 14 14 17 18 19 12 12 14 17 17 16 20 23 26 28 26 24 21 18 18 18 18 18 17 16 14 14 14 14 12 11 13 12 12 11 12 10 8 2 4 6 5 5 3
21 22 19 22 23 25 22 21 20 20 20 21 23 18 16 12 12 10 13 16 19 21 21 20 20 20 18 16 16 15 14 14 15 15 16 14 12 10 12 12 12 12 8 7 5 6 7 9 9 9 8 1 -6 -4
19 23 24 19 20 19 18 20 21 20 20 21 19 15 10 12 9 9 11 15 18 18 14 10 12 14 15 15 15 15 14 14 16 13 11 8 7 9 7 9 9 8 10 12 14 11 9 7 5 0 -4 -3 -13 -16
20 24 20 18 18 15 12 16 12 12 17 17 17 14 12 12 13 14 14 15 14 9 8 10 11 13 13 13 12 12 12 12 12 15 13 11 11 6 3 6 6 5 8 9 7 6 8 -2 -2 -8 -8 -10 -13 -15
25 22 18 17 15 14 16 17 17 16 14 12 12 12 11 12 15 15 14 13 12 12 11 11 13 14 16 15 13 12 11 10 9 9 9 9 7 5 4 4 5 6 5 2 0 -3 -5 -10 -13 -11 -12 -15 -21 -24
21 18 16 13 14 16 18 17 16 15 13 14 12 12 10 11 11 11 12 12 12 11 10 11 10 6 8 10 10 9 9 7 8 9 9 9 6 4 7 5 3 2 -0 -3 -4 -6 -7 -11 -15 -17 -20 -24 -27 -27
16 15 15 14 13 14 15 15 13 11 9 10 9 8 5 6 6 6 9 11 7 4 6 5 6 6 7 6 7 7 7 7 7 9 7 6 5 5 2 1 0 -0 -2 -6 -10 -10 -13 -15 -20 -24 -25 -26 -28 -29

GFSWCAN_sfc_temp_123.txt.gz
Temp
49 48 48 48 47 48 48 49 49 48 48 48 48 48 49 49 49 44 40 42 41 34 37 41 42 36 36 36 31 35 33 34 32 30 31 30 30 32 31 32 30 28 27 26 28 25 22 33 33 29 31 33 33 32
48 48 48 47 47 47 48 48 48 48 48 48 48 48 49 49 49 46 39 42 42 38 38 40 42 44 44 42 36 35 35 34 35 32 32 33 30 31 31 24 35 28 31 29 28 26 31 31 31 35 36 34 33 32
48 47 47 47 47 47 47 47 47 47 47 48 48 48 49 49 48 45 39 39 40 37 38 40 39 43 46 45 45 36 35 39 37 38 34 33 31 35 28 28 32 33 36 29 29 29 30 31 33 34 34 33 33 33
48 47 47 47 46 47 47 47 47 47 47 47 48 48 48 48 48 45 38 39 39 37 33 37 47 43 45 46 45 43 41 40 38 38 35 34 33 36 33 34 33 34 35 30 28 30 31 31 33 33 32 33 31 31
48 47 47 47 46 46 46 46 47 47 47 47 48 48 48 47 47 43 40 40 41 39 32 36 42 45 45 45 43 43 41 38 38 37 34 33 36 36 35 34 31 35 31 28 27 32 33 31 33 34 32 30 30 29
47 47 47 47 46 46 46 46 47 46 47 47 48 48 47 46 45 40 34 41 41 39 36 31 38 43 45 43 42 40 40 37 37 37 35 36 37 37 31 29 33 36 36 37 32 36 33 33 33 33 31 30 31 29
47 46 46 46 46 46 46 47 47 47 47 47 47 47 47 46 42 36 35 40 43 41 35 32 34 41 45 44 39 38 38 36 38 35 35 36 36 36 30 29 33 36 35 35 35 34 30 32 30 32 32 31 29 28
46 46 46 45 45 45 46 46 46 47 47 47 47 47 46 46 44 40 42 45 43 36 36 30 31 35 42 35 35 35 36 36 35 35 35 36 36 34 30 32 34 35 35 34 36 36 35 33 31 30 30 29 27 26
46 45 45 45 45 45 45 46 46 47 47 47 47 46 41 36 36 39 46 44 42 38 30 29 29 27 38 34 34 35 35 31 34 32 34 35 32 29 34 33 33 35 35 33 33 32 32 30 29 28 29 28 26 25
45 45 45 45 45 44 45 46 46 46 46 46 40 33 28 36 45 44 38 33 33 35 34 29 31 31 35 32 31 31 30 30 29 32 34 31 31 33 35 37 37 37 36 35 30 28 29 28 28 28 28 28 28 26
45 45 45 45 44 45 45 46 46 46 44 36 32 31 37 43 40 35 28 27 30 28 32 30 32 30 35 31 30 31 29 29 25 30 31 27 27 31 34 35 37 37 36 36 37 36 35 33 30 28 27 27 26 24
46 45 45 45 45 45 45 45 46 39 37 37 38 41 40 36 32 29 28 29 29 28 31 30 31 34 32 35 33 30 27 27 24 30 29 25 30 32 33 35 36 36 35 35 35 33 33 32 31 29 27 24 23 21
46 46 46 46 45 44 44 45 45 44 42 40 36 33 30 30 24 21 21 26 27 28 29 30 29 32 32 33 27 29 24 23 29 27 24 27 29 31 32 33 33 34 34 32 31 31 30 29 28 27 23 22 19 16
45 45 46 45 45 44 44 45 45 42 36 29 25 24 23 21 24 24 27 27 28 29 29 29 30 31 29 28 24 24 25 26 20 19 23 30 29 29 30 31 31 29 27 27 26 25 23 22 18 17 16 15 13 10
45 45 45 45 45 45 45 44 43 38 32 27 27 19 24 25 26 29 30 31 31 30 31 30 29 31 25 24 24 24 22 19 22 23 27 30 26 27 26 26 24 23 20 21 21 19 17 14 14 10 10 12 11 7
45 45 42 45 45 45 43 41 37 35 30 28 26 25 27 28 28 30 32 31 31 31 31 32 27 24 24 25 24 21 22 19 25 27 28 26 24 25 24 24 22 20 20 18 18 18 15 13 14 13 8 9 7 8
43 37 44 44 44 44 43 35 33 29 27 26 25 28 27 26 28 31 33 32 31 32 26 28 22 23 27 23 22 25 22 27 28 27 31 25 23 23 21 20 18 18 17 17 16 16 15 13 11 12 12 10 10 11
38 42 43 43 41 40 35 33 31 29 25 23 25 26 27 28 29 31 32 33 34 33 33 28 30 24 19 20 22 26 26 24 27 28 26 20 20 20 22 21 18 18 17 15 16 14 12 12 15 17 17 14 13 14
41 41 44 44 40 35 31 30 32 25 24 24 24 26 29 29 30 31 32 32 34 35 32 28 25 24 24 26 27 27 24 27 28 27 21 15 16 18 17 17 16 16 16 15 17 18 18 17 20 20 20 18 19 20
44 43 43 43 41 32 29 28 32 29 25 26 27 27 26 27 29 29 30 32 33 33 31 28 27 27 27 29 28 30 29 27 25 25 26 20 17 17 18 19 20 18 17 17 18 17 18 18 20 20 20 20 20 20
39 38 40 36 33 31 29 29 28 27 27 25 27 28 26 29 26 25 26 32 31 30 29 30 29 26 22 24 27 27 26 27 27 29 28 21 17 20 18 19 18 19 19 18 18 18 17 20 21 21 19 19 20 20
36 40 32 34 29 30 30 32 28 28 27 27 27 28 24 23 23 25 28 26 26 26 26 26 26 25 25 27 25 26 25 25 24 21 18 19 18 18 18 18 19 18 19 18 20 19 19 21 21 21 20 20 12 17
38 36 30 29 23 21 23 32 27 28 20 24 27 24 24 24 24 29 24 27 25 23 25 25 26 27 25 23 25 25 25 25 23 22 21 21 21 21 20 19 21 18 18 19 21 20 20 16 15 18 17 15 16 16
38 28 21 18 20 15 24 22 30 28 27 24 21 19 22 25 30 26 24 22 22 23 26 27 27 26 26 27 25 24 24 25 22 21 22 21 20 19 21 21 21 22 23 22 21 21 19 18 12 16 15 15 15 17
23 19 17 8 25 16 17 15 24 22 16 21 21 20 25 27 24 22 21 20 23 25 25 26 27 27 26 25 23 23 24 24 23 21 20 22 20 20 19 20 20 21 22 19 17 18 16 15 16 16 15 17 16 14
12 17 13 13 12 16 16 10 17 18 13 20 21 21 22 21 19 18 19 17 18 23 22 23 25 26 25 25 24 23 24 24 24 21 20 22 22 20 18 18 18 20 20 21 18 18 18 16 16 15 15 11 9 14
10 12 22 27 26 26 18 20 22 18 14 16 16 17 16 11 13 16 18 18 18 20 23 24 25 27 26 23 21 20 20 20 20 20 18 17 18 20 21 19 19 21 18 20 20 20 18 15 15 13 11 11 11 11
18 19 16 19 20 24 17 17 14 14 15 21 22 18 13 14 15 17 18 19 19 20 22 20 20 21 20 18 18 17 16 16 16 17 18 17 15 14 14 15 15 15 14 15 16 16 16 15 14 14 12 7 2 2
20 21 21 16 20 22 21 22 22 20 21 23 22 20 15 15 15 14 15 15 17 18 17 18 16 17 17 17 17 18 19 20 20 17 15 14 14 13 12 14 14 15 16 16 15 13 12 11 9 6 3 -0 -3 -4
19 24 20 19 17 18 17 18 16 15 18 18 17 16 14 14 15 16 15 15 15 14 13 14 15 17 16 16 15 14 14 13 15 19 17 15 14 11 12 12 12 12 13 13 11 9 9 6 4 1 -0 -2 -2 -3
24 22 18 16 14 14 16 17 17 16 14 13 14 13 12 13 14 14 13 12 14 14 14 14 14 15 17 17 17 16 13 11 10 12 13 12 11 10 10 9 10 11 10 9 7 4 2 0 0 -1 -3 -7 -10 -7
21 19 17 14 14 17 19 18 16 14 13 13 11 12 11 13 12 11 11 11 16 14 12 14 12 10 11 11 11 10 10 10 10 11 11 10 9 9 9 8 8 7 5 3 2 1 -0 -1 -3 -5 -7 -9 -11 -12
17 16 16 15 14 15 16 17 15 13 13 12 11 11 9 11 9 9 11 10 8 9 8 7 8 8 8 8 8 8 8 8 8 10 8 8 7 7 6 6 5 4 1 -0 -1 -3 -4 -7 -9 -10 -11 -12 -14 -14

GFSWCAN_sfc_temp_126.txt.gz
Temp
48 49 48 48 48 47 48 49 48 48 48 48 48 49 49 49 49 53 48 51 55 45 44 48 48 45 44 47 41 42 41 41 41 39 40 40 39 40 38 39 37 36 34 34 34 30 27 36 36 33 34 39 40 39
48 48 48 48 47 47 48 48 48 48 48 48 48 49 49 49 49 51 49 53 56 50 45 49 48 49 51 50 46 43 43 42 46 43 44 44 38 39 40 30 42 34 39 38 32 30 35 37 36 42 43 39 39 39
47 48 48 47 47 47 47 48 48 48 48 48 48 49 49 48 48 51 49 53 55 47 48 49 45 50 54 52 53 45 44 45 44 48 45 44 37 46 36 39 37 38 42 37 34 31 34 36 39 41 41 39 41 40
47 48 48 47 46 47 47 47 47 47 47 48 48 48 48 48 48 50 49 49 53 50 39 41 52 47 51 54 52 53 48 48 48 51 47 45 42 45 41 42 43 43 42 34 30 33 36 37 39 38 38 39 38 39
47 47 47 47 47 47 46 46 47 47 47 48 48 48 48 48 48 51 48 50 51 51 39 41 49 49 52 53 51 52 50 49 49 46 44 42 47 45 45 44 41 45 39 36 34 36 38 36 39 39 37 36 36 35
47 47 46 46 46 46 46 47 47 47 47 48 48 48 47 47 47 54 38 51 51 53 45 37 46 47 49 51 49 48 49 48 50 49 46 48 45 46 39 39 40 43 43 43 38 42 39 39 40 41 37 37 37 36
46 47 46 46 46 46 46 46 45 46 47 47 47 48 47 47 49 45 42 46 47 52 44 37 39 46 50 49 48 48 48 48 49 48 47 48 46 47 40 37 39 42 43 43 43 40 34 37 35 39 38 37 36 36
47 47 46 46 46 46 46 46 46 47 47 47 47 47 47 48 48 45 48 47 50 48 49 37 35 41 48 44 41 47 46 48 46 46 46 46 45 45 37 41 43 43 42 41 42 43 42 41 39 38 37 36 34 33
46 46 46 46 45 46 46 46 46 47 47 47 47 47 48 45 43 44 46 48 51 48 39 37 34 31 46 42 44 44 47 38 46 42 44 44 42 35 42 42 42 42 41 41 42 42 40 38 37 35 36 35 33 31
46 45 45 45 45 45 45 46 46 47 47 46 48 42 34 41 46 47 47 43 43 42 43 37 42 34 43 42 39 39 42 39 35 41 45 39 39 42 43 48 47 45 45 43 38 36 38 37 36 36 36 36 35 33
45 45 45 45 45 46 46 46 46 46 46 44 37 34 40 45 46 41 33 35 36 34 41 40 42 36 44 37 36 41 37 39 32 37 36 36 37 41 43 45 47 47 46 45 46 44 43 41 38 36 35 34 34 32
46 45 45 45 45 46 46 46 46 46 44 44 41 42 44 41 36 32 32 34 35 33 37 37 39 42 39 44 40 39 34 36 28 41 32 31 40 41 43 43 44 45 45 44 45 42 41 40 39 38 36 34 32 31
45 45 45 45 46 46 46 46 45 45 46 44 41 34 35 33 27 27 24 29 30 33 35 37 34 39 40 43 36 37 30 30 39 31 32 38 40 40 42 44 44 44 43 43 42 41 40 39 39 36 32 31 27 25
45 45 45 45 45 45 46 45 45 45 45 37 33 26 29 26 31 32 34 34 34 36 36 38 34 39 38 34 33 30 31 34 27 26 30 41 36 37 40 42 41 37 36 37 36 35 33 31 28 28 26 24 21 18
45 45 44 44 45 45 45 45 44 45 39 32 33 25 28 32 33 33 34 34 35 39 38 36 37 41 33 30 33 31 27 27 31 32 38 40 33 34 34 35 33 32 31 31 30 28 26 23 23 22 21 22 21 17
45 44 42 44 45 45 44 44 44 43 38 34 32 29 31 32 31 32 33 32 37 39 40 42 34 32 30 33 30 28 29 29 34 38 40 38 32 32 32 32 32 31 31 30 29 27 24 22 22 23 21 20 18 18
45 39 44 44 44 43 44 43 41 34 33 31 29 32 31 32 32 33 33 34 39 38 33 37 30 28 35 31 29 35 32 37 39 39 38 32 30 31 31 30 27 27 28 28 27 26 25 24 21 20 19 19 20 19
39 43 45 45 46 43 41 41 37 35 28 30 30 30 32 32 32 33 33 36 39 39 39 34 37 30 30 28 32 36 38 38 37 35 35 31 28 29 30 30 27 28 27 26 25 24 22 20 23 25 25 22 22 21
43 45 44 45 46 43 38 37 38 30 30 32 32 33 32 32 33 34 34 37 41 43 40 37 33 34 34 37 37 37 37 37 37 34 34 26 26 27 28 28 26 27 26 25 25 28 27 26 30 30 29 26 27 27
44 43 43 43 45 41 34 34 39 35 30 32 35 33 33 31 32 32 33 34 36 37 35 35 36 37 38 39 40 40 39 38 38 36 35 32 30 26 27 28 31 29 28 27 28 27 28 28 29 30 30 29 28 28
44 42 42 45 42 41 37 34 33 33 34 32 33 35 32 34 33 33 33 35 34 36 36 38 36 37 32 34 36 39 37 39 40 39 39 34 30 32 29 30 29 30 30 29 28 27 27 29 30 30 27 27 28 29
41 42 42 42 37 36 34 37 34 35 34 32 33 34 30 29 30 32 34 33 34 34 34 34 35 36 35 31 34 34 32 33 32 30 29 29 30 30 30 30 29 29 30 30 30 29 28 31 30 29 28 28 26 28
42 43 39 37 31 31 28 38 30 32 27 29 32 29 28 29 32 35 31 33 31 31 32 32 32 33 32 29 32 32 32 34 35 34 32 33 33 32 32 30 31 29 29 29 31 30 29 28 26 28 28 27 27 26
41 32 28 27 30 24 30 29 33 31 30 28 27 23 25 28 32 31 29 32 31 31 32 31 32 32 32 32 35 34 32 35 33 32 32 32 32 30 32 31 31 31 32 31 29 29 28 27 25 27 27 26 25 25
31 26 28 23 28 25 23 25 27 26 22 24 22 23 27 30 26 27 27 30 30 29 30 31 31 30 31 32 33 31 29 32 33 32 30 31 30 29 28 29 29 30 30 28 27 27 26 26 27 26 25 25 24 22
23 24 25 25 25 25 24 21 23 23 25 22 24 29 30 27 23 23 28 26 27 28 26 27 28 30 31 30 30 30 30 32 33 31 28 30 30 29 27 26 26 26 30 30 28 27 26 26 25 23 23 19 19 21
23 22 27 33 32 29 26 27 29 27 24 23 27 26 26 22 23 26 26 26 27 27 27 28 28 29 31 30 28 27 27 28 27 27 26 26 27 29 30 28 27 28 29 29 28 28 27 24 23 22 20 20 19 19
28 28 23 26 27 30 24 24 24 24 27 30 29 25 23 24 25 25 25 25 25 26 27 27 26 27 28 26 26 25 24 23 23 24 25 24 23 23 23 23 22 22 24 26 26 27 26 24 22 21 18 14 12 14
25 29 29 21 25 27 27 27 28 28 27 29 28 27 23 22 21 22 24 23 25 26 27 27 24 25 24 25 25 26 26 27 25 23 23 22 22 19 22 23 23 23 23 20 19 21 21 20 17 15 12 10 9 8
26 30 27 25 23 25 26 26 25 24 25 25 24 22 21 21 21 22 22 23 24 23 23 24 24 26 24 23 22 21 21 22 23 26 24 23 21 20 20 20 20 21 20 18 15 14 14 13 12 11 10 9 9 6
29 28 25 25 23 23 24 24 24 23 23 22 22 23 20 20 20 19 18 18 21 23 23 22 21 23 23 23 24 23 20 18 18 20 21 20 19 19 18 18 19 19 18 17 15 14 13 12 10 8 6 3 2 3
25 24 23 19 20 22 23 23 23 21 21 21 19 20 18 19 17 17 14 16 22 20 17 19 19 15 16 17 16 16 17 17 17 17 18 17 17 17 17 17 16 16 15 13 12 11 10 9 7 5 3 1 -1 -2
21 21 21 20 18 19 21 21 20 17 18 18 17 17 17 17 13 13 15 13 12 14 13 12 13 13 13 14 14 14 14 14 14 14 13 14 14 15 15 15 14 13 11 10 9 7 6 4 3 1 -1 -3 -4 -4

GFSWCAN_sfc_temp_129.txt.gz
Temp
49 47 48 48 48 48 49 49 49 49 48 48 49 49 49 49 50 54 55 58 60 50 52 55 55 50 52 53 45 48 45 46 45 42 43 44 42 44 42 46 43 42 39 35 38 35 29 44 41 34 38 43 44 43
48 47 48 48 48 47 48 48 48 48 48 48 49 49 49 49 50 51 55 62 65 56 49 54 54 56 56 56 54 50 49 49 51 47 48 49 42 44 45 34 47 38 45 40 37 32 36 41 41 46 47 44 44 43
46 47 48 47 47 47 48 48 48 48 48 48 49 49 49 49 51 56 59 61 60 51 52 53 48 54 58 57 58 49 52 51 50 53 50 49 42 50 40 44 43 44 47 41 36 34 36 39 43 45 46 44 45 45
45 47 48 47 47 47 48 47 47 47 48 48 48 49 48 49 51 55 56 60 60 55 42 44 58 51 58 59 58 58 53 54 54 55 50 48 45 50 48 47 47 48 47 38 33 36 39 41 40 41 42 44 43 43
45 47 47 47 47 47 47 47 47 47 47 48 48 48 49 50 52 56 58 58 60 56 42 44 52 55 58 57 56 56 55 53 52 49 47 47 52 50 51 50 46 50 43 37 37 40 42 41 43 44 41 40 42 40
44 47 47 46 46 46 46 47 47 47 47 48 48 48 48 48 50 60 40 57 60 63 49 38 51 50 55 55 54 53 54 54 56 53 50 52 51 49 43 42 47 50 50 49 42 46 46 44 44 45 42 42 42 41
45 47 46 46 46 46 45 46 47 47 47 47 47 48 48 50 55 51 46 52 50 60 47 40 41 49 54 54 53 53 54 54 54 51 51 51 49 49 44 41 46 48 48 48 49 46 41 43 41 44 44 43 41 41
46 47 46 46 46 46 46 46 46 47 47 47 48 48 49 49 50 50 52 51 52 57 55 39 37 43 52 48 45 54 50 53 50 50 50 49 49 49 41 47 49 49 48 46 46 49 46 47 46 44 43 42 39 38
46 46 45 46 46 45 45 46 46 47 47 47 47 48 54 52 50 51 47 49 58 55 44 42 36 32 51 47 49 49 52 41 50 45 48 49 46 38 45 48 48 48 46 45 47 49 47 43 43 41 40 39 38 36
46 46 45 45 45 45 45 45 47 47 47 47 52 45 35 45 45 49 54 49 49 50 51 42 47 36 47 45 44 42 45 42 37 44 49 42 44 48 49 52 53 50 50 49 43 41 42 40 40 40 39 40 40 38
46 46 45 45 46 46 46 46 47 47 48 51 40 36 45 47 53 46 35 40 43 39 47 45 44 38 49 40 39 46 41 42 35 39 39 40 41 44 49 51 53 52 51 50 50 48 47 45 42 41 40 40 40 38
46 46 46 46 46 46 46 46 45 49 50 47 45 48 50 46 41 35 35 39 41 38 43 41 42 45 43 49 43 43 37 38 32 44 36 34 42 47 49 49 50 51 50 49 50 48 47 45 44 43 41 39 38 37
45 46 46 46 46 46 46 46 47 46 48 48 44 36 38 36 30 30 26 34 34 38 40 41 37 43 44 47 39 40 31 32 43 33 34 41 44 47 48 49 48 49 48 47 47 47 46 44 44 42 39 38 34 31
45 45 45 46 46 46 45 45 46 47 49 41 36 28 31 28 34 37 39 38 37 40 41 42 40 41 42 36 35 31 34 38 30 29 33 43 41 43 47 48 47 44 42 43 42 42 38 37 34 33 33 30 29 24
45 46 46 45 45 45 45 45 45 50 45 36 37 28 31 35 35 35 37 37 40 44 42 41 42 43 36 31 36 34 29 29 34 35 40 42 37 40 41 42 37 34 33 33 33 32 31 29 28 28 27 28 26 23
45 45 44 45 45 45 45 46 49 48 43 38 35 31 35 33 31 33 35 33 41 43 46 47 39 34 33 36 32 31 33 32 36 41 43 44 35 36 36 36 35 34 34 33 32 31 29 27 27 28 27 26 23 22
43 39 45 44 44 45 46 47 46 38 36 34 31 34 34 35 32 33 35 37 43 42 35 41 32 31 39 35 33 40 34 38 42 42 42 34 32 33 33 33 32 32 32 32 31 31 29 29 28 26 24 23 24 24
40 45 45 45 49 47 47 45 41 38 31 33 32 32 34 33 34 33 35 41 43 43 43 38 42 33 32 31 34 38 41 41 42 41 39 33 31 32 33 32 31 32 32 31 31 30 29 26 27 28 29 26 27 25
47 48 45 45 49 49 42 40 42 33 32 34 35 36 35 34 35 35 36 41 45 49 44 43 35 37 36 41 39 40 40 42 40 39 36 30 31 31 32 31 31 31 31 30 30 32 32 30 34 35 33 29 30 31
43 43 44 45 48 45 38 38 45 38 33 34 38 35 36 34 35 33 36 37 40 43 38 38 37 37 38 40 43 43 42 43 44 42 38 36 34 30 31 33 36 33 33 32 33 33 34 33 36 36 34 32 33 31
47 46 46 50 48 45 40 39 36 38 38 36 39 40 36 39 35 34 35 42 38 39 38 39 36 37 35 35 40 43 41 45 44 43 42 38 35 38 34 36 35 36 35 34 34 33 32 33 35 35 32 31 32 32
47 44 48 47 42 41 38 42 39 41 38 37 38 40 35 32 33 34 39 37 37 35 35 36 36 39 41 34 35 37 34 38 38 37 35 36 36 36 36 35 35 34 35 33 34 32 32 36 35 33 31 30 31 31
44 48 44 42 33 33 30 43 34 37 30 33 37 33 33 34 36 40 34 38 35 35 36 36 36 37 36 34 37 37 36 39 41 38 38 38 38 37 38 36 36 32 32 33 35 33 31 33 31 31 31 30 29 27
44 35 30 31 33 26 33 31 37 35 35 32 31 27 29 32 38 35 32 35 33 37 35 35 36 36 38 37 39 38 38 41 39 37 38 39 37 35 37 36 35 34 34 34 32 31 31 29 30 30 29 29 27 27
34 28 30 26 32 29 27 27 28 30 26 28 26 27 29 34 29 30 30 32 32 31 32 34 36 36 35 36 37 36 35 38 39 36 35 37 35 35 33 32 32 32 33 30 29 29 28 29 29 29 28 27 26 26
26 27 28 29 29 29 29 25 27 26 28 25 26 32 32 29 26 26 31 28 29 31 29 29 30 33 34 35 34 33 33 36 37 33 33 35 34 31 29 28 27 28 33 32 30 29 29 29 27 26 26 26 25 24
26 26 33 38 36 34 30 31 34 30 27 26 29 28 28 24 26 27 30 30 30 29 31 31 31 31 31 32 32 31 31 31 31 31 31 31 31 30 30 29 27 29 32 31 31 30 29 28 27 26 24 24 23 23
32 32 26 29 30 34 27 27 27 27 30 36 33 27 25 27 26 27 28 29 29 30 31 31 31 32 31 30 30 29 28 28 28 29 29 28 29 28 27 26 25 26 28 29 29 29 29 27 25 23 20 18 17 18
29 33 32 26 28 29 29 29 30 30 31 32 29 29 27 27 26 27 27 27 29 29 29 29 28 29 29 29 29 29 29 29 28 25 25 24 24 23 27 26 26 26 24 22 22 25 24 23 21 19 17 16 15 15
29 35 30 28 26 28 28 30 29 28 32 30 30 28 27 26 25 27 27 27 27 26 26 27 28 28 28 27 25 25 25 26 26 27 27 25 23 24 25 24 23 23 22 20 17 16 17 16 16 16 15 14 13 10
32 30 28 29 28 27 28 28 28 28 28 28 27 27 26 24 24 24 23 23 25 26 27 26 25 26 27 27 26 26 22 23 24 25 25 24 23 22 22 22 23 22 21 20 19 18 17 15 14 11 10 8 7 7
29 27 27 24 25 26 27 27 27 26 26 25 24 25 23 23 22 21 19 21 25 23 20 23 22 18 21 21 21 21 21 21 21 21 21 20 20 21 21 21 21 20 19 18 17 16 15 13 11 9 7 5 4 2
26 26 25 25 24 22 24 24 24 22 23 23 22 22 23 21 18 17 19 18 18 18 17 17 18 18 18 18 17 16 16 16 16 17 17 18 18 19 19 19 18 17 15 14 13 12 10 9 7 5 4 2 2 1